Wetterdaten: Dienstag, 24.10.2017
Datum Zeit Temp. A. Pool Temp. Feuchte A. Luftdruck Regen Wind Richtung Richtung Sonnenschein ET UV Solar Taupunkt Windchill Windben Empfang
24.10.2017 00:00 8,6 C 10,6 C 87 % 1022,3 hPa 0,0 l/m 13,9 km/h (3 Bft) W-SW 257 0 min 0,000 mm 0,0 UV-I 0 W/m 6,6 C 3,9 C 22,5 km/h (4 Bft) 98,00 %
24.10.2017 00:02 8,6 C 10,6 C 87 % 1022,3 hPa 0,0 l/m 12,7 km/h (3 Bft) W-SW 254 0 min 0,000 mm 0,0 UV-I 0 W/m 6,6 C 4,5 C 20,9 km/h (4 Bft) 100,00 %
24.10.2017 00:04 8,6 C 10,6 C 87 % 1022,4 hPa 0,0 l/m 15,6 km/h (3 Bft) W 262 0 min 0,000 mm 0,0 UV-I 0 W/m 6,6 C 3,2 C 22,5 km/h (4 Bft) 98,11 %
24.10.2017 00:06 8,6 C 10,6 C 87 % 1022,3 hPa 0,0 l/m 14,0 km/h (3 Bft) W 259 0 min 0,000 mm 0,0 UV-I 0 W/m 6,6 C 3,9 C 19,3 km/h (3 Bft) 100,00 %
24.10.2017 00:08 8,6 C 10,6 C 87 % 1022,3 hPa 0,0 l/m 14,2 km/h (3 Bft) W 264 0 min 0,000 mm 0,0 UV-I 0 W/m 6,6 C 3,8 C 19,3 km/h (3 Bft) 100,00 %
24.10.2017 00:10 8,6 C 10,6 C 88 % 1022,2 hPa 0,0 l/m 15,3 km/h (3 Bft) W 261 0 min 0,000 mm 0,0 UV-I 0 W/m 6,7 C 3,3 C 24,1 km/h (4 Bft) 100,00 %
24.10.2017 00:12 8,6 C 10,6 C 88 % 1022,4 hPa 0,0 l/m 13,9 km/h (3 Bft) W 264 0 min 0,000 mm 0,0 UV-I 0 W/m 6,7 C 3,9 C 24,1 km/h (4 Bft) 100,00 %
24.10.2017 00:14 8,5 C 10,6 C 88 % 1022,4 hPa 0,0 l/m 11,0 km/h (2 Bft) W-SW 246 0 min 0,000 mm 0,0 UV-I 0 W/m 6,6 C 5,3 C 16,1 km/h (3 Bft) 100,00 %
24.10.2017 00:16 8,4 C 10,6 C 89 % 1022,4 hPa 0,0 l/m 13,9 km/h (3 Bft) W 267 0 min 0,000 mm 0,0 UV-I 0 W/m 6,7 C 3,7 C 19,3 km/h (3 Bft) 100,00 %
24.10.2017 00:18 8,4 C 10,6 C 89 % 1022,3 hPa 0,0 l/m 12,5 km/h (3 Bft) W-SW 243 0 min 0,000 mm 0,0 UV-I 0 W/m 6,7 C 4,4 C 19,3 km/h (3 Bft) 100,00 %
24.10.2017 00:20 8,4 C 10,6 C 89 % 1022,4 hPa 0,0 l/m 10,4 km/h (2 Bft) W-SW 240 0 min 0,000 mm 0,0 UV-I 0 W/m 6,7 C 5,6 C 14,5 km/h (3 Bft) 98,11 %
24.10.2017 00:22 8,3 C 10,6 C 89 % 1022,4 hPa 0,0 l/m 13,9 km/h (3 Bft) W-NW 282 0 min 0,000 mm 0,0 UV-I 0 W/m 6,6 C 3,6 C 22,5 km/h (4 Bft) 97,37 %
24.10.2017 00:24 8,3 C 10,6 C 89 % 1022,4 hPa 0,0 l/m 13,1 km/h (3 Bft) W-SW 247 0 min 0,000 mm 0,0 UV-I 0 W/m 6,6 C 4,0 C 20,9 km/h (4 Bft) 96,23 %
24.10.2017 00:26 8,3 C 10,6 C 89 % 1022,4 hPa 0,0 l/m 13,9 km/h (3 Bft) W-SW 248 0 min 0,000 mm 0,0 UV-I 0 W/m 6,6 C 3,6 C 24,1 km/h (4 Bft) 100,00 %
24.10.2017 00:28 8,3 C 10,6 C 89 % 1022,3 hPa 0,0 l/m 12,9 km/h (3 Bft) W 276 0 min 0,000 mm 0,0 UV-I 0 W/m 6,6 C 4,1 C 20,9 km/h (4 Bft) 97,62 %
24.10.2017 00:30 8,3 C 10,6 C 90 % 1022,3 hPa 0,0 l/m 14,8 km/h (3 Bft) W 262 0 min 0,000 mm 0,0 UV-I 0 W/m 6,8 C 3,2 C 24,1 km/h (4 Bft) 96,15 %
24.10.2017 00:32 8,3 C 10,6 C 90 % 1022,3 hPa 0,0 l/m 15,0 km/h (3 Bft) W-SW 246 0 min 0,000 mm 0,0 UV-I 0 W/m 6,8 C 3,1 C 20,9 km/h (4 Bft) 97,62 %
24.10.2017 00:34 8,3 C 10,6 C 90 % 1022,4 hPa 0,0 l/m 17,1 km/h (3 Bft) W 263 0 min 0,000 mm 0,0 UV-I 0 W/m 6,8 C 2,2 C 24,1 km/h (4 Bft) 97,87 %
24.10.2017 00:36 8,2 C 10,6 C 90 % 1022,4 hPa 0,0 l/m 11,7 km/h (2 Bft) SW 236 0 min 0,000 mm 0,0 UV-I 0 W/m 6,7 C 4,6 C 19,3 km/h (3 Bft) 96,00 %
24.10.2017 00:38 8,2 C 10,6 C 90 % 1022,4 hPa 0,0 l/m 14,5 km/h (3 Bft) W-SW 239 0 min 0,000 mm 0,0 UV-I 0 W/m 6,7 C 3,2 C 20,9 km/h (4 Bft) 98,11 %
24.10.2017 00:40 8,2 C 10,6 C 90 % 1022,4 hPa 0,0 l/m 12,1 km/h (2 Bft) W-SW 253 0 min 0,000 mm 0,0 UV-I 0 W/m 6,7 C 4,4 C 17,7 km/h (3 Bft) 97,37 %
24.10.2017 00:42 8,2 C 10,6 C 90 % 1022,3 hPa 0,0 l/m 13,5 km/h (3 Bft) NW 309 0 min 0,000 mm 0,0 UV-I 0 W/m 6,7 C 3,7 C 19,3 km/h (3 Bft) 98,21 %
24.10.2017 00:44 8,2 C 10,6 C 90 % 1022,4 hPa 0,0 l/m 12,8 km/h (3 Bft) W-NW 294 0 min 0,000 mm 0,0 UV-I 0 W/m 6,7 C 4,0 C 19,3 km/h (3 Bft) 95,12 %
24.10.2017 00:46 8,2 C 10,6 C 90 % 1022,4 hPa 0,0 l/m 12,0 km/h (2 Bft) W-SW 251 0 min 0,000 mm 0,0 UV-I 0 W/m 6,7 C 4,4 C 22,5 km/h (4 Bft) 98,00 %
24.10.2017 00:48 8,2 C 10,6 C 90 % 1022,4 hPa 0,0 l/m 17,2 km/h (3 Bft) W 263 0 min 0,000 mm 0,0 UV-I 0 W/m 6,7 C 2,0 C 25,7 km/h (4 Bft) 97,56 %
24.10.2017 00:50 8,2 C 10,6 C 90 % 1022,3 hPa 0,0 l/m 14,7 km/h (3 Bft) W-NW 288 0 min 0,000 mm 0,0 UV-I 0 W/m 6,7 C 3,1 C 24,1 km/h (4 Bft) 96,55 %
24.10.2017 00:52 8,2 C 10,6 C 90 % 1022,4 hPa 0,0 l/m 13,2 km/h (3 Bft) W-SW 254 0 min 0,000 mm 0,0 UV-I 0 W/m 6,7 C 3,8 C 24,1 km/h (4 Bft) 97,18 %
24.10.2017 00:54 8,2 C 10,6 C 90 % 1022,4 hPa 0,0 l/m 14,1 km/h (3 Bft) W-SW 254 0 min 0,000 mm 0,0 UV-I 0 W/m 6,7 C 3,4 C 22,5 km/h (4 Bft) 100,00 %
24.10.2017 00:56 8,2 C 10,6 C 90 % 1022,5 hPa 0,0 l/m 13,3 km/h (3 Bft) W-SW 243 0 min 0,000 mm 0,0 UV-I 0 W/m 6,7 C 3,8 C 20,9 km/h (4 Bft) 96,00 %
24.10.2017 00:58 8,2 C 10,6 C 90 % 1022,5 hPa 0,0 l/m 14,3 km/h (3 Bft) W-SW 246 0 min 0,000 mm 0,0 UV-I 0 W/m 6,7 C 3,3 C 20,9 km/h (4 Bft) 98,00 %
24.10.2017 01:00 8,2 C 10,6 C 90 % 1022,5 hPa 0,0 l/m 15,6 km/h (3 Bft) W 262 0 min 0,025 mm 0,0 UV-I 0 W/m 6,7 C 2,7 C 20,9 km/h (4 Bft) 98,00 %
24.10.2017 01:02 8,2 C 10,6 C 90 % 1022,5 hPa 0,0 l/m 16,2 km/h (3 Bft) W-SW 257 0 min 0,000 mm 0,0 UV-I 0 W/m 6,7 C 2,4 C 22,5 km/h (4 Bft) 97,73 %
24.10.2017 01:04 8,2 C 10,6 C 90 % 1022,5 hPa 0,0 l/m 11,8 km/h (2 Bft) SW 234 0 min 0,000 mm 0,0 UV-I 0 W/m 6,7 C 4,6 C 20,9 km/h (4 Bft) 100,00 %
24.10.2017 01:06 8,2 C 10,6 C 90 % 1022,6 hPa 0,0 l/m 15,7 km/h (3 Bft) W 259 0 min 0,000 mm 0,0 UV-I 0 W/m 6,7 C 2,6 C 27,4 km/h (4 Bft) 100,00 %
24.10.2017 01:08 8,2 C 10,6 C 90 % 1022,6 hPa 0,0 l/m 13,9 km/h (3 Bft) W-SW 248 0 min 0,000 mm 0,0 UV-I 0 W/m 6,7 C 3,5 C 17,7 km/h (3 Bft) 100,00 %
24.10.2017 01:10 8,2 C 10,6 C 90 % 1022,7 hPa 0,0 l/m 12,0 km/h (2 Bft) W-NW 302 0 min 0,000 mm 0,0 UV-I 0 W/m 6,7 C 4,4 C 17,7 km/h (3 Bft) 100,00 %
24.10.2017 01:12 8,2 C 10,6 C 90 % 1022,7 hPa 0,0 l/m 15,5 km/h (3 Bft) W-SW 244 0 min 0,000 mm 0,0 UV-I 0 W/m 6,7 C 2,7 C 22,5 km/h (4 Bft) 100,00 %
24.10.2017 01:14 8,2 C 10,6 C 90 % 1022,7 hPa 0,0 l/m 13,5 km/h (3 Bft) W-SW 247 0 min 0,000 mm 0,0 UV-I 0 W/m 6,7 C 3,7 C 20,9 km/h (4 Bft) 98,21 %
24.10.2017 01:16 8,2 C 10,6 C 90 % 1022,7 hPa 0,0 l/m 12,1 km/h (2 Bft) W 265 0 min 0,000 mm 0,0 UV-I 0 W/m 6,7 C 4,4 C 16,1 km/h (3 Bft) 100,00 %
24.10.2017 01:18 8,2 C 10,6 C 90 % 1022,7 hPa 0,0 l/m 12,4 km/h (3 Bft) W 268 0 min 0,000 mm 0,0 UV-I 0 W/m 6,7 C 4,2 C 19,3 km/h (3 Bft) 100,00 %
24.10.2017 01:20 8,2 C 10,6 C 90 % 1022,7 hPa 0,0 l/m 12,8 km/h (3 Bft) W-SW 254 0 min 0,000 mm 0,0 UV-I 0 W/m 6,7 C 4,0 C 19,3 km/h (3 Bft) 100,00 %
24.10.2017 01:22 8,2 C 10,6 C 90 % 1022,7 hPa 0,0 l/m 13,1 km/h (3 Bft) W-SW 238 0 min 0,000 mm 0,0 UV-I 0 W/m 6,7 C 3,9 C 22,5 km/h (4 Bft) 100,00 %
24.10.2017 01:24 8,3 C 10,6 C 90 % 1022,7 hPa 0,0 l/m 13,4 km/h (3 Bft) W-SW 242 0 min 0,000 mm 0,0 UV-I 0 W/m 6,8 C 3,8 C 22,5 km/h (4 Bft) 100,00 %
24.10.2017 01:26 8,2 C 10,6 C 90 % 1022,7 hPa 0,0 l/m 10,6 km/h (2 Bft) SW 236 0 min 0,000 mm 0,0 UV-I 0 W/m 6,7 C 5,2 C 14,5 km/h (3 Bft) 100,00 %
24.10.2017 01:28 8,2 C 10,6 C 91 % 1022,7 hPa 0,0 l/m 12,7 km/h (3 Bft) W-SW 246 0 min 0,000 mm 0,0 UV-I 0 W/m 6,8 C 4,1 C 17,7 km/h (3 Bft) 100,00 %
24.10.2017 01:30 8,2 C 10,6 C 91 % 1022,8 hPa 0,0 l/m 11,0 km/h (2 Bft) W-SW 254 0 min 0,000 mm 0,0 UV-I 0 W/m 6,8 C 5,0 C 16,1 km/h (3 Bft) 100,00 %
24.10.2017 01:32 8,2 C 10,6 C 91 % 1022,7 hPa 0,0 l/m 13,3 km/h (3 Bft) W-SW 242 0 min 0,000 mm 0,0 UV-I 0 W/m 6,8 C 3,8 C 20,9 km/h (4 Bft) 100,00 %
24.10.2017 01:34 8,2 C 10,6 C 91 % 1022,7 hPa 0,0 l/m 11,5 km/h (2 Bft) W 273 0 min 0,000 mm 0,0 UV-I 0 W/m 6,8 C 4,7 C 20,9 km/h (4 Bft) 100,00 %
24.10.2017 01:36 8,2 C 10,6 C 91 % 1022,7 hPa 0,0 l/m 12,1 km/h (2 Bft) W 267 0 min 0,000 mm 0,0 UV-I 0 W/m 6,8 C 4,4 C 17,7 km/h (3 Bft) 98,00 %
24.10.2017 01:38 8,2 C 10,6 C 91 % 1022,7 hPa 0,0 l/m 12,3 km/h (3 Bft) W-SW 254 0 min 0,000 mm 0,0 UV-I 0 W/m 6,8 C 4,3 C 19,3 km/h (3 Bft) 95,74 %
24.10.2017 01:40 8,2 C 10,6 C 91 % 1022,7 hPa 0,0 l/m 11,0 km/h (2 Bft) W 267 0 min 0,000 mm 0,0 UV-I 0 W/m 6,8 C 5,0 C 14,5 km/h (3 Bft) 100,00 %
24.10.2017 01:42 8,2 C 10,6 C 91 % 1022,7 hPa 0,0 l/m 10,4 km/h (2 Bft) W-SW 252 0 min 0,000 mm 0,0 UV-I 0 W/m 6,8 C 5,4 C 17,7 km/h (3 Bft) 100,00 %
24.10.2017 01:44 8,2 C 10,6 C 91 % 1022,7 hPa 0,0 l/m 11,2 km/h (2 Bft) W-SW 247 0 min 0,000 mm 0,0 UV-I 0 W/m 6,8 C 4,9 C 16,1 km/h (3 Bft) 100,00 %
24.10.2017 01:46 8,1 C 10,6 C 91 % 1022,7 hPa 0,0 l/m 13,3 km/h (3 Bft) W 267 0 min 0,000 mm 0,0 UV-I 0 W/m 6,7 C 3,6 C 19,3 km/h (3 Bft) 98,44 %
24.10.2017 01:48 8,1 C 10,6 C 91 % 1022,7 hPa 0,0 l/m 10,5 km/h (2 Bft) W-NW 291 0 min 0,000 mm 0,0 UV-I 0 W/m 6,7 C 5,2 C 17,7 km/h (3 Bft) 100,00 %
24.10.2017 01:50 8,1 C 10,6 C 91 % 1022,7 hPa 0,0 l/m 11,3 km/h (2 Bft) W 261 0 min 0,000 mm 0,0 UV-I 0 W/m 6,7 C 4,7 C 19,3 km/h (3 Bft) 97,01 %
24.10.2017 01:52 8,1 C 10,6 C 91 % 1022,7 hPa 0,0 l/m 12,8 km/h (3 Bft) W-NW 296 0 min 0,000 mm 0,0 UV-I 0 W/m 6,7 C 3,9 C 17,7 km/h (3 Bft) 97,44 %
24.10.2017 01:54 8,1 C 10,6 C 91 % 1022,7 hPa 0,0 l/m 15,3 km/h (3 Bft) W-SW 250 0 min 0,000 mm 0,0 UV-I 0 W/m 6,7 C 2,7 C 20,9 km/h (4 Bft) 98,11 %
24.10.2017 01:56 8,1 C 10,6 C 91 % 1022,7 hPa 0,0 l/m 13,8 km/h (3 Bft) W-SW 250 0 min 0,000 mm 0,0 UV-I 0 W/m 6,7 C 3,4 C 19,3 km/h (3 Bft) 97,87 %
24.10.2017 01:58 8,1 C 10,6 C 91 % 1022,7 hPa 0,0 l/m 11,3 km/h (2 Bft) W-NW 300 0 min 0,000 mm 0,0 UV-I 0 W/m 6,7 C 4,7 C 19,3 km/h (3 Bft) 93,18 %
24.10.2017 02:00 8,2 C 10,6 C 91 % 1022,7 hPa 0,0 l/m 14,0 km/h (3 Bft) W 259 0 min 0,026 mm 0,0 UV-I 0 W/m 6,8 C 3,4 C 19,3 km/h (3 Bft) 95,74 %
24.10.2017 02:02 8,2 C 10,6 C 91 % 1022,7 hPa 0,0 l/m 11,7 km/h (2 Bft) W 266 0 min 0,000 mm 0,0 UV-I 0 W/m 6,8 C 4,6 C 19,3 km/h (3 Bft) 98,00 %
24.10.2017 02:04 8,2 C 10,6 C 91 % 1022,8 hPa 0,0 l/m 15,7 km/h (3 Bft) W-SW 252 0 min 0,000 mm 0,0 UV-I 0 W/m 6,8 C 2,6 C 20,9 km/h (4 Bft) 97,56 %
24.10.2017 02:06 8,2 C 10,6 C 91 % 1022,8 hPa 0,0 l/m 14,4 km/h (3 Bft) W 277 0 min 0,000 mm 0,0 UV-I 0 W/m 6,8 C 3,2 C 20,9 km/h (4 Bft) 98,11 %
24.10.2017 02:08 8,2 C 10,6 C 91 % 1022,7 hPa 0,0 l/m 12,1 km/h (2 Bft) W 274 0 min 0,000 mm 0,0 UV-I 0 W/m 6,8 C 4,4 C 17,7 km/h (3 Bft) 97,56 %
24.10.2017 02:10 8,2 C 10,6 C 91 % 1022,8 hPa 0,0 l/m 11,8 km/h (2 Bft) W 259 0 min 0,000 mm 0,0 UV-I 0 W/m 6,8 C 4,6 C 17,7 km/h (3 Bft) 95,12 %
24.10.2017 02:12 8,2 C 10,6 C 91 % 1022,8 hPa 0,0 l/m 10,0 km/h (2 Bft) W-SW 253 0 min 0,000 mm 0,0 UV-I 0 W/m 6,8 C 5,6 C 14,5 km/h (3 Bft) 94,34 %
24.10.2017 02:14 8,2 C 10,6 C 91 % 1022,9 hPa 0,0 l/m 6,9 km/h (2 Bft) W-SW 250 0 min 0,000 mm 0,0 UV-I 0 W/m 6,8 C 7,8 C 11,3 km/h (2 Bft) 97,56 %
24.10.2017 02:16 8,2 C 10,6 C 91 % 1022,9 hPa 0,0 l/m 10,9 km/h (2 Bft) W-SW 245 0 min 0,000 mm 0,0 UV-I 0 W/m 6,8 C 5,1 C 16,1 km/h (3 Bft) 98,31 %
24.10.2017 02:18 8,2 C 10,6 C 91 % 1023,0 hPa 0,0 l/m 8,9 km/h (2 Bft) W-SW 257 0 min 0,000 mm 0,0 UV-I 0 W/m 6,8 C 6,3 C 16,1 km/h (3 Bft) 92,59 %
24.10.2017 02:20 8,2 C 10,6 C 91 % 1022,9 hPa 0,0 l/m 9,8 km/h (2 Bft) W-SW 258 0 min 0,000 mm 0,0 UV-I 0 W/m 6,8 C 5,7 C 16,1 km/h (3 Bft) 98,44 %
24.10.2017 02:22 8,2 C 10,6 C 91 % 1023,0 hPa 0,0 l/m 9,9 km/h (2 Bft) W-SW 242 0 min 0,000 mm 0,0 UV-I 0 W/m 6,8 C 5,7 C 12,9 km/h (3 Bft) 97,22 %
24.10.2017 02:24 8,2 C 10,6 C 91 % 1022,9 hPa 0,0 l/m 11,5 km/h (2 Bft) W-SW 253 0 min 0,000 mm 0,0 UV-I 0 W/m 6,8 C 4,7 C 16,1 km/h (3 Bft) 98,00 %
24.10.2017 02:26 8,2 C 10,6 C 91 % 1023,0 hPa 0,0 l/m 8,5 km/h (2 Bft) W-SW 250 0 min 0,000 mm 0,0 UV-I 0 W/m 6,8 C 6,6 C 12,9 km/h (3 Bft) 98,18 %
24.10.2017 02:28 8,2 C 10,6 C 91 % 1022,9 hPa 0,0 l/m 7,2 km/h (2 Bft) W-SW 252 0 min 0,000 mm 0,0 UV-I 0 W/m 6,8 C 7,6 C 11,3 km/h (2 Bft) 98,00 %
24.10.2017 02:30 8,2 C 10,6 C 91 % 1022,9 hPa 0,0 l/m 9,8 km/h (2 Bft) W-SW 251 0 min 0,000 mm 0,0 UV-I 0 W/m 6,8 C 5,7 C 19,3 km/h (3 Bft) 97,62 %
24.10.2017 02:32 8,2 C 10,6 C 91 % 1022,9 hPa 0,0 l/m 11,3 km/h (2 Bft) W 265 0 min 0,000 mm 0,0 UV-I 0 W/m 6,8 C 4,8 C 14,5 km/h (3 Bft) 94,00 %
24.10.2017 02:34 8,2 C 10,6 C 91 % 1022,9 hPa 0,0 l/m 12,5 km/h (3 Bft) W-SW 252 0 min 0,000 mm 0,0 UV-I 0 W/m 6,8 C 4,2 C 17,7 km/h (3 Bft) 97,37 %
24.10.2017 02:36 8,2 C 10,6 C 91 % 1023,0 hPa 0,0 l/m 8,1 km/h (2 Bft) W-SW 255 0 min 0,000 mm 0,0 UV-I 0 W/m 6,8 C 6,9 C 14,5 km/h (3 Bft) 93,62 %
24.10.2017 02:38 8,2 C 10,6 C 91 % 1023,0 hPa 0,0 l/m 9,2 km/h (2 Bft) W 260 0 min 0,000 mm 0,0 UV-I 0 W/m 6,8 C 6,1 C 14,5 km/h (3 Bft) 93,62 %
24.10.2017 02:40 8,2 C 10,6 C 91 % 1023,0 hPa 0,0 l/m 8,7 km/h (2 Bft) W-SW 258 0 min 0,000 mm 0,0 UV-I 0 W/m 6,8 C 6,5 C 12,9 km/h (3 Bft) 92,00 %
24.10.2017 02:42 8,2 C 10,6 C 91 % 1023,0 hPa 0,0 l/m 11,3 km/h (2 Bft) W-SW 248 0 min 0,000 mm 0,0 UV-I 0 W/m 6,8 C 4,8 C 16,1 km/h (3 Bft) 94,74 %
24.10.2017 02:44 8,2 C 10,6 C 91 % 1023,0 hPa 0,0 l/m 11,3 km/h (2 Bft) W 269 0 min 0,000 mm 0,0 UV-I 0 W/m 6,8 C 4,8 C 16,1 km/h (3 Bft) 96,43 %
24.10.2017 02:46 8,2 C 10,6 C 91 % 1023,0 hPa 0,0 l/m 9,9 km/h (2 Bft) W 261 0 min 0,000 mm 0,0 UV-I 0 W/m 6,8 C 5,7 C 12,9 km/h (3 Bft) 96,23 %
24.10.2017 02:48 8,2 C 10,6 C 91 % 1023,0 hPa 0,0 l/m 10,8 km/h (2 Bft) W-SW 247 0 min 0,000 mm 0,0 UV-I 0 W/m 6,8 C 5,1 C 16,1 km/h (3 Bft) 92,31 %
24.10.2017 02:50 8,2 C 10,6 C 91 % 1023,0 hPa 0,0 l/m 9,0 km/h (2 Bft) W 269 0 min 0,000 mm 0,0 UV-I 0 W/m 6,8 C 6,3 C 16,1 km/h (3 Bft) 95,16 %
24.10.2017 02:52 8,2 C 10,6 C 91 % 1023,0 hPa 0,0 l/m 7,2 km/h (2 Bft) SW 227 0 min 0,000 mm 0,0 UV-I 0 W/m 6,8 C 7,6 C 11,3 km/h (2 Bft) 95,74 %
24.10.2017 02:54 8,2 C 10,6 C 91 % 1023,0 hPa 0,0 l/m 8,3 km/h (2 Bft) W-NW 286 0 min 0,000 mm 0,0 UV-I 0 W/m 6,8 C 6,7 C 12,9 km/h (3 Bft) 95,74 %
24.10.2017 02:56 8,2 C 10,6 C 91 % 1023,0 hPa 0,0 l/m 8,4 km/h (2 Bft) W-SW 249 0 min 0,000 mm 0,0 UV-I 0 W/m 6,8 C 6,7 C 12,9 km/h (3 Bft) 98,11 %
24.10.2017 02:58 8,2 C 10,6 C 91 % 1023,0 hPa 0,0 l/m 10,0 km/h (2 Bft) W 269 0 min 0,000 mm 0,0 UV-I 0 W/m 6,8 C 5,6 C 17,7 km/h (3 Bft) 94,74 %
24.10.2017 03:00 8,2 C 10,6 C 91 % 1023,0 hPa 0,0 l/m 8,2 km/h (2 Bft) W-SW 257 0 min 0,000 mm 0,0 UV-I 0 W/m 6,8 C 6,8 C 14,5 km/h (3 Bft) 98,11 %
24.10.2017 03:02 8,2 C 10,6 C 91 % 1023,0 hPa 0,0 l/m 9,4 km/h (2 Bft) W-SW 254 0 min 0,000 mm 0,0 UV-I 0 W/m 6,8 C 6,0 C 17,7 km/h (3 Bft) 97,73 %
24.10.2017 03:04 8,2 C 10,6 C 91 % 1023,0 hPa 0,0 l/m 8,6 km/h (2 Bft) W-SW 252 0 min 0,000 mm 0,0 UV-I 0 W/m 6,8 C 6,5 C 16,1 km/h (3 Bft) 97,87 %
24.10.2017 03:06 8,2 C 10,6 C 91 % 1023,0 hPa 0,0 l/m 10,1 km/h (2 Bft) W 272 0 min 0,000 mm 0,0 UV-I 0 W/m 6,8 C 5,5 C 19,3 km/h (3 Bft) 97,87 %
24.10.2017 03:08 8,2 C 10,6 C 91 % 1023,0 hPa 0,0 l/m 11,6 km/h (2 Bft) W-SW 240 0 min 0,000 mm 0,0 UV-I 0 W/m 6,8 C 4,7 C 19,3 km/h (3 Bft) 97,87 %
24.10.2017 03:10 8,2 C 10,6 C 91 % 1023,0 hPa 0,0 l/m 11,3 km/h (2 Bft) W-NW 285 0 min 0,000 mm 0,0 UV-I 0 W/m 6,8 C 4,8 C 16,1 km/h (3 Bft) 100,00 %
24.10.2017 03:12 8,2 C 10,6 C 91 % 1023,0 hPa 0,0 l/m 9,5 km/h (2 Bft) SW 235 0 min 0,000 mm 0,0 UV-I 0 W/m 6,8 C 5,9 C 16,1 km/h (3 Bft) 100,00 %
24.10.2017 03:14 8,2 C 10,6 C 91 % 1023,0 hPa 0,0 l/m 13,6 km/h (3 Bft) W-SW 244 0 min 0,000 mm 0,0 UV-I 0 W/m 6,8 C 3,6 C 20,9 km/h (4 Bft) 97,73 %
24.10.2017 03:16 8,2 C 10,6 C 91 % 1023,0 hPa 0,0 l/m 6,7 km/h (2 Bft) NW 309 0 min 0,000 mm 0,0 UV-I 0 W/m 6,8 C 8,0 C 11,3 km/h (2 Bft) 100,00 %
24.10.2017 03:18 8,2 C 10,6 C 91 % 1022,9 hPa 0,0 l/m 10,1 km/h (2 Bft) W-NW 286 0 min 0,000 mm 0,0 UV-I 0 W/m 6,8 C 5,5 C 14,5 km/h (3 Bft) 98,11 %
24.10.2017 03:20 8,2 C 10,6 C 91 % 1023,0 hPa 0,0 l/m 11,6 km/h (2 Bft) W 265 0 min 0,000 mm 0,0 UV-I 0 W/m 6,8 C 4,7 C 16,1 km/h (3 Bft) 100,00 %
24.10.2017 03:22 8,2 C 10,6 C 91 % 1023,0 hPa 0,0 l/m 9,1 km/h (2 Bft) W-SW 253 0 min 0,000 mm 0,0 UV-I 0 W/m 6,8 C 6,2 C 12,9 km/h (3 Bft) 100,00 %
24.10.2017 03:24 8,2 C 10,6 C 91 % 1023,0 hPa 0,0 l/m 10,7 km/h (2 Bft) SW 219 0 min 0,000 mm 0,0 UV-I 0 W/m 6,8 C 5,2 C 16,1 km/h (3 Bft) 100,00 %
24.10.2017 03:26 8,2 C 10,6 C 91 % 1023,0 hPa 0,0 l/m 7,9 km/h (2 Bft) W-SW 253 0 min 0,000 mm 0,0 UV-I 0 W/m 6,8 C 7,0 C 14,5 km/h (3 Bft) 100,00 %
24.10.2017 03:28 8,3 C 10,6 C 91 % 1023,0 hPa 0,0 l/m 9,3 km/h (2 Bft) W-NW 285 0 min 0,000 mm 0,0 UV-I 0 W/m 6,9 C 6,2 C 16,1 km/h (3 Bft) 100,00 %
24.10.2017 03:30 8,3 C 10,6 C 91 % 1023,0 hPa 0,0 l/m 9,5 km/h (2 Bft) NW 313 0 min 0,000 mm 0,0 UV-I 0 W/m 6,9 C 6,0 C 16,1 km/h (3 Bft) 100,00 %
24.10.2017 03:32 8,3 C 10,6 C 91 % 1023,0 hPa 0,0 l/m 12,9 km/h (3 Bft) W-SW 244 0 min 0,000 mm 0,0 UV-I 0 W/m 6,9 C 4,1 C 16,1 km/h (3 Bft) 100,00 %
24.10.2017 03:34 8,3 C 10,6 C 91 % 1023,1 hPa 0,0 l/m 16,5 km/h (3 Bft) W 269 0 min 0,000 mm 0,0 UV-I 0 W/m 6,9 C 2,4 C 29,0 km/h (5 Bft) 100,00 %
24.10.2017 03:36 8,3 C 10,6 C 91 % 1023,1 hPa 0,2 l/m 11,5 km/h (2 Bft) W 279 0 min 0,000 mm 0,0 UV-I 0 W/m 6,9 C 4,8 C 20,9 km/h (4 Bft) 100,00 %
24.10.2017 03:38 8,3 C 10,6 C 91 % 1023,1 hPa 0,0 l/m 12,7 km/h (3 Bft) W-NW 288 0 min 0,000 mm 0,0 UV-I 0 W/m 6,9 C 4,2 C 19,3 km/h (3 Bft) 96,00 %
24.10.2017 03:40 8,3 C 10,6 C 91 % 1023,1 hPa 0,0 l/m 11,8 km/h (2 Bft) W 277 0 min 0,000 mm 0,0 UV-I 0 W/m 6,9 C 4,7 C 17,7 km/h (3 Bft) 100,00 %
24.10.2017 03:42 8,3 C 10,6 C 90 % 1023,1 hPa 0,0 l/m 12,1 km/h (2 Bft) W 265 0 min 0,000 mm 0,0 UV-I 0 W/m 6,8 C 4,5 C 20,9 km/h (4 Bft) 100,00 %
24.10.2017 03:44 8,3 C 10,6 C 90 % 1023,1 hPa 0,0 l/m 12,4 km/h (3 Bft) W 259 0 min 0,000 mm 0,0 UV-I 0 W/m 6,8 C 4,3 C 20,9 km/h (4 Bft) 100,00 %
24.10.2017 03:46 8,3 C 10,6 C 90 % 1023,1 hPa 0,0 l/m 12,4 km/h (3 Bft) W 281 0 min 0,000 mm 0,0 UV-I 0 W/m 6,8 C 4,3 C 20,9 km/h (4 Bft) 97,44 %
24.10.2017 03:48 8,4 C 10,6 C 90 % 1023,1 hPa 0,0 l/m 12,2 km/h (2 Bft) W-SW 241 0 min 0,000 mm 0,0 UV-I 0 W/m 6,9 C 4,6 C 16,1 km/h (3 Bft) 100,00 %
24.10.2017 03:50 8,3 C 10,6 C 90 % 1023,1 hPa 0,0 l/m 12,3 km/h (3 Bft) W-SW 237 0 min 0,000 mm 0,0 UV-I 0 W/m 6,8 C 4,4 C 17,7 km/h (3 Bft) 100,00 %
24.10.2017 03:52 8,4 C 10,6 C 90 % 1023,1 hPa 0,0 l/m 12,1 km/h (2 Bft) W 278 0 min 0,000 mm 0,0 UV-I 0 W/m 6,9 C 4,6 C 19,3 km/h (3 Bft) 100,00 %
24.10.2017 03:54 8,4 C 10,6 C 90 % 1023,1 hPa 0,0 l/m 11,6 km/h (2 Bft) W 265 0 min 0,000 mm 0,0 UV-I 0 W/m 6,9 C 4,9 C 24,1 km/h (4 Bft) 100,00 %
24.10.2017 03:56 8,4 C 10,6 C 90 % 1023,1 hPa 0,0 l/m 14,0 km/h (3 Bft) W-SW 243 0 min 0,000 mm 0,0 UV-I 0 W/m 6,9 C 3,7 C 20,9 km/h (4 Bft) 100,00 %
24.10.2017 03:58 8,4 C 10,6 C 90 % 1023,2 hPa 0,0 l/m 12,1 km/h (2 Bft) W 264 0 min 0,000 mm 0,0 UV-I 0 W/m 6,9 C 4,6 C 19,3 km/h (3 Bft) 97,56 %
24.10.2017 04:00 8,4 C 10,6 C 90 % 1023,1 hPa 0,0 l/m 10,3 km/h (2 Bft) W 279 0 min 0,025 mm 0,0 UV-I 0 W/m 6,9 C 5,6 C 16,1 km/h (3 Bft) 100,00 %
24.10.2017 04:02 8,4 C 10,6 C 90 % 1023,1 hPa 0,0 l/m 7,4 km/h (2 Bft) SW 236 0 min 0,000 mm 0,0 UV-I 0 W/m 6,9 C 7,6 C 16,1 km/h (3 Bft) 100,00 %
24.10.2017 04:04 8,4 C 10,6 C 90 % 1023,2 hPa 0,0 l/m 10,2 km/h (2 Bft) W 278 0 min 0,000 mm 0,0 UV-I 0 W/m 6,9 C 5,7 C 12,9 km/h (3 Bft) 100,00 %
24.10.2017 04:06 8,4 C 10,6 C 90 % 1023,2 hPa 0,0 l/m 9,2 km/h (2 Bft) SW 227 0 min 0,000 mm 0,0 UV-I 0 W/m 6,9 C 6,3 C 14,5 km/h (3 Bft) 100,00 %
24.10.2017 04:08 8,4 C 10,6 C 90 % 1023,2 hPa 0,0 l/m 12,0 km/h (2 Bft) W-SW 251 0 min 0,000 mm 0,0 UV-I 0 W/m 6,9 C 4,7 C 16,1 km/h (3 Bft) 100,00 %
24.10.2017 04:10 8,5 C 10,6 C 90 % 1023,2 hPa 0,0 l/m 12,7 km/h (3 Bft) W-SW 252 0 min 0,000 mm 0,0 UV-I 0 W/m 7,0 C 4,4 C 24,1 km/h (4 Bft) 100,00 %
24.10.2017 04:12 8,5 C 10,6 C 90 % 1023,2 hPa 0,0 l/m 12,7 km/h (3 Bft) W-SW 253 0 min 0,000 mm 0,0 UV-I 0 W/m 7,0 C 4,4 C 17,7 km/h (3 Bft) 100,00 %
24.10.2017 04:14 8,5 C 10,6 C 90 % 1023,2 hPa 0,0 l/m 9,3 km/h (2 Bft) W-SW 243 0 min 0,000 mm 0,0 UV-I 0 W/m 7,0 C 6,4 C 14,5 km/h (3 Bft) 100,00 %
24.10.2017 04:16 8,5 C 10,6 C 90 % 1023,2 hPa 0,0 l/m 9,2 km/h (2 Bft) W 261 0 min 0,000 mm 0,0 UV-I 0 W/m 7,0 C 6,4 C 16,1 km/h (3 Bft) 100,00 %
24.10.2017 04:18 8,5 C 10,6 C 90 % 1023,3 hPa 0,0 l/m 12,1 km/h (2 Bft) W 273 0 min 0,000 mm 0,0 UV-I 0 W/m 7,0 C 4,7 C 20,9 km/h (4 Bft) 100,00 %
24.10.2017 04:20 8,5 C 10,6 C 90 % 1023,3 hPa 0,0 l/m 14,8 km/h (3 Bft) W-NW 298 0 min 0,000 mm 0,0 UV-I 0 W/m 7,0 C 3,4 C 20,9 km/h (4 Bft) 95,74 %
24.10.2017 04:22 8,5 C 10,6 C 89 % 1023,3 hPa 0,0 l/m 10,1 km/h (2 Bft) W-SW 248 0 min 0,000 mm 0,0 UV-I 0 W/m 6,8 C 5,9 C 16,1 km/h (3 Bft) 100,00 %
24.10.2017 04:24 8,5 C 10,6 C 89 % 1023,3 hPa 0,0 l/m 15,2 km/h (3 Bft) W 279 0 min 0,000 mm 0,0 UV-I 0 W/m 6,8 C 3,2 C 25,7 km/h (4 Bft) 97,73 %
24.10.2017 04:26 8,5 C 10,6 C 89 % 1023,3 hPa 0,0 l/m 12,0 km/h (2 Bft) W 275 0 min 0,000 mm 0,0 UV-I 0 W/m 6,8 C 4,8 C 17,7 km/h (3 Bft) 100,00 %
24.10.2017 04:28 8,5 C 10,6 C 89 % 1023,3 hPa 0,0 l/m 9,2 km/h (2 Bft) W 259 0 min 0,000 mm 0,0 UV-I 0 W/m 6,8 C 6,4 C 14,5 km/h (3 Bft) 100,00 %
24.10.2017 04:30 8,6 C 10,6 C 89 % 1023,4 hPa 0,0 l/m 10,3 km/h (2 Bft) W-SW 255 0 min 0,000 mm 0,0 UV-I 0 W/m 6,9 C 5,9 C 19,3 km/h (3 Bft) 97,37 %
24.10.2017 04:32 8,5 C 10,6 C 89 % 1023,3 hPa 0,0 l/m 13,3 km/h (3 Bft) W-SW 249 0 min 0,000 mm 0,0 UV-I 0 W/m 6,8 C 4,1 C 19,3 km/h (3 Bft) 100,00 %
24.10.2017 04:34 8,5 C 10,6 C 90 % 1023,3 hPa 0,0 l/m 12,2 km/h (2 Bft) W-NW 293 0 min 0,000 mm 0,0 UV-I 0 W/m 7,0 C 4,7 C 17,7 km/h (3 Bft) 100,00 %
24.10.2017 04:36 8,6 C 10,6 C 90 % 1023,3 hPa 0,0 l/m 12,5 km/h (3 Bft) W-SW 248 0 min 0,000 mm 0,0 UV-I 0 W/m 7,1 C 4,6 C 22,5 km/h (4 Bft) 95,74 %
24.10.2017 04:38 8,6 C 10,6 C 90 % 1023,4 hPa 0,0 l/m 14,4 km/h (3 Bft) W-SW 252 0 min 0,000 mm 0,0 UV-I 0 W/m 7,1 C 3,7 C 25,7 km/h (4 Bft) 98,00 %
24.10.2017 04:40 8,6 C 10,6 C 90 % 1023,4 hPa 0,0 l/m 11,2 km/h (2 Bft) W 275 0 min 0,000 mm 0,0 UV-I 0 W/m 7,1 C 5,3 C 20,9 km/h (4 Bft) 97,56 %
24.10.2017 04:42 8,6 C 10,6 C 90 % 1023,4 hPa 0,0 l/m 11,4 km/h (2 Bft) SW 232 0 min 0,000 mm 0,0 UV-I 0 W/m 7,1 C 5,2 C 17,7 km/h (3 Bft) 98,00 %
24.10.2017 04:44 8,6 C 10,6 C 90 % 1023,4 hPa 0,0 l/m 10,5 km/h (2 Bft) W 261 0 min 0,000 mm 0,0 UV-I 0 W/m 7,1 C 5,7 C 17,7 km/h (3 Bft) 98,00 %
24.10.2017 04:46 8,6 C 10,6 C 90 % 1023,4 hPa 0,0 l/m 12,7 km/h (3 Bft) W 261 0 min 0,000 mm 0,0 UV-I 0 W/m 7,1 C 4,5 C 19,3 km/h (3 Bft) 95,45 %
24.10.2017 04:48 8,6 C 10,6 C 90 % 1023,4 hPa 0,0 l/m 12,8 km/h (3 Bft) W-SW 249 0 min 0,000 mm 0,0 UV-I 0 W/m 7,1 C 4,5 C 17,7 km/h (3 Bft) 95,74 %
24.10.2017 04:50 8,5 C 10,6 C 90 % 1023,4 hPa 0,0 l/m 13,2 km/h (3 Bft) W 261 0 min 0,000 mm 0,0 UV-I 0 W/m 7,0 C 4,2 C 16,1 km/h (3 Bft) 97,37 %
24.10.2017 04:52 8,5 C 10,6 C 90 % 1023,4 hPa 0,0 l/m 12,9 km/h (3 Bft) W 261 0 min 0,000 mm 0,0 UV-I 0 W/m 7,0 C 4,3 C 19,3 km/h (3 Bft) 97,87 %
24.10.2017 04:54 8,5 C 10,6 C 90 % 1023,4 hPa 0,0 l/m 18,6 km/h (3 Bft) W 275 0 min 0,000 mm 0,0 UV-I 0 W/m 7,0 C 1,9 C 24,1 km/h (4 Bft) 98,21 %
24.10.2017 04:56 8,5 C 10,6 C 90 % 1023,4 hPa 0,0 l/m 11,5 km/h (2 Bft) W 264 0 min 0,000 mm 0,0 UV-I 0 W/m 7,0 C 5,1 C 17,7 km/h (3 Bft) 97,37 %
24.10.2017 04:58 8,5 C 10,6 C 90 % 1023,4 hPa 0,0 l/m 16,0 km/h (3 Bft) W 278 0 min 0,000 mm 0,0 UV-I 0 W/m 7,0 C 2,9 C 27,4 km/h (4 Bft) 96,43 %
24.10.2017 05:00 8,5 C 10,6 C 90 % 1023,5 hPa 0,0 l/m 11,8 km/h (2 Bft) W 259 0 min 0,026 mm 0,0 UV-I 0 W/m 7,0 C 4,9 C 20,9 km/h (4 Bft) 98,00 %
24.10.2017 05:02 8,5 C 10,6 C 90 % 1023,5 hPa 0,0 l/m 11,2 km/h (2 Bft) SW 232 0 min 0,000 mm 0,0 UV-I 0 W/m 7,0 C 5,2 C 16,1 km/h (3 Bft) 97,87 %
24.10.2017 05:04 8,4 C 10,6 C 90 % 1023,5 hPa 0,0 l/m 13,3 km/h (3 Bft) W 267 0 min 0,000 mm 0,0 UV-I 0 W/m 6,9 C 4,0 C 19,3 km/h (3 Bft) 97,73 %
24.10.2017 05:06 8,4 C 10,6 C 90 % 1023,5 hPa 0,0 l/m 12,4 km/h (3 Bft) W 280 0 min 0,000 mm 0,0 UV-I 0 W/m 6,9 C 4,5 C 20,9 km/h (4 Bft) 95,24 %
24.10.2017 05:08 8,4 C 10,6 C 90 % 1023,5 hPa 0,0 l/m 12,8 km/h (3 Bft) W-SW 254 0 min 0,000 mm 0,0 UV-I 0 W/m 6,9 C 4,3 C 17,7 km/h (3 Bft) 98,11 %
24.10.2017 05:10 8,4 C 10,6 C 90 % 1023,5 hPa 0,0 l/m 15,3 km/h (3 Bft) W 266 0 min 0,000 mm 0,0 UV-I 0 W/m 6,9 C 3,1 C 20,9 km/h (4 Bft) 97,37 %
24.10.2017 05:12 8,4 C 10,6 C 91 % 1023,5 hPa 0,0 l/m 15,0 km/h (3 Bft) W-SW 246 0 min 0,000 mm 0,0 UV-I 0 W/m 7,0 C 3,2 C 22,5 km/h (4 Bft) 96,23 %
24.10.2017 05:14 8,4 C 10,6 C 91 % 1023,6 hPa 0,0 l/m 10,5 km/h (2 Bft) W 264 0 min 0,000 mm 0,0 UV-I 0 W/m 7,0 C 5,5 C 14,5 km/h (3 Bft) 97,37 %
24.10.2017 05:16 8,4 C 10,6 C 91 % 1023,6 hPa 0,0 l/m 12,8 km/h (3 Bft) W-SW 257 0 min 0,000 mm 0,0 UV-I 0 W/m 7,0 C 4,3 C 16,1 km/h (3 Bft) 100,00 %
24.10.2017 05:18 8,4 C 10,6 C 91 % 1023,6 hPa 0,0 l/m 12,4 km/h (3 Bft) W 259 0 min 0,000 mm 0,0 UV-I 0 W/m 7,0 C 4,5 C 17,7 km/h (3 Bft) 100,00 %
24.10.2017 05:20 8,4 C 10,6 C 91 % 1023,7 hPa 0,0 l/m 9,4 km/h (2 Bft) W-SW 252 0 min 0,000 mm 0,0 UV-I 0 W/m 7,0 C 6,2 C 12,9 km/h (3 Bft) 98,11 %
24.10.2017 05:22 8,4 C 10,6 C 91 % 1023,7 hPa 0,0 l/m 9,1 km/h (2 Bft) W 269 0 min 0,000 mm 0,0 UV-I 0 W/m 7,0 C 6,4 C 17,7 km/h (3 Bft) 100,00 %
24.10.2017 05:24 8,4 C 10,6 C 91 % 1023,8 hPa 0,0 l/m 9,4 km/h (2 Bft) W-SW 253 0 min 0,000 mm 0,0 UV-I 0 W/m 7,0 C 6,2 C 17,7 km/h (3 Bft) 100,00 %
24.10.2017 05:26 8,4 C 10,6 C 91 % 1023,7 hPa 0,0 l/m 12,0 km/h (2 Bft) SW 234 0 min 0,000 mm 0,0 UV-I 0 W/m 7,0 C 4,7 C 17,7 km/h (3 Bft) 100,00 %
24.10.2017 05:28 8,4 C 10,6 C 91 % 1023,7 hPa 0,0 l/m 10,0 km/h (2 Bft) W-SW 248 0 min 0,000 mm 0,0 UV-I 0 W/m 7,0 C 5,8 C 14,5 km/h (3 Bft) 100,00 %
24.10.2017 05:30 8,4 C 10,6 C 91 % 1023,8 hPa 0,0 l/m 10,4 km/h (2 Bft) W-SW 257 0 min 0,000 mm 0,0 UV-I 0 W/m 7,0 C 5,6 C 17,7 km/h (3 Bft) 100,00 %
24.10.2017 05:32 8,4 C 10,6 C 91 % 1023,8 hPa 0,0 l/m 10,3 km/h (2 Bft) SW 234 0 min 0,000 mm 0,0 UV-I 0 W/m 7,0 C 5,6 C 24,1 km/h (4 Bft) 100,00 %
24.10.2017 05:34 8,4 C 10,6 C 91 % 1023,8 hPa 0,0 l/m 11,0 km/h (2 Bft) W-SW 246 0 min 0,000 mm 0,0 UV-I 0 W/m 7,0 C 5,2 C 16,1 km/h (3 Bft) 97,37 %
24.10.2017 05:36 8,4 C 10,6 C 91 % 1023,8 hPa 0,0 l/m 11,2 km/h (2 Bft) W 269 0 min 0,000 mm 0,0 UV-I 0 W/m 7,0 C 5,1 C 14,5 km/h (3 Bft) 96,23 %
24.10.2017 05:38 8,4 C 10,6 C 91 % 1023,8 hPa 0,0 l/m 10,9 km/h (2 Bft) W-SW 242 0 min 0,000 mm 0,0 UV-I 0 W/m 7,0 C 5,3 C 17,7 km/h (3 Bft) 97,73 %
24.10.2017 05:40 8,4 C 10,6 C 91 % 1023,8 hPa 0,0 l/m 7,1 km/h (2 Bft) W-SW 244 0 min 0,000 mm 0,0 UV-I 0 W/m 7,0 C 7,9 C 12,9 km/h (3 Bft) 96,23 %
24.10.2017 05:42 8,4 C 10,6 C 91 % 1023,8 hPa 0,0 l/m 9,6 km/h (2 Bft) W 267 0 min 0,000 mm 0,0 UV-I 0 W/m 7,0 C 6,1 C 12,9 km/h (3 Bft) 97,62 %
24.10.2017 05:44 8,4 C 10,6 C 91 % 1023,8 hPa 0,0 l/m 9,4 km/h (2 Bft) W 259 0 min 0,000 mm 0,0 UV-I 0 W/m 7,0 C 6,2 C 14,5 km/h (3 Bft) 96,15 %
24.10.2017 05:46 8,4 C 10,6 C 91 % 1023,8 hPa 0,0 l/m 6,5 km/h (2 Bft) W-SW 242 0 min 0,000 mm 0,0 UV-I 0 W/m 7,0 C 8,3 C 12,9 km/h (3 Bft) 97,92 %
24.10.2017 05:48 8,4 C 10,6 C 91 % 1023,8 hPa 0,0 l/m 9,9 km/h (2 Bft) N-NW 329 0 min 0,000 mm 0,0 UV-I 0 W/m 7,0 C 5,9 C 16,1 km/h (3 Bft) 97,96 %
24.10.2017 05:50 8,4 C 10,6 C 91 % 1023,8 hPa 0,0 l/m 9,9 km/h (2 Bft) W-SW 248 0 min 0,000 mm 0,0 UV-I 0 W/m 7,0 C 5,9 C 16,1 km/h (3 Bft) 97,62 %
24.10.2017 05:53 8,4 C 10,6 C 91 % 1023,8 hPa 0,0 l/m 11,7 km/h (2 Bft) W 267 0 min 0,000 mm 0,0 UV-I 0 W/m 7,0 C 4,8 C 17,7 km/h (3 Bft) 98,44 %
24.10.2017 05:54 8,4 C 10,6 C 91 % 1023,9 hPa 0,0 l/m 13,9 km/h (3 Bft) W 262 0 min 0,000 mm 0,0 UV-I 0 W/m 7,0 C 3,7 C 17,7 km/h (3 Bft) 93,33 %
24.10.2017 05:56 8,4 C 10,6 C 91 % 1023,8 hPa 0,0 l/m 12,4 km/h (3 Bft) W 273 0 min 0,000 mm 0,0 UV-I 0 W/m 7,0 C 4,5 C 16,1 km/h (3 Bft) 98,53 %
24.10.2017 05:58 8,4 C 10,6 C 91 % 1023,9 hPa 0,0 l/m 9,0 km/h (2 Bft) W 259 0 min 0,000 mm 0,0 UV-I 0 W/m 7,0 C 6,5 C 16,1 km/h (3 Bft) 97,73 %
24.10.2017 06:00 8,3 C 10,6 C 91 % 1023,9 hPa 0,0 l/m 10,1 km/h (2 Bft) W-SW 253 0 min 0,000 mm 0,0 UV-I 0 W/m 6,9 C 5,7 C 16,1 km/h (3 Bft) 97,37 %
24.10.2017 06:02 8,4 C 10,6 C 91 % 1023,9 hPa 0,0 l/m 10,7 km/h (2 Bft) SW 226 0 min 0,000 mm 0,0 UV-I 0 W/m 7,0 C 5,4 C 16,1 km/h (3 Bft) 97,87 %
24.10.2017 06:04 8,3 C 10,6 C 91 % 1023,9 hPa 0,0 l/m 9,9 km/h (2 Bft) W-SW 254 0 min 0,000 mm 0,0 UV-I 0 W/m 6,9 C 5,8 C 16,1 km/h (3 Bft) 96,43 %
24.10.2017 06:06 8,3 C 10,6 C 92 % 1023,9 hPa 0,0 l/m 11,4 km/h (2 Bft) W-SW 252 0 min 0,000 mm 0,0 UV-I 0 W/m 7,1 C 4,9 C 16,1 km/h (3 Bft) 97,56 %
24.10.2017 06:08 8,4 C 10,6 C 92 % 1023,9 hPa 0,0 l/m 10,0 km/h (2 Bft) W 267 0 min 0,000 mm 0,0 UV-I 0 W/m 7,2 C 5,8 C 12,9 km/h (3 Bft) 96,00 %
24.10.2017 06:10 8,3 C 10,6 C 92 % 1023,9 hPa 0,0 l/m 8,9 km/h (2 Bft) W 261 0 min 0,000 mm 0,0 UV-I 0 W/m 7,1 C 6,4 C 12,9 km/h (3 Bft) 95,12 %
24.10.2017 06:12 8,3 C 10,6 C 92 % 1024,0 hPa 0,0 l/m 11,9 km/h (2 Bft) W 275 0 min 0,000 mm 0,0 UV-I 0 W/m 7,1 C 4,6 C 17,7 km/h (3 Bft) 98,00 %
24.10.2017 06:14 8,3 C 10,6 C 92 % 1024,0 hPa 0,0 l/m 10,1 km/h (2 Bft) W-SW 239 0 min 0,000 mm 0,0 UV-I 0 W/m 7,1 C 5,7 C 16,1 km/h (3 Bft) 98,11 %
24.10.2017 06:16 8,3 C 10,6 C 92 % 1024,0 hPa 0,0 l/m 12,0 km/h (2 Bft) W 261 0 min 0,000 mm 0,0 UV-I 0 W/m 7,1 C 4,6 C 19,3 km/h (3 Bft) 97,37 %
24.10.2017 06:19 8,3 C 10,6 C 92 % 1024,0 hPa 0,0 l/m 9,7 km/h (2 Bft) W-SW 243 0 min 0,000 mm 0,0 UV-I 0 W/m 7,1 C 5,9 C 14,5 km/h (3 Bft) 96,25 %
24.10.2017 06:20 8,3 C 10,6 C 92 % 1024,0 hPa 0,0 l/m 12,2 km/h (2 Bft) W 261 0 min 0,000 mm 0,0 UV-I 0 W/m 7,1 C 4,4 C 20,9 km/h (4 Bft) 100,00 %
24.10.2017 06:22 8,3 C 10,6 C 92 % 1024,0 hPa 0,0 l/m 12,1 km/h (2 Bft) W-SW 240 0 min 0,000 mm 0,0 UV-I 0 W/m 7,1 C 4,5 C 16,1 km/h (3 Bft) 98,18 %
24.10.2017 06:24 8,3 C 10,6 C 92 % 1024,0 hPa 0,0 l/m 9,1 km/h (2 Bft) W 259 0 min 0,000 mm 0,0 UV-I 0 W/m 7,1 C 6,3 C 16,1 km/h (3 Bft) 97,22 %
24.10.2017 06:26 8,3 C 10,6 C 92 % 1024,0 hPa 0,0 l/m 9,4 km/h (2 Bft) W-SW 239 0 min 0,000 mm 0,0 UV-I 0 W/m 7,1 C 6,1 C 16,1 km/h (3 Bft) 98,21 %
24.10.2017 06:28 8,3 C 10,6 C 92 % 1024,1 hPa 0,0 l/m 11,4 km/h (2 Bft) W 271 0 min 0,000 mm 0,0 UV-I 0 W/m 7,1 C 4,9 C 17,7 km/h (3 Bft) 96,00 %
24.10.2017 06:30 8,3 C 10,6 C 92 % 1024,0 hPa 0,0 l/m 10,1 km/h (2 Bft) W-NW 287 0 min 0,000 mm 0,0 UV-I 0 W/m 7,1 C 5,7 C 16,1 km/h (3 Bft) 97,56 %
24.10.2017 06:32 8,3 C 10,6 C 92 % 1024,1 hPa 0,0 l/m 15,0 km/h (3 Bft) W-SW 248 0 min 0,000 mm 0,0 UV-I 0 W/m 7,1 C 3,1 C 25,7 km/h (4 Bft) 95,74 %
24.10.2017 06:34 8,3 C 10,6 C 92 % 1024,1 hPa 0,0 l/m 10,3 km/h (2 Bft) W-SW 250 0 min 0,000 mm 0,0 UV-I 0 W/m 7,1 C 5,5 C 16,1 km/h (3 Bft) 96,00 %
24.10.2017 06:36 8,3 C 10,6 C 92 % 1024,1 hPa 0,0 l/m 10,1 km/h (2 Bft) W 261 0 min 0,000 mm 0,0 UV-I 0 W/m 7,1 C 5,7 C 16,1 km/h (3 Bft) 96,00 %
24.10.2017 06:38 8,3 C 10,6 C 92 % 1024,1 hPa 0,0 l/m 11,3 km/h (2 Bft) W 261 0 min 0,000 mm 0,0 UV-I 0 W/m 7,1 C 4,9 C 16,1 km/h (3 Bft) 97,56 %
24.10.2017 06:40 8,3 C 10,6 C 92 % 1024,2 hPa 0,0 l/m 10,9 km/h (2 Bft) W 259 0 min 0,000 mm 0,0 UV-I 0 W/m 7,1 C 5,2 C 16,1 km/h (3 Bft) 96,23 %
24.10.2017 06:42 8,3 C 10,6 C 92 % 1024,2 hPa 0,0 l/m 13,5 km/h (3 Bft) W-SW 243 0 min 0,000 mm 0,0 UV-I 0 W/m 7,1 C 3,8 C 20,9 km/h (4 Bft) 97,37 %
24.10.2017 06:44 8,3 C 10,6 C 92 % 1024,1 hPa 0,0 l/m 12,5 km/h (3 Bft) W 275 0 min 0,000 mm 0,0 UV-I 0 W/m 7,1 C 4,3 C 20,9 km/h (4 Bft) 98,00 %
24.10.2017 06:46 8,3 C 10,6 C 92 % 1024,1 hPa 0,0 l/m 13,7 km/h (3 Bft) W-SW 257 0 min 0,000 mm 0,0 UV-I 0 W/m 7,1 C 3,7 C 17,7 km/h (3 Bft) 96,08 %
24.10.2017 06:48 8,3 C 10,6 C 92 % 1024,1 hPa 0,0 l/m 12,9 km/h (3 Bft) W-SW 248 0 min 0,000 mm 0,0 UV-I 0 W/m 7,1 C 4,1 C 19,3 km/h (3 Bft) 97,37 %
24.10.2017 06:50 8,3 C 10,6 C 92 % 1024,2 hPa 0,0 l/m 13,7 km/h (3 Bft) W-SW 243 0 min 0,000 mm 0,0 UV-I 0 W/m 7,1 C 3,7 C 20,9 km/h (4 Bft) 97,73 %
24.10.2017 06:52 8,3 C 10,6 C 92 % 1024,2 hPa 0,0 l/m 12,3 km/h (3 Bft) W-SW 256 0 min 0,000 mm 0,0 UV-I 0 W/m 7,1 C 4,4 C 19,3 km/h (3 Bft) 98,11 %
24.10.2017 06:54 8,3 C 10,6 C 92 % 1024,1 hPa 0,0 l/m 14,5 km/h (3 Bft) W 267 0 min 0,000 mm 0,0 UV-I 0 W/m 7,1 C 3,3 C 19,3 km/h (3 Bft) 97,56 %
24.10.2017 06:56 8,3 C 10,6 C 92 % 1024,1 hPa 0,0 l/m 13,2 km/h (3 Bft) W 274 0 min 0,000 mm 0,0 UV-I 0 W/m 7,1 C 3,9 C 20,9 km/h (4 Bft) 98,11 %
24.10.2017 06:58 8,3 C 10,6 C 92 % 1024,2 hPa 0,0 l/m 12,5 km/h (3 Bft) SW 235 0 min 0,000 mm 0,0 UV-I 0 W/m 7,1 C 4,3 C 19,3 km/h (3 Bft) 94,00 %
24.10.2017 07:00 8,3 C 10,6 C 92 % 1024,2 hPa 0,0 l/m 10,1 km/h (2 Bft) W-SW 246 0 min 0,000 mm 0,0 UV-I 0 W/m 7,1 C 5,7 C 19,3 km/h (3 Bft) 98,04 %
24.10.2017 07:02 8,3 C 10,6 C 92 % 1024,2 hPa 0,0 l/m 15,1 km/h (3 Bft) W 265 0 min 0,000 mm 0,0 UV-I 0 W/m 7,1 C 3,0 C 20,9 km/h (4 Bft) 97,67 %
24.10.2017 07:04 8,3 C 10,6 C 92 % 1024,2 hPa 0,0 l/m 13,4 km/h (3 Bft) W-SW 246 0 min 0,000 mm 0,0 UV-I 0 W/m 7,1 C 3,8 C 16,1 km/h (3 Bft) 97,78 %
24.10.2017 07:06 8,3 C 10,6 C 92 % 1024,2 hPa 0,0 l/m 10,9 km/h (2 Bft) W-SW 258 0 min 0,000 mm 0,0 UV-I 0 W/m 7,1 C 5,2 C 17,7 km/h (3 Bft) 98,08 %
24.10.2017 07:08 8,3 C 10,6 C 92 % 1024,2 hPa 0,0 l/m 9,8 km/h (2 Bft) W 262 0 min 0,000 mm 0,0 UV-I 0 W/m 7,1 C 5,8 C 17,7 km/h (3 Bft) 97,62 %
24.10.2017 07:10 8,3 C 10,6 C 92 % 1024,3 hPa 0,0 l/m 9,2 km/h (2 Bft) SW 223 0 min 0,000 mm 0,0 UV-I 0 W/m 7,1 C 6,2 C 14,5 km/h (3 Bft) 97,56 %
24.10.2017 07:12 8,3 C 10,6 C 92 % 1024,3 hPa 0,0 l/m 11,3 km/h (2 Bft) W-SW 249 0 min 0,000 mm 0,0 UV-I 0 W/m 7,1 C 4,9 C 19,3 km/h (3 Bft) 98,11 %
24.10.2017 07:14 8,3 C 10,6 C 92 % 1024,3 hPa 0,0 l/m 13,2 km/h (3 Bft) W-SW 247 0 min 0,000 mm 0,0 UV-I 0 W/m 7,1 C 3,9 C 19,3 km/h (3 Bft) 98,00 %
24.10.2017 07:16 8,3 C 10,6 C 92 % 1024,4 hPa 0,0 l/m 7,2 km/h (2 Bft) W-SW 256 0 min 0,000 mm 0,0 UV-I 0 W/m 7,1 C 7,7 C 12,9 km/h (3 Bft) 100,00 %
24.10.2017 07:18 8,3 C 10,6 C 92 % 1024,3 hPa 0,0 l/m 9,3 km/h (2 Bft) W-SW 257 0 min 0,000 mm 0,0 UV-I 0 W/m 7,1 C 6,2 C 14,5 km/h (3 Bft) 100,00 %
24.10.2017 07:20 8,3 C 10,6 C 92 % 1024,3 hPa 0,0 l/m 5,8 km/h (2 Bft) W-SW 241 0 min 0,000 mm 0,0 UV-I 0 W/m 7,1 C 8,3 C 8,0 km/h (2 Bft) 100,00 %
24.10.2017 07:22 8,3 C 10,6 C 92 % 1024,4 hPa 0,0 l/m 8,3 km/h (2 Bft) W 266 0 min 0,000 mm 0,0 UV-I 0 W/m 7,1 C 6,9 C 12,9 km/h (3 Bft) 100,00 %
24.10.2017 07:24 8,3 C 10,6 C 92 % 1024,4 hPa 0,0 l/m 9,1 km/h (2 Bft) W 265 0 min 0,000 mm 0,0 UV-I 0 W/m 7,1 C 6,3 C 14,5 km/h (3 Bft) 100,00 %
24.10.2017 07:26 8,3 C 10,6 C 92 % 1024,4 hPa 0,0 l/m 11,6 km/h (2 Bft) W-SW 257 0 min 0,000 mm 0,0 UV-I 0 W/m 7,1 C 4,8 C 17,7 km/h (3 Bft) 100,00 %
24.10.2017 07:28 8,3 C 10,6 C 92 % 1024,5 hPa 0,0 l/m 15,0 km/h (3 Bft) SW 226 0 min 0,000 mm 0,0 UV-I 0 W/m 7,1 C 3,1 C 19,3 km/h (3 Bft) 100,00 %
24.10.2017 07:30 8,3 C 10,6 C 92 % 1024,5 hPa 0,0 l/m 10,3 km/h (2 Bft) W-SW 250 0 min 0,000 mm 0,0 UV-I 0 W/m 7,1 C 5,5 C 17,7 km/h (3 Bft) 100,00 %
24.10.2017 07:32 8,3 C 10,6 C 92 % 1024,4 hPa 0,0 l/m 9,3 km/h (2 Bft) W-SW 255 0 min 0,000 mm 0,0 UV-I 0 W/m 7,1 C 6,2 C 14,5 km/h (3 Bft) 100,00 %
24.10.2017 07:34 8,3 C 10,6 C 93 % 1024,6 hPa 0,0 l/m 10,4 km/h (2 Bft) W-SW 258 0 min 0,000 mm 0,0 UV-I 0 W/m 7,2 C 5,5 C 17,7 km/h (3 Bft) 100,00 %
24.10.2017 07:36 8,3 C 10,6 C 93 % 1024,6 hPa 0,0 l/m 12,1 km/h (2 Bft) W 281 0 min 0,000 mm 0,0 UV-I 0 W/m 7,2 C 4,5 C 22,5 km/h (4 Bft) 100,00 %
24.10.2017 07:38 8,3 C 10,6 C 93 % 1024,6 hPa 0,0 l/m 11,6 km/h (2 Bft) W-SW 246 0 min 0,000 mm 0,0 UV-I 1 W/m 7,2 C 4,8 C 19,3 km/h (3 Bft) 100,00 %
24.10.2017 07:40 8,3 C 10,6 C 93 % 1024,6 hPa 0,0 l/m 10,4 km/h (2 Bft) W-SW 257 0 min 0,000 mm 0,0 UV-I 5 W/m 7,2 C 5,5 C 16,1 km/h (3 Bft) 100,00 %
24.10.2017 07:42 8,3 C 10,6 C 93 % 1024,7 hPa 0,0 l/m 13,0 km/h (3 Bft) W-SW 237 0 min 0,000 mm 0,0 UV-I 5 W/m 7,2 C 4,0 C 20,9 km/h (4 Bft) 100,00 %
24.10.2017 07:44 8,3 C 10,6 C 93 % 1024,6 hPa 0,0 l/m 11,5 km/h (2 Bft) SW 225 0 min 0,000 mm 0,0 UV-I 5 W/m 7,2 C 4,8 C 17,7 km/h (3 Bft) 100,00 %
24.10.2017 07:46 8,3 C 10,6 C 93 % 1024,6 hPa 0,0 l/m 9,9 km/h (2 Bft) W-SW 240 0 min 0,000 mm 0,0 UV-I 5 W/m 7,2 C 5,8 C 14,5 km/h (3 Bft) 100,00 %
24.10.2017 07:48 8,2 C 10,6 C 93 % 1024,7 hPa 0,0 l/m 11,3 km/h (2 Bft) W 277 0 min 0,000 mm 0,0 UV-I 5 W/m 7,1 C 4,8 C 16,1 km/h (3 Bft) 100,00 %
24.10.2017 07:50 8,2 C 10,6 C 93 % 1024,7 hPa 0,0 l/m 14,4 km/h (3 Bft) W-SW 248 0 min 0,000 mm 0,0 UV-I 5 W/m 7,1 C 3,2 C 19,3 km/h (3 Bft) 100,00 %
24.10.2017 07:52 8,2 C 10,6 C 93 % 1024,7 hPa 0,0 l/m 8,2 km/h (2 Bft) W-SW 254 0 min 0,000 mm 0,0 UV-I 7 W/m 7,1 C 6,8 C 12,9 km/h (3 Bft) 98,11 %
24.10.2017 07:54 8,2 C 10,6 C 93 % 1024,7 hPa 0,0 l/m 12,1 km/h (2 Bft) W-SW 245 0 min 0,000 mm 0,0 UV-I 7 W/m 7,1 C 4,4 C 22,5 km/h (4 Bft) 98,11 %
24.10.2017 07:56 8,2 C 10,6 C 93 % 1024,7 hPa 0,0 l/m 16,1 km/h (3 Bft) W 261 0 min 0,000 mm 0,0 UV-I 7 W/m 7,1 C 2,5 C 22,5 km/h (4 Bft) 100,00 %
24.10.2017 07:58 8,2 C 10,6 C 93 % 1024,7 hPa 0,0 l/m 14,2 km/h (3 Bft) W-SW 254 0 min 0,000 mm 0,0 UV-I 7 W/m 7,1 C 3,3 C 22,5 km/h (4 Bft) 100,00 %
24.10.2017 08:00 8,2 C 10,6 C 93 % 1024,8 hPa 0,0 l/m 9,3 km/h (2 Bft) W-SW 252 0 min 0,000 mm 0,0 UV-I 7 W/m 7,1 C 6,1 C 14,5 km/h (3 Bft) 94,29 %
24.10.2017 08:02 8,2 C 10,6 C 93 % 1024,8 hPa 0,0 l/m 8,3 km/h (2 Bft) W-SW 248 0 min 0,000 mm 0,0 UV-I 9 W/m 7,1 C 6,7 C 14,5 km/h (3 Bft) 98,11 %
24.10.2017 08:04 8,2 C 10,6 C 93 % 1024,9 hPa 0,0 l/m 11,7 km/h (2 Bft) S-SW 213 0 min 0,000 mm 0,0 UV-I 9 W/m 7,1 C 4,6 C 17,7 km/h (3 Bft) 100,00 %
24.10.2017 08:06 8,2 C 10,6 C 94 % 1024,8 hPa 0,0 l/m 14,8 km/h (3 Bft) SW 234 0 min 0,000 mm 0,0 UV-I 11 W/m 7,3 C 3,0 C 20,9 km/h (4 Bft) 98,00 %
24.10.2017 08:08 8,2 C 10,6 C 94 % 1024,9 hPa 0,0 l/m 11,5 km/h (2 Bft) W 267 0 min 0,000 mm 0,0 UV-I 11 W/m 7,3 C 4,7 C 16,1 km/h (3 Bft) 100,00 %
24.10.2017 08:10 8,2 C 10,6 C 94 % 1024,9 hPa 0,0 l/m 12,8 km/h (3 Bft) W-SW 246 0 min 0,000 mm 0,0 UV-I 10 W/m 7,3 C 4,0 C 17,7 km/h (3 Bft) 100,00 %
24.10.2017 08:12 8,2 C 10,6 C 94 % 1024,9 hPa 0,0 l/m 12,6 km/h (3 Bft) W-NW 282 0 min 0,000 mm 0,0 UV-I 11 W/m 7,3 C 4,1 C 16,1 km/h (3 Bft) 100,00 %
24.10.2017 08:14 8,2 C 10,6 C 94 % 1025,0 hPa 0,0 l/m 8,8 km/h (2 Bft) W-SW 250 0 min 0,000 mm 0,0 UV-I 11 W/m 7,3 C 6,4 C 16,1 km/h (3 Bft) 100,00 %
24.10.2017 08:16 8,2 C 10,6 C 94 % 1025,0 hPa 0,0 l/m 12,0 km/h (2 Bft) W-SW 251 0 min 0,000 mm 0,0 UV-I 11 W/m 7,3 C 4,4 C 16,1 km/h (3 Bft) 95,12 %
24.10.2017 08:18 8,2 C 10,6 C 94 % 1025,0 hPa 0,0 l/m 11,0 km/h (2 Bft) SW 219 0 min 0,000 mm 0,0 UV-I 13 W/m 7,3 C 5,0 C 20,9 km/h (4 Bft) 100,00 %
24.10.2017 08:20 8,2 C 10,6 C 94 % 1025,1 hPa 0,0 l/m 13,7 km/h (3 Bft) SW 231 0 min 0,000 mm 0,0 UV-I 14 W/m 7,3 C 3,6 C 19,3 km/h (3 Bft) 98,11 %
24.10.2017 08:22 8,2 C 10,6 C 94 % 1025,1 hPa 0,0 l/m 11,8 km/h (2 Bft) SW 229 0 min 0,000 mm 0,0 UV-I 13 W/m 7,3 C 4,6 C 16,1 km/h (3 Bft) 100,00 %
24.10.2017 08:24 8,2 C 10,6 C 94 % 1025,1 hPa 0,0 l/m 9,7 km/h (2 Bft) W-SW 253 0 min 0,000 mm 0,0 UV-I 13 W/m 7,3 C 5,8 C 16,1 km/h (3 Bft) 100,00 %
24.10.2017 08:26 8,2 C 10,6 C 94 % 1025,1 hPa 0,0 l/m 14,7 km/h (3 Bft) SW 230 0 min 0,000 mm 0,0 UV-I 16 W/m 7,3 C 3,1 C 20,9 km/h (4 Bft) 100,00 %
24.10.2017 08:28 8,2 C 10,6 C 94 % 1025,2 hPa 0,0 l/m 12,9 km/h (3 Bft) W 277 0 min 0,000 mm 0,0 UV-I 14 W/m 7,3 C 4,0 C 19,3 km/h (3 Bft) 100,00 %
24.10.2017 08:30 8,2 C 10,6 C 94 % 1025,2 hPa 0,0 l/m 11,7 km/h (2 Bft) S-SW 204 0 min 0,000 mm 0,0 UV-I 14 W/m 7,3 C 4,6 C 17,7 km/h (3 Bft) 100,00 %
24.10.2017 08:32 8,2 C 10,6 C 94 % 1025,2 hPa 0,0 l/m 13,0 km/h (3 Bft) W 269 0 min 0,000 mm 0,0 UV-I 14 W/m 7,3 C 3,9 C 19,3 km/h (3 Bft) 100,00 %
24.10.2017 08:34 8,2 C 10,6 C 94 % 1025,2 hPa 0,0 l/m 11,2 km/h (2 Bft) W-SW 246 0 min 0,000 mm 0,0 UV-I 16 W/m 7,3 C 4,9 C 16,1 km/h (3 Bft) 100,00 %
24.10.2017 08:36 8,2 C 10,6 C 94 % 1025,2 hPa 0,0 l/m 12,9 km/h (3 Bft) S-SW 205 0 min 0,000 mm 0,0 UV-I 16 W/m 7,3 C 4,0 C 19,3 km/h (3 Bft) 100,00 %
24.10.2017 08:38 8,2 C 10,6 C 94 % 1025,3 hPa 0,0 l/m 12,8 km/h (3 Bft) W 259 0 min 0,000 mm 0,0 UV-I 16 W/m 7,3 C 4,0 C 19,3 km/h (3 Bft) 98,11 %
24.10.2017 08:40 8,2 C 10,6 C 94 % 1025,3 hPa 0,0 l/m 13,2 km/h (3 Bft) W-SW 237 0 min 0,000 mm 0,0 UV-I 15 W/m 7,3 C 3,8 C 19,3 km/h (3 Bft) 100,00 %
24.10.2017 08:42 8,1 C 10,6 C 94 % 1025,4 hPa 0,2 l/m 11,0 km/h (2 Bft) SW 219 0 min 0,000 mm 0,0 UV-I 15 W/m 7,2 C 4,9 C 17,7 km/h (3 Bft) 96,43 %
24.10.2017 08:44 8,1 C 10,6 C 94 % 1025,4 hPa 0,0 l/m 11,0 km/h (2 Bft) W-SW 256 0 min 0,000 mm 0,0 UV-I 17 W/m 7,2 C 4,9 C 22,5 km/h (4 Bft) 97,56 %
24.10.2017 08:46 8,1 C 10,6 C 94 % 1025,4 hPa 0,0 l/m 10,2 km/h (2 Bft) W-SW 250 0 min 0,000 mm 0,0 UV-I 19 W/m 7,2 C 5,4 C 17,7 km/h (3 Bft) 94,00 %
24.10.2017 08:48 8,2 C 10,6 C 95 % 1025,5 hPa 0,0 l/m 10,1 km/h (2 Bft) SW 230 0 min 0,000 mm 0,0 UV-I 19 W/m 7,4 C 5,5 C 17,7 km/h (3 Bft) 97,37 %
24.10.2017 08:50 8,1 C 10,6 C 95 % 1025,5 hPa 0,0 l/m 11,7 km/h (2 Bft) W-SW 252 0 min 0,000 mm 0,0 UV-I 23 W/m 7,3 C 4,5 C 17,7 km/h (3 Bft) 96,43 %
24.10.2017 08:52 8,1 C 10,6 C 95 % 1025,5 hPa 0,0 l/m 12,6 km/h (3 Bft) W 270 0 min 0,000 mm 0,0 UV-I 21 W/m 7,3 C 4,0 C 16,1 km/h (3 Bft) 96,67 %
24.10.2017 08:54 8,1 C 10,6 C 95 % 1025,5 hPa 0,0 l/m 10,6 km/h (2 Bft) W-SW 249 0 min 0,000 mm 0,0 UV-I 24 W/m 7,3 C 5,1 C 16,1 km/h (3 Bft) 96,72 %
24.10.2017 08:56 8,1 C 10,6 C 95 % 1025,5 hPa 0,2 l/m 9,8 km/h (2 Bft) SW 234 0 min 0,000 mm 0,0 UV-I 24 W/m 7,3 C 5,6 C 17,7 km/h (3 Bft) 97,44 %
24.10.2017 08:58 8,1 C 10,6 C 95 % 1025,6 hPa 0,0 l/m 12,8 km/h (3 Bft) W 266 0 min 0,000 mm 0,0 UV-I 21 W/m 7,3 C 3,9 C 19,3 km/h (3 Bft) 98,00 %
24.10.2017 09:00 8,1 C 10,6 C 95 % 1025,6 hPa 0,0 l/m 12,1 km/h (2 Bft) W 263 0 min 0,025 mm 0,0 UV-I 20 W/m 7,3 C 4,3 C 19,3 km/h (3 Bft) 96,15 %
24.10.2017 09:02 8,1 C 10,6 C 95 % 1025,6 hPa 0,0 l/m 10,8 km/h (2 Bft) W-SW 256 0 min 0,000 mm 0,0 UV-I 19 W/m 7,3 C 5,0 C 14,5 km/h (3 Bft) 97,50 %
24.10.2017 09:04 8,1 C 10,6 C 95 % 1025,7 hPa 0,0 l/m 12,0 km/h (2 Bft) W-SW 251 0 min 0,000 mm 0,0 UV-I 18 W/m 7,3 C 4,3 C 20,9 km/h (4 Bft) 98,28 %
24.10.2017 09:06 8,1 C 10,6 C 95 % 1025,7 hPa 0,2 l/m 10,0 km/h (2 Bft) SW 236 0 min 0,000 mm 0,0 UV-I 18 W/m 7,3 C 5,5 C 14,5 km/h (3 Bft) 97,62 %
24.10.2017 09:08 8,1 C 10,6 C 95 % 1025,7 hPa 0,0 l/m 8,6 km/h (2 Bft) SW 225 0 min 0,000 mm 0,0 UV-I 22 W/m 7,3 C 6,4 C 12,9 km/h (3 Bft) 98,11 %
24.10.2017 09:10 8,1 C 10,6 C 95 % 1025,7 hPa 0,0 l/m 8,9 km/h (2 Bft) S-SW 212 0 min 0,000 mm 0,0 UV-I 22 W/m 7,3 C 6,2 C 14,5 km/h (3 Bft) 97,37 %
24.10.2017 09:12 8,1 C 10,6 C 95 % 1025,7 hPa 0,0 l/m 12,8 km/h (3 Bft) W-SW 257 0 min 0,000 mm 0,0 UV-I 23 W/m 7,3 C 3,9 C 20,9 km/h (4 Bft) 98,00 %
24.10.2017 09:14 8,1 C 10,6 C 95 % 1025,7 hPa 0,0 l/m 11,7 km/h (2 Bft) W-SW 246 0 min 0,000 mm 0,0 UV-I 22 W/m 7,3 C 4,5 C 16,1 km/h (3 Bft) 97,37 %
24.10.2017 09:16 8,1 C 10,6 C 95 % 1025,7 hPa 0,0 l/m 8,9 km/h (2 Bft) W-SW 250 0 min 0,000 mm 0,0 UV-I 22 W/m 7,3 C 6,2 C 14,5 km/h (3 Bft) 96,61 %
24.10.2017 09:18 8,1 C 10,6 C 95 % 1025,7 hPa 0,0 l/m 10,5 km/h (2 Bft) W-SW 257 0 min 0,000 mm 0,0 UV-I 23 W/m 7,3 C 5,2 C 16,1 km/h (3 Bft) 97,37 %
24.10.2017 09:20 8,1 C 10,6 C 95 % 1025,7 hPa 0,0 l/m 10,5 km/h (2 Bft) W 259 0 min 0,000 mm 0,0 UV-I 25 W/m 7,3 C 5,2 C 14,5 km/h (3 Bft) 98,00 %
24.10.2017 09:22 8,1 C 10,6 C 95 % 1025,8 hPa 0,0 l/m 10,5 km/h (2 Bft) W 261 0 min 0,000 mm 0,0 UV-I 31 W/m 7,3 C 5,2 C 14,5 km/h (3 Bft) 98,11 %
24.10.2017 09:24 8,1 C 10,6 C 95 % 1025,8 hPa 0,2 l/m 11,4 km/h (2 Bft) W 269 0 min 0,000 mm 0,0 UV-I 30 W/m 7,3 C 4,7 C 14,5 km/h (3 Bft) 94,74 %
24.10.2017 09:26 8,1 C 10,6 C 96 % 1025,8 hPa 0,0 l/m 8,9 km/h (2 Bft) W-SW 242 0 min 0,000 mm 0,0 UV-I 32 W/m 7,5 C 6,2 C 14,5 km/h (3 Bft) 97,87 %
24.10.2017 09:28 8,1 C 10,6 C 96 % 1025,8 hPa 0,0 l/m 12,3 km/h (3 Bft) W-SW 247 0 min 0,000 mm 0,0 UV-I 31 W/m 7,5 C 4,2 C 20,9 km/h (4 Bft) 97,37 %
24.10.2017 09:30 8,1 C 10,6 C 96 % 1025,8 hPa 0,2 l/m 12,7 km/h (3 Bft) S-SW 205 0 min 0,000 mm 0,0 UV-I 26 W/m 7,5 C 4,0 C 20,9 km/h (4 Bft) 98,46 %
24.10.2017 09:32 8,1 C 10,6 C 96 % 1025,9 hPa 0,0 l/m 12,6 km/h (3 Bft) W 261 0 min 0,000 mm 0,0 UV-I 26 W/m 7,5 C 4,0 C 17,7 km/h (3 Bft) 97,56 %
24.10.2017 09:34 8,1 C 10,6 C 96 % 1025,8 hPa 0,0 l/m 9,9 km/h (2 Bft) W 265 0 min 0,000 mm 0,0 UV-I 27 W/m 7,5 C 5,6 C 16,1 km/h (3 Bft) 94,00 %
24.10.2017 09:36 8,2 C 10,6 C 96 % 1025,8 hPa 0,0 l/m 10,4 km/h (2 Bft) W 267 0 min 0,000 mm 0,0 UV-I 26 W/m 7,6 C 5,4 C 14,5 km/h (3 Bft) 97,56 %
24.10.2017 09:38 8,2 C 10,6 C 96 % 1025,9 hPa 0,0 l/m 10,3 km/h (2 Bft) W-SW 248 0 min 0,000 mm 0,0 UV-I 29 W/m 7,6 C 5,4 C 16,1 km/h (3 Bft) 98,00 %
24.10.2017 09:40 8,2 C 10,6 C 96 % 1025,9 hPa 0,0 l/m 11,8 km/h (2 Bft) SW 223 0 min 0,000 mm 0,0 UV-I 33 W/m 7,6 C 4,6 C 17,7 km/h (3 Bft) 96,00 %
24.10.2017 09:42 8,2 C 10,6 C 96 % 1025,9 hPa 0,2 l/m 9,6 km/h (2 Bft) W-SW 242 0 min 0,000 mm 0,0 UV-I 38 W/m 7,6 C 5,9 C 12,9 km/h (3 Bft) 97,44 %
24.10.2017 09:44 8,2 C 10,6 C 96 % 1025,9 hPa 0,0 l/m 12,5 km/h (3 Bft) W-SW 244 0 min 0,000 mm 0,0 UV-I 36 W/m 7,6 C 4,2 C 16,1 km/h (3 Bft) 96,23 %
24.10.2017 09:46 8,2 C 10,6 C 96 % 1025,9 hPa 0,0 l/m 11,5 km/h (2 Bft) W-SW 257 0 min 0,000 mm 0,0 UV-I 33 W/m 7,6 C 4,7 C 16,1 km/h (3 Bft) 95,65 %
24.10.2017 09:48 8,2 C 10,6 C 96 % 1025,9 hPa 0,0 l/m 10,3 km/h (2 Bft) W-SW 252 0 min 0,000 mm 0,0 UV-I 36 W/m 7,6 C 5,4 C 17,7 km/h (3 Bft) 95,59 %
24.10.2017 09:50 8,2 C 10,6 C 96 % 1025,9 hPa 0,0 l/m 8,6 km/h (2 Bft) W-SW 239 0 min 0,000 mm 0,0 UV-I 45 W/m 7,6 C 6,5 C 14,5 km/h (3 Bft) 96,23 %
24.10.2017 09:52 8,2 C 10,6 C 96 % 1025,9 hPa 0,0 l/m 8,9 km/h (2 Bft) W-SW 251 0 min 0,000 mm 0,0 UV-I 61 W/m 7,6 C 6,3 C 14,5 km/h (3 Bft) 97,37 %
24.10.2017 09:54 8,3 C 10,6 C 96 % 1025,9 hPa 0,0 l/m 8,8 km/h (2 Bft) W-SW 241 0 min 0,000 mm 0,0 UV-I 72 W/m 7,7 C 6,5 C 12,9 km/h (3 Bft) 97,87 %
24.10.2017 09:56 8,3 C 10,6 C 96 % 1025,9 hPa 0,0 l/m 10,4 km/h (2 Bft) SW 236 0 min 0,000 mm 0,0 UV-I 83 W/m 7,7 C 5,5 C 14,5 km/h (3 Bft) 95,74 %
24.10.2017 09:58 8,3 C 10,6 C 96 % 1025,9 hPa 0,0 l/m 8,6 km/h (2 Bft) SW 234 0 min 0,000 mm 0,0 UV-I 83 W/m 7,7 C 6,6 C 16,1 km/h (3 Bft) 98,21 %
24.10.2017 10:00 8,3 C 10,6 C 96 % 1025,9 hPa 0,0 l/m 9,8 km/h (2 Bft) S-SW 210 0 min 0,025 mm 0,0 UV-I 102 W/m 7,7 C 5,8 C 14,5 km/h (3 Bft) 97,14 %
24.10.2017 10:02 8,4 C 10,6 C 96 % 1025,9 hPa 0,0 l/m 6,8 km/h (2 Bft) SW 223 0 min 0,000 mm 0,0 UV-I 111 W/m 7,8 C 8,1 C 9,7 km/h (2 Bft) 94,64 %
24.10.2017 10:04 8,4 C 10,6 C 96 % 1025,9 hPa 0,0 l/m 11,7 km/h (2 Bft) W-SW 241 0 min 0,000 mm 0,0 UV-I 99 W/m 7,8 C 4,8 C 17,7 km/h (3 Bft) 97,73 %
24.10.2017 10:06 8,4 C 10,6 C 96 % 1025,9 hPa 0,0 l/m 11,5 km/h (2 Bft) W-SW 242 0 min 0,000 mm 0,0 UV-I 76 W/m 7,8 C 4,9 C 14,5 km/h (3 Bft) 98,00 %
24.10.2017 10:08 8,4 C 10,6 C 96 % 1025,9 hPa 0,0 l/m 9,7 km/h (2 Bft) W-SW 248 0 min 0,000 mm 0,0 UV-I 82 W/m 7,8 C 6,0 C 14,5 km/h (3 Bft) 97,73 %
24.10.2017 10:10 8,5 C 10,6 C 96 % 1026,0 hPa 0,0 l/m 10,5 km/h (2 Bft) W-SW 243 0 min 0,000 mm 0,0 UV-I 92 W/m 7,9 C 5,6 C 14,5 km/h (3 Bft) 97,56 %
24.10.2017 10:12 8,6 C 10,6 C 96 % 1026,0 hPa 0,0 l/m 11,2 km/h (2 Bft) SW 234 0 min 0,000 mm 0,0 UV-I 101 W/m 8,0 C 5,3 C 16,1 km/h (3 Bft) 98,00 %
24.10.2017 10:14 8,6 C 10,6 C 96 % 1025,9 hPa 0,0 l/m 10,6 km/h (2 Bft) W-SW 249 0 min 0,000 mm 0,0 UV-I 105 W/m 8,0 C 5,7 C 17,7 km/h (3 Bft) 97,73 %
24.10.2017 10:16 8,6 C 10,6 C 96 % 1026,0 hPa 0,0 l/m 13,8 km/h (3 Bft) W 261 0 min 0,000 mm 0,0 UV-I 98 W/m 8,0 C 4,0 C 17,7 km/h (3 Bft) 98,00 %
24.10.2017 10:18 8,6 C 10,6 C 96 % 1026,0 hPa 0,0 l/m 11,1 km/h (2 Bft) SW 235 0 min 0,000 mm 0,0 UV-I 97 W/m 8,0 C 5,4 C 17,7 km/h (3 Bft) 96,00 %
24.10.2017 10:20 8,7 C 10,6 C 96 % 1026,0 hPa 0,0 l/m 12,5 km/h (3 Bft) SW 236 0 min 0,000 mm 0,0 UV-I 113 W/m 8,1 C 4,8 C 19,3 km/h (3 Bft) 97,62 %
24.10.2017 10:22 8,7 C 10,6 C 96 % 1026,1 hPa 0,0 l/m 9,9 km/h (2 Bft) W-SW 256 0 min 0,000 mm 0,0 UV-I 117 W/m 8,1 C 6,2 C 14,5 km/h (3 Bft) 94,00 %
24.10.2017 10:24 8,7 C 10,6 C 96 % 1026,1 hPa 0,0 l/m 11,3 km/h (2 Bft) W-SW 250 0 min 0,000 mm 0,0 UV-I 119 W/m 8,1 C 5,4 C 16,1 km/h (3 Bft) 95,12 %
24.10.2017 10:26 8,7 C 10,6 C 96 % 1026,1 hPa 0,0 l/m 8,4 km/h (2 Bft) SW 228 0 min 0,000 mm 0,0 UV-I 106 W/m 8,1 C 7,2 C 17,7 km/h (3 Bft) 100,00 %
24.10.2017 10:28 8,7 C 10,6 C 96 % 1026,1 hPa 0,0 l/m 11,2 km/h (2 Bft) W-SW 244 0 min 0,000 mm 0,0 UV-I 99 W/m 8,1 C 5,5 C 17,7 km/h (3 Bft) 97,56 %
24.10.2017 10:30 8,8 C 10,6 C 96 % 1026,1 hPa 0,0 l/m 12,9 km/h (3 Bft) W-SW 247 0 min 0,000 mm 0,0 UV-I 90 W/m 8,2 C 4,7 C 17,7 km/h (3 Bft) 100,00 %
24.10.2017 10:32 8,8 C 10,6 C 96 % 1026,1 hPa 0,0 l/m 12,4 km/h (3 Bft) SW 234 0 min 0,000 mm 0,0 UV-I 87 W/m 8,2 C 4,9 C 17,7 km/h (3 Bft) 100,00 %
24.10.2017 10:34 8,8 C 10,6 C 96 % 1026,2 hPa 0,0 l/m 13,3 km/h (3 Bft) W-SW 242 0 min 0,000 mm 0,0 UV-I 103 W/m 8,2 C 4,5 C 19,3 km/h (3 Bft) 96,61 %
24.10.2017 10:36 8,8 C 10,6 C 96 % 1026,1 hPa 0,0 l/m 11,9 km/h (2 Bft) SW 229 0 min 0,000 mm 0,4 UV-I 123 W/m 8,2 C 5,2 C 17,7 km/h (3 Bft) 100,00 %
24.10.2017 10:38 8,8 C 10,6 C 96 % 1026,2 hPa 0,0 l/m 15,1 km/h (3 Bft) W-SW 257 0 min 0,000 mm 0,5 UV-I 127 W/m 8,2 C 3,6 C 20,9 km/h (4 Bft) 100,00 %
24.10.2017 10:40 8,8 C 10,6 C 96 % 1026,1 hPa 0,0 l/m 11,7 km/h (2 Bft) W-SW 257 0 min 0,000 mm 0,5 UV-I 127 W/m 8,2 C 5,3 C 20,9 km/h (4 Bft) 97,87 %
24.10.2017 10:42 8,8 C 10,6 C 96 % 1026,1 hPa 0,0 l/m 15,7 km/h (3 Bft) W-SW 240 0 min 0,000 mm 0,5 UV-I 127 W/m 8,2 C 3,4 C 22,5 km/h (4 Bft) 100,00 %
24.10.2017 10:44 8,9 C 10,6 C 96 % 1026,1 hPa 0,0 l/m 14,8 km/h (3 Bft) W-SW 240 0 min 0,000 mm 0,5 UV-I 131 W/m 8,3 C 3,9 C 19,3 km/h (3 Bft) 100,00 %
24.10.2017 10:46 8,9 C 10,6 C 95 % 1026,2 hPa 0,0 l/m 11,8 km/h (2 Bft) W-SW 250 0 min 0,000 mm 0,6 UV-I 146 W/m 8,1 C 5,4 C 19,3 km/h (3 Bft) 96,43 %
24.10.2017 10:48 9,0 C 10,6 C 95 % 1026,2 hPa 0,0 l/m 12,7 km/h (3 Bft) W 263 0 min 0,000 mm 0,6 UV-I 151 W/m 8,2 C 5,0 C 22,5 km/h (4 Bft) 97,87 %
24.10.2017 10:50 9,0 C 10,6 C 95 % 1026,2 hPa 0,0 l/m 10,4 km/h (2 Bft) W 272 0 min 0,000 mm 0,6 UV-I 140 W/m 8,2 C 6,3 C 17,7 km/h (3 Bft) 97,37 %
24.10.2017 10:52 9,1 C 10,6 C 95 % 1026,3 hPa 0,0 l/m 14,1 km/h (3 Bft) W-SW 249 0 min 0,000 mm 0,6 UV-I 147 W/m 8,3 C 4,4 C 19,3 km/h (3 Bft) 93,62 %
24.10.2017 10:54 9,1 C 10,6 C 95 % 1026,3 hPa 0,0 l/m 13,3 km/h (3 Bft) W-SW 241 0 min 0,000 mm 0,6 UV-I 155 W/m 8,3 C 4,8 C 19,3 km/h (3 Bft) 98,11 %
24.10.2017 10:56 9,1 C 10,6 C 95 % 1026,3 hPa 0,0 l/m 13,2 km/h (3 Bft) W-SW 257 0 min 0,000 mm 0,6 UV-I 159 W/m 8,3 C 4,9 C 17,7 km/h (3 Bft) 97,44 %
24.10.2017 10:58 9,2 C 10,6 C 95 % 1026,4 hPa 0,0 l/m 12,0 km/h (2 Bft) W-NW 282 0 min 0,000 mm 0,5 UV-I 128 W/m 8,4 C 5,6 C 16,1 km/h (3 Bft) 96,15 %
24.10.2017 11:00 9,2 C 10,6 C 95 % 1026,3 hPa 0,0 l/m 11,3 km/h (2 Bft) W-SW 250 0 min 0,051 mm 0,5 UV-I 133 W/m 8,4 C 6,0 C 16,1 km/h (3 Bft) 95,24 %
24.10.2017 11:02 9,3 C 10,6 C 95 % 1026,3 hPa 0,0 l/m 12,5 km/h (3 Bft) W 276 0 min 0,000 mm 0,7 UV-I 158 W/m 8,5 C 5,5 C 17,7 km/h (3 Bft) 97,37 %
24.10.2017 11:04 9,3 C 10,6 C 95 % 1026,3 hPa 0,0 l/m 12,1 km/h (2 Bft) W-SW 248 0 min 0,000 mm 0,7 UV-I 175 W/m 8,5 C 5,7 C 19,3 km/h (3 Bft) 96,23 %
24.10.2017 11:06 9,3 C 10,6 C 95 % 1026,4 hPa 0,0 l/m 12,4 km/h (3 Bft) SW 234 0 min 0,000 mm 0,6 UV-I 168 W/m 8,5 C 5,5 C 16,1 km/h (3 Bft) 98,00 %
24.10.2017 11:08 9,4 C 10,6 C 95 % 1026,4 hPa 0,0 l/m 10,9 km/h (2 Bft) W-SW 246 0 min 0,000 mm 0,8 UV-I 203 W/m 8,6 C 6,4 C 16,1 km/h (3 Bft) 97,96 %
24.10.2017 11:10 9,5 C 10,6 C 95 % 1026,4 hPa 0,0 l/m 7,5 km/h (2 Bft) W 271 0 min 0,000 mm 0,7 UV-I 193 W/m 8,7 C 8,7 C 12,9 km/h (3 Bft) 97,56 %
24.10.2017 11:12 9,6 C 10,6 C 95 % 1026,4 hPa 0,0 l/m 9,3 km/h (2 Bft) W-NW 289 0 min 0,000 mm 0,5 UV-I 153 W/m 8,8 C 7,6 C 17,7 km/h (3 Bft) 98,21 %
24.10.2017 11:14 9,6 C 10,6 C 94 % 1026,5 hPa 0,0 l/m 12,2 km/h (2 Bft) W-SW 244 0 min 0,000 mm 0,6 UV-I 157 W/m 8,7 C 6,0 C 19,3 km/h (3 Bft) 96,00 %
24.10.2017 11:16 9,7 C 10,6 C 94 % 1026,4 hPa 0,0 l/m 9,4 km/h (2 Bft) SW 219 0 min 0,000 mm 0,7 UV-I 171 W/m 8,8 C 7,6 C 16,1 km/h (3 Bft) 97,37 %
24.10.2017 11:18 9,7 C 10,6 C 94 % 1026,5 hPa 0,0 l/m 10,9 km/h (2 Bft) W-SW 247 0 min 0,000 mm 0,6 UV-I 154 W/m 8,8 C 6,8 C 20,9 km/h (4 Bft) 98,11 %
24.10.2017 11:20 9,8 C 10,6 C 94 % 1026,5 hPa 0,0 l/m 11,7 km/h (2 Bft) W-SW 238 0 min 0,000 mm 0,6 UV-I 143 W/m 8,9 C 6,4 C 19,3 km/h (3 Bft) 97,56 %
24.10.2017 11:22 9,8 C 10,6 C 94 % 1026,5 hPa 0,0 l/m 8,8 km/h (2 Bft) W 269 0 min 0,000 mm 0,4 UV-I 125 W/m 8,9 C 8,1 C 17,7 km/h (3 Bft) 100,00 %
24.10.2017 11:24 9,8 C 10,6 C 93 % 1026,5 hPa 0,0 l/m 11,1 km/h (2 Bft) W 269 0 min 0,000 mm 0,0 UV-I 91 W/m 8,7 C 6,8 C 19,3 km/h (3 Bft) 100,00 %
24.10.2017 11:26 9,8 C 10,6 C 93 % 1026,6 hPa 0,0 l/m 12,9 km/h (3 Bft) W 263 0 min 0,000 mm 0,0 UV-I 75 W/m 8,7 C 5,8 C 19,3 km/h (3 Bft) 98,00 %
24.10.2017 11:28 9,8 C 10,6 C 93 % 1026,6 hPa 0,0 l/m 8,0 km/h (2 Bft) W 261 0 min 0,000 mm 0,0 UV-I 76 W/m 8,7 C 8,6 C 11,3 km/h (2 Bft) 100,00 %
24.10.2017 11:30 9,8 C 10,6 C 93 % 1026,7 hPa 0,0 l/m 6,6 km/h (2 Bft) W-SW 254 0 min 0,000 mm 0,0 UV-I 71 W/m 8,7 C 9,7 C 11,3 km/h (2 Bft) 100,00 %
24.10.2017 11:32 9,8 C 10,6 C 93 % 1026,7 hPa 0,0 l/m 8,3 km/h (2 Bft) W 264 0 min 0,000 mm 0,0 UV-I 73 W/m 8,7 C 8,4 C 11,3 km/h (2 Bft) 100,00 %
24.10.2017 11:34 9,7 C 10,6 C 93 % 1026,7 hPa 0,0 l/m 12,1 km/h (2 Bft) W-SW 252 0 min 0,000 mm 0,0 UV-I 87 W/m 8,6 C 6,1 C 17,7 km/h (3 Bft) 97,44 %
24.10.2017 11:36 9,7 C 10,6 C 92 % 1026,7 hPa 0,0 l/m 11,2 km/h (2 Bft) W-SW 242 0 min 0,000 mm 0,0 UV-I 94 W/m 8,5 C 6,6 C 17,7 km/h (3 Bft) 97,96 %
24.10.2017 11:38 9,7 C 10,6 C 92 % 1026,7 hPa 0,0 l/m 11,0 km/h (2 Bft) W 270 0 min 0,000 mm 0,0 UV-I 100 W/m 8,5 C 6,7 C 16,1 km/h (3 Bft) 98,11 %
24.10.2017 11:40 9,7 C 10,6 C 92 % 1026,7 hPa 0,0 l/m 7,1 km/h (2 Bft) W-SW 240 0 min 0,000 mm 0,2 UV-I 102 W/m 8,5 C 9,2 C 14,5 km/h (3 Bft) 100,00 %
24.10.2017 11:42 9,8 C 10,6 C 92 % 1026,7 hPa 0,0 l/m 10,1 km/h (2 Bft) W-SW 242 0 min 0,000 mm 0,0 UV-I 93 W/m 8,6 C 7,3 C 16,1 km/h (3 Bft) 98,11 %
24.10.2017 11:44 9,8 C 10,6 C 91 % 1026,7 hPa 0,0 l/m 12,4 km/h (3 Bft) W 261 0 min 0,000 mm 0,0 UV-I 73 W/m 8,4 C 6,1 C 17,7 km/h (3 Bft) 100,00 %
24.10.2017 11:46 9,8 C 10,6 C 91 % 1026,7 hPa 0,0 l/m 14,2 km/h (3 Bft) W-SW 253 0 min 0,000 mm 0,0 UV-I 62 W/m 8,4 C 5,2 C 19,3 km/h (3 Bft) 100,00 %
24.10.2017 11:48 9,8 C 10,6 C 91 % 1026,7 hPa 0,0 l/m 12,6 km/h (3 Bft) W 279 0 min 0,000 mm 0,0 UV-I 54 W/m 8,4 C 6,0 C 24,1 km/h (4 Bft) 95,12 %
24.10.2017 11:50 9,8 C 10,6 C 90 % 1026,8 hPa 0,0 l/m 11,3 km/h (2 Bft) W-SW 244 0 min 0,000 mm 0,0 UV-I 64 W/m 8,2 C 6,6 C 16,1 km/h (3 Bft) 100,00 %
24.10.2017 11:52 9,8 C 10,6 C 90 % 1026,7 hPa 0,0 l/m 10,7 km/h (2 Bft) W-NW 292 0 min 0,000 mm 0,0 UV-I 79 W/m 8,2 C 7,0 C 17,7 km/h (3 Bft) 100,00 %
24.10.2017 11:54 9,8 C 10,6 C 91 % 1026,8 hPa 0,0 l/m 10,9 km/h (2 Bft) W 263 0 min 0,000 mm 0,0 UV-I 76 W/m 8,4 C 6,9 C 16,1 km/h (3 Bft) 98,11 %
24.10.2017 11:56 9,8 C 10,6 C 90 % 1026,8 hPa 0,0 l/m 12,1 km/h (2 Bft) W-SW 251 0 min 0,000 mm 0,0 UV-I 74 W/m 8,2 C 6,2 C 22,5 km/h (4 Bft) 100,00 %
24.10.2017 11:58 9,8 C 10,6 C 90 % 1026,7 hPa 0,0 l/m 15,4 km/h (3 Bft) W 270 0 min 0,000 mm 0,0 UV-I 85 W/m 8,2 C 4,7 C 24,1 km/h (4 Bft) 100,00 %
24.10.2017 12:00 9,8 C 10,6 C 90 % 1026,7 hPa 0,0 l/m 11,1 km/h (2 Bft) W 268 0 min 0,051 mm 0,4 UV-I 103 W/m 8,2 C 6,8 C 16,1 km/h (3 Bft) 98,00 %
24.10.2017 12:02 9,8 C 10,6 C 90 % 1026,7 hPa 0,0 l/m 10,2 km/h (2 Bft) W-SW 250 0 min 0,000 mm 0,5 UV-I 104 W/m 8,2 C 7,3 C 16,1 km/h (3 Bft) 100,00 %
24.10.2017 12:04 9,9 C 10,6 C 90 % 1026,7 hPa 0,0 l/m 9,4 km/h (2 Bft) W 269 0 min 0,000 mm 0,5 UV-I 106 W/m 8,3 C 7,8 C 17,7 km/h (3 Bft) 100,00 %
24.10.2017 12:06 9,9 C 10,6 C 90 % 1026,7 hPa 0,0 l/m 8,3 km/h (2 Bft) W-SW 242 0 min 0,000 mm 0,5 UV-I 106 W/m 8,3 C 8,5 C 14,5 km/h (3 Bft) 100,00 %
24.10.2017 12:08 9,9 C 10,6 C 89 % 1026,7 hPa 0,0 l/m 13,2 km/h (3 Bft) W-SW 257 0 min 0,000 mm 0,5 UV-I 111 W/m 8,2 C 5,8 C 24,1 km/h (4 Bft) 97,87 %
24.10.2017 12:10 9,9 C 10,6 C 89 % 1026,6 hPa 0,0 l/m 14,6 km/h (3 Bft) W-SW 252 0 min 0,000 mm 0,3 UV-I 100 W/m 8,2 C 5,2 C 19,3 km/h (3 Bft) 100,00 %
24.10.2017 12:12 9,9 C 10,6 C 89 % 1026,6 hPa 0,0 l/m 12,7 km/h (3 Bft) W-SW 257 0 min 0,000 mm 0,5 UV-I 101 W/m 8,2 C 6,1 C 19,3 km/h (3 Bft) 100,00 %
24.10.2017 12:14 10,0 C 10,6 C 89 % 1026,7 hPa 0,0 l/m 11,9 km/h (2 Bft) W 269 0 min 0,000 mm 0,5 UV-I 104 W/m 8,3 C 6,6 C 17,7 km/h (3 Bft) 100,00 %
24.10.2017 12:16 10,0 C 10,6 C 89 % 1026,7 hPa 0,0 l/m 7,6 km/h (2 Bft) W-SW 258 0 min 0,000 mm 0,1 UV-I 98 W/m 8,3 C 9,1 C 14,5 km/h (3 Bft) 98,18 %
24.10.2017 12:18 10,1 C 10,6 C 88 % 1026,7 hPa 0,0 l/m 10,7 km/h (2 Bft) W 259 0 min 0,000 mm 0,0 UV-I 93 W/m 8,2 C 7,3 C 16,1 km/h (3 Bft) 98,00 %
24.10.2017 12:20 10,1 C 10,6 C 88 % 1026,6 hPa 0,0 l/m 15,4 km/h (3 Bft) W 269 0 min 0,000 mm 0,2 UV-I 101 W/m 8,2 C 5,1 C 20,9 km/h (4 Bft) 100,00 %
24.10.2017 12:22 10,1 C 10,6 C 88 % 1026,5 hPa 0,0 l/m 11,1 km/h (2 Bft) W-SW 258 0 min 0,000 mm 0,6 UV-I 120 W/m 8,2 C 7,1 C 19,3 km/h (3 Bft) 100,00 %
24.10.2017 12:24 10,1 C 10,6 C 88 % 1026,4 hPa 0,0 l/m 9,2 km/h (2 Bft) W 270 0 min 0,000 mm 0,6 UV-I 135 W/m 8,2 C 8,2 C 14,5 km/h (3 Bft) 100,00 %
24.10.2017 12:26 10,2 C 10,6 C 88 % 1026,4 hPa 0,0 l/m 7,4 km/h (2 Bft) W-SW 254 0 min 0,000 mm 0,6 UV-I 134 W/m 8,3 C 9,5 C 11,3 km/h (2 Bft) 100,00 %
24.10.2017 12:28 10,2 C 10,6 C 88 % 1026,4 hPa 0,0 l/m 6,4 km/h (2 Bft) W-SW 247 0 min 0,000 mm 0,5 UV-I 120 W/m 8,3 C 10,2 C 11,3 km/h (2 Bft) 100,00 %
24.10.2017 12:30 10,3 C 10,6 C 88 % 1026,5 hPa 0,0 l/m 9,5 km/h (2 Bft) W 266 0 min 0,000 mm 0,5 UV-I 112 W/m 8,4 C 8,2 C 12,9 km/h (3 Bft) 100,00 %
24.10.2017 12:32 10,3 C 10,6 C 88 % 1026,4 hPa 0,0 l/m 6,2 km/h (2 Bft) SW 236 0 min 0,000 mm 0,6 UV-I 123 W/m 8,4 C 10,3 C 12,9 km/h (3 Bft) 100,00 %
24.10.2017 12:34 10,3 C 10,6 C 88 % 1026,4 hPa 0,0 l/m 5,3 km/h (1 Bft) W 265 0 min 0,000 mm 0,6 UV-I 129 W/m 8,4 C 10,3 C 9,7 km/h (2 Bft) 98,11 %
24.10.2017 12:36 10,3 C 10,6 C 88 % 1026,4 hPa 0,0 l/m 6,0 km/h (2 Bft) W 270 0 min 0,000 mm 0,6 UV-I 128 W/m 8,4 C 10,3 C 9,7 km/h (2 Bft) 97,56 %
24.10.2017 12:38 10,4 C 10,6 C 88 % 1026,4 hPa 0,0 l/m 7,7 km/h (2 Bft) W 266 0 min 0,000 mm 0,7 UV-I 143 W/m 8,5 C 9,5 C 11,3 km/h (2 Bft) 100,00 %
24.10.2017 12:40 10,4 C 10,6 C 87 % 1026,4 hPa 0,0 l/m 13,2 km/h (3 Bft) W-NW 284 0 min 0,000 mm 0,6 UV-I 141 W/m 8,3 C 6,4 C 16,1 km/h (3 Bft) 100,00 %
24.10.2017 12:42 10,4 C 10,6 C 87 % 1026,3 hPa 0,0 l/m 7,7 km/h (2 Bft) W-SW 243 0 min 0,000 mm 0,7 UV-I 149 W/m 8,3 C 9,5 C 12,9 km/h (3 Bft) 100,00 %
24.10.2017 12:44 10,5 C 10,6 C 87 % 1026,3 hPa 0,0 l/m 11,4 km/h (2 Bft) W-SW 242 0 min 0,000 mm 0,8 UV-I 174 W/m 8,4 C 7,4 C 16,1 km/h (3 Bft) 100,00 %
24.10.2017 12:46 10,5 C 10,6 C 86 % 1026,2 hPa 0,0 l/m 10,5 km/h (2 Bft) W-SW 243 0 min 0,000 mm 0,9 UV-I 190 W/m 8,3 C 7,9 C 17,7 km/h (3 Bft) 97,73 %
24.10.2017 12:48 10,6 C 10,6 C 85 % 1026,3 hPa 0,0 l/m 13,1 km/h (3 Bft) W-SW 246 0 min 0,000 mm 0,9 UV-I 196 W/m 8,2 C 6,7 C 22,5 km/h (4 Bft) 95,74 %
24.10.2017 12:50 10,6 C 10,6 C 85 % 1026,3 hPa 0,0 l/m 11,5 km/h (2 Bft) W-SW 254 0 min 0,000 mm 0,9 UV-I 197 W/m 8,2 C 7,5 C 19,3 km/h (3 Bft) 97,87 %
24.10.2017 12:52 10,7 C 10,6 C 85 % 1026,2 hPa 0,0 l/m 9,8 km/h (2 Bft) W 263 0 min 0,000 mm 0,9 UV-I 205 W/m 8,3 C 8,5 C 19,3 km/h (3 Bft) 97,73 %
24.10.2017 12:54 10,7 C 10,6 C 85 % 1026,2 hPa 0,0 l/m 9,7 km/h (2 Bft) W 273 0 min 0,000 mm 1,0 UV-I 215 W/m 8,3 C 8,5 C 19,3 km/h (3 Bft) 96,23 %
24.10.2017 12:56 10,7 C 10,6 C 85 % 1026,2 hPa 0,0 l/m 10,5 km/h (2 Bft) W 267 0 min 0,000 mm 1,0 UV-I 216 W/m 8,3 C 8,1 C 16,1 km/h (3 Bft) 97,44 %
24.10.2017 12:58 10,8 C 10,6 C 84 % 1026,2 hPa 0,0 l/m 11,9 km/h (2 Bft) W-SW 240 0 min 0,000 mm 1,1 UV-I 226 W/m 8,2 C 7,5 C 17,7 km/h (3 Bft) 98,18 %
24.10.2017 13:00 10,8 C 10,6 C 84 % 1026,2 hPa 0,0 l/m 10,7 km/h (2 Bft) W-SW 248 0 min 0,076 mm 1,1 UV-I 223 W/m 8,2 C 8,1 C 16,1 km/h (3 Bft) 97,44 %
24.10.2017 13:02 10,9 C 10,6 C 84 % 1026,2 hPa 0,0 l/m 7,9 km/h (2 Bft) W-SW 241 0 min 0,000 mm 1,1 UV-I 209 W/m 8,3 C 9,9 C 12,9 km/h (3 Bft) 97,87 %
24.10.2017 13:04 10,9 C 10,6 C 84 % 1026,1 hPa 0,0 l/m 7,2 km/h (2 Bft) W-NW 283 0 min 0,000 mm 1,1 UV-I 195 W/m 8,3 C 10,3 C 12,9 km/h (3 Bft) 96,00 %
24.10.2017 13:06 10,9 C 10,6 C 83 % 1026,2 hPa 0,0 l/m 12,0 km/h (2 Bft) W-SW 251 0 min 0,000 mm 1,1 UV-I 181 W/m 8,1 C 7,6 C 17,7 km/h (3 Bft) 96,23 %
24.10.2017 13:08 10,9 C 10,6 C 84 % 1026,1 hPa 0,0 l/m 6,9 km/h (2 Bft) W-SW 245 0 min 0,000 mm 1,2 UV-I 189 W/m 8,3 C 10,6 C 12,9 km/h (3 Bft) 97,37 %
24.10.2017 13:10 11,0 C 10,6 C 84 % 1026,1 hPa 0,0 l/m 10,3 km/h (2 Bft) NW 307 0 min 0,000 mm 1,2 UV-I 179 W/m 8,4 C 8,5 C 14,5 km/h (3 Bft) 98,21 %
24.10.2017 13:12 11,0 C 10,6 C 83 % 1026,1 hPa 0,0 l/m 7,1 km/h (2 Bft) W-SW 246 0 min 0,000 mm 1,2 UV-I 180 W/m 8,2 C 10,5 C 12,9 km/h (3 Bft) 97,14 %
24.10.2017 13:14 11,0 C 10,6 C 83 % 1026,1 hPa 0,0 l/m 7,5 km/h (2 Bft) SW 234 0 min 0,000 mm 1,2 UV-I 196 W/m 8,2 C 10,2 C 14,5 km/h (3 Bft) 94,92 %
24.10.2017 13:16 11,1 C 10,6 C 84 % 1026,1 hPa 0,0 l/m 8,2 km/h (2 Bft) W 270 0 min 0,000 mm 1,3 UV-I 238 W/m 8,5 C 9,9 C 12,9 km/h (3 Bft) 97,37 %
24.10.2017 13:18 11,1 C 10,6 C 84 % 1026,0 hPa 0,0 l/m 8,1 km/h (2 Bft) W-SW 242 0 min 0,000 mm 1,3 UV-I 257 W/m 8,5 C 9,9 C 12,9 km/h (3 Bft) 98,00 %
24.10.2017 13:20 11,2 C 10,6 C 84 % 1026,1 hPa 0,0 l/m 9,0 km/h (2 Bft) W-SW 254 2 min 0,000 mm 1,3 UV-I 278 W/m 8,6 C 9,5 C 14,5 km/h (3 Bft) 100,00 %
24.10.2017 13:22 11,3 C 10,6 C 83 % 1026,1 hPa 0,0 l/m 15,2 km/h (3 Bft) W-SW 242 2 min 0,000 mm 1,3 UV-I 278 W/m 8,5 C 6,6 C 22,5 km/h (4 Bft) 100,00 %
24.10.2017 13:24 11,3 C 10,6 C 82 % 1025,9 hPa 0,0 l/m 13,4 km/h (3 Bft) W-SW 240 0 min 0,000 mm 1,3 UV-I 250 W/m 8,3 C 7,4 C 22,5 km/h (4 Bft) 100,00 %
24.10.2017 13:26 11,3 C 10,6 C 82 % 1026,0 hPa 0,0 l/m 10,7 km/h (2 Bft) W 262 0 min 0,000 mm 1,2 UV-I 241 W/m 8,3 C 8,7 C 22,5 km/h (4 Bft) 98,11 %
24.10.2017 13:28 11,3 C 10,6 C 82 % 1026,1 hPa 0,0 l/m 15,1 km/h (3 Bft) W-SW 257 0 min 0,000 mm 1,3 UV-I 264 W/m 8,3 C 6,7 C 24,1 km/h (4 Bft) 97,56 %
24.10.2017 13:30 11,3 C 10,6 C 83 % 1026,0 hPa 0,0 l/m 8,8 km/h (2 Bft) W 270 0 min 0,000 mm 1,2 UV-I 261 W/m 8,5 C 9,7 C 14,5 km/h (3 Bft) 98,11 %
24.10.2017 13:32 11,4 C 10,6 C 82 % 1026,0 hPa 0,0 l/m 10,4 km/h (2 Bft) W-SW 255 0 min 0,000 mm 1,2 UV-I 206 W/m 8,4 C 8,9 C 14,5 km/h (3 Bft) 98,00 %
24.10.2017 13:34 11,4 C 10,6 C 82 % 1025,9 hPa 0,0 l/m 12,4 km/h (3 Bft) W-SW 242 0 min 0,000 mm 1,2 UV-I 214 W/m 8,4 C 7,9 C 19,3 km/h (3 Bft) 97,56 %
24.10.2017 13:36 11,3 C 10,6 C 82 % 1026,0 hPa 0,0 l/m 12,7 km/h (3 Bft) W 269 0 min 0,000 mm 1,0 UV-I 142 W/m 8,3 C 7,7 C 16,1 km/h (3 Bft) 94,00 %
24.10.2017 13:38 11,3 C 10,6 C 82 % 1026,0 hPa 0,0 l/m 11,5 km/h (2 Bft) W-SW 258 0 min 0,000 mm 1,0 UV-I 129 W/m 8,3 C 8,3 C 17,7 km/h (3 Bft) 95,24 %
24.10.2017 13:40 11,2 C 10,6 C 82 % 1026,0 hPa 0,0 l/m 11,1 km/h (2 Bft) W-SW 249 0 min 0,000 mm 0,9 UV-I 124 W/m 8,2 C 8,3 C 19,3 km/h (3 Bft) 97,73 %
24.10.2017 13:42 11,2 C 10,6 C 82 % 1025,9 hPa 0,0 l/m 9,5 km/h (2 Bft) W-SW 248 0 min 0,000 mm 0,8 UV-I 128 W/m 8,2 C 9,2 C 14,5 km/h (3 Bft) 98,11 %
24.10.2017 13:44 11,2 C 10,6 C 82 % 1025,9 hPa 0,0 l/m 13,1 km/h (3 Bft) W 275 0 min 0,000 mm 0,8 UV-I 135 W/m 8,2 C 7,4 C 16,1 km/h (3 Bft) 97,73 %
24.10.2017 13:46 11,2 C 10,6 C 81 % 1025,9 hPa 0,0 l/m 11,0 km/h (2 Bft) W-SW 257 0 min 0,000 mm 0,7 UV-I 139 W/m 8,1 C 8,4 C 16,1 km/h (3 Bft) 98,11 %
24.10.2017 13:48 11,2 C 10,6 C 81 % 1025,9 hPa 0,0 l/m 11,1 km/h (2 Bft) W-SW 240 0 min 0,000 mm 0,7 UV-I 141 W/m 8,1 C 8,3 C 17,7 km/h (3 Bft) 97,37 %
24.10.2017 13:50 11,2 C 10,6 C 81 % 1025,8 hPa 0,0 l/m 10,4 km/h (2 Bft) W-SW 251 0 min 0,000 mm 0,7 UV-I 150 W/m 8,1 C 8,7 C 16,1 km/h (3 Bft) 97,87 %
24.10.2017 13:52 11,2 C 10,6 C 82 % 1025,8 hPa 0,0 l/m 8,4 km/h (2 Bft) W 276 0 min 0,000 mm 0,7 UV-I 157 W/m 8,2 C 9,9 C 14,5 km/h (3 Bft) 98,21 %
24.10.2017 13:54 11,2 C 10,6 C 82 % 1025,8 hPa 0,0 l/m 7,6 km/h (2 Bft) W-SW 245 0 min 0,000 mm 0,7 UV-I 164 W/m 8,2 C 10,4 C 16,1 km/h (3 Bft) 97,56 %
24.10.2017 13:56 11,2 C 10,6 C 82 % 1025,8 hPa 0,0 l/m 10,0 km/h (2 Bft) W-SW 254 0 min 0,000 mm 0,8 UV-I 173 W/m 8,2 C 8,9 C 16,1 km/h (3 Bft) 97,56 %
24.10.2017 13:58 11,3 C 10,6 C 82 % 1025,7 hPa 0,0 l/m 8,6 km/h (2 Bft) W 263 0 min 0,000 mm 0,8 UV-I 187 W/m 8,3 C 9,8 C 14,5 km/h (3 Bft) 98,11 %
24.10.2017 14:00 11,3 C 10,6 C 82 % 1025,7 hPa 0,0 l/m 5,2 km/h (1 Bft) SW 219 0 min 0,102 mm 0,8 UV-I 183 W/m 8,3 C 11,3 C 6,4 km/h (2 Bft) 96,23 %
24.10.2017 14:02 11,3 C 10,6 C 81 % 1025,7 hPa 0,0 l/m 6,4 km/h (2 Bft) W 275 0 min 0,000 mm 0,7 UV-I 174 W/m 8,2 C 11,3 C 11,3 km/h (2 Bft) 97,87 %
24.10.2017 14:04 11,4 C 10,6 C 81 % 1025,8 hPa 0,0 l/m 4,9 km/h (1 Bft) W-SW 254 0 min 0,000 mm 0,8 UV-I 180 W/m 8,3 C 11,4 C 8,0 km/h (2 Bft) 97,56 %
24.10.2017 14:06 11,4 C 10,6 C 81 % 1025,7 hPa 0,0 l/m 6,2 km/h (2 Bft) W-SW 246 0 min 0,000 mm 0,8 UV-I 175 W/m 8,3 C 11,4 C 11,3 km/h (2 Bft) 95,45 %
24.10.2017 14:08 11,4 C 10,6 C 81 % 1025,7 hPa 0,0 l/m 6,4 km/h (2 Bft) W-NW 293 0 min 0,000 mm 0,7 UV-I 163 W/m 8,3 C 11,4 C 11,3 km/h (2 Bft) 98,00 %
24.10.2017 14:10 11,4 C 10,6 C 81 % 1025,7 hPa 0,0 l/m 5,3 km/h (1 Bft) W-SW 255 0 min 0,000 mm 0,6 UV-I 147 W/m 8,3 C 11,4 C 11,3 km/h (2 Bft) 98,00 %
24.10.2017 14:12 11,4 C 10,6 C 81 % 1025,7 hPa 0,0 l/m 6,3 km/h (2 Bft) W-SW 249 0 min 0,000 mm 0,5 UV-I 130 W/m 8,3 C 11,4 C 9,7 km/h (2 Bft) 98,00 %
24.10.2017 14:14 11,4 C 10,6 C 81 % 1025,7 hPa 0,0 l/m 7,2 km/h (2 Bft) W 267 0 min 0,000 mm 0,4 UV-I 118 W/m 8,3 C 10,9 C 11,3 km/h (2 Bft) 97,56 %
24.10.2017 14:16 11,4 C 10,6 C 81 % 1025,7 hPa 0,0 l/m 5,4 km/h (1 Bft) W-SW 248 0 min 0,000 mm 0,0 UV-I 95 W/m 8,3 C 11,4 C 12,9 km/h (3 Bft) 97,92 %
24.10.2017 14:18 11,4 C 10,6 C 81 % 1025,8 hPa 0,0 l/m 6,8 km/h (2 Bft) W-SW 257 0 min 0,000 mm 0,0 UV-I 86 W/m 8,3 C 11,1 C 11,3 km/h (2 Bft) 97,96 %
24.10.2017 14:20 11,3 C 10,6 C 82 % 1025,7 hPa 0,0 l/m 4,6 km/h (1 Bft) W-SW 257 0 min 0,000 mm 0,0 UV-I 81 W/m 8,3 C 11,3 C 12,9 km/h (3 Bft) 94,87 %
24.10.2017 14:22 11,3 C 10,6 C 81 % 1025,7 hPa 0,0 l/m 7,2 km/h (2 Bft) W-SW 252 0 min 0,000 mm 0,0 UV-I 77 W/m 8,2 C 10,8 C 12,9 km/h (3 Bft) 96,43 %
24.10.2017 14:24 11,3 C 10,6 C 82 % 1025,7 hPa 0,0 l/m 4,5 km/h (1 Bft) NW 320 0 min 0,000 mm 0,0 UV-I 80 W/m 8,3 C 11,3 C 6,4 km/h (2 Bft) 97,87 %
24.10.2017 14:26 11,3 C 10,6 C 81 % 1025,7 hPa 0,0 l/m 6,0 km/h (2 Bft) W-SW 252 0 min 0,000 mm 0,0 UV-I 83 W/m 8,2 C 11,3 C 11,3 km/h (2 Bft) 97,73 %
24.10.2017 14:28 11,2 C 10,6 C 81 % 1025,7 hPa 0,0 l/m 4,6 km/h (1 Bft) W-NW 294 0 min 0,000 mm 0,0 UV-I 78 W/m 8,1 C 11,2 C 6,4 km/h (2 Bft) 98,00 %
24.10.2017 14:30 11,2 C 10,6 C 81 % 1025,7 hPa 0,0 l/m 6,1 km/h (2 Bft) W 270 0 min 0,000 mm 0,0 UV-I 75 W/m 8,1 C 11,2 C 11,3 km/h (2 Bft) 97,87 %
24.10.2017 14:32 11,2 C 10,6 C 81 % 1025,7 hPa 0,0 l/m 4,3 km/h (1 Bft) W 281 0 min 0,000 mm 0,0 UV-I 74 W/m 8,1 C 11,2 C 6,4 km/h (2 Bft) 97,73 %
24.10.2017 14:34 11,2 C 10,6 C 81 % 1025,8 hPa 0,0 l/m 5,6 km/h (1 Bft) W-SW 247 0 min 0,000 mm 0,0 UV-I 67 W/m 8,1 C 11,2 C 8,0 km/h (2 Bft) 98,00 %
24.10.2017 14:36 11,2 C 10,6 C 82 % 1025,7 hPa 0,0 l/m 6,2 km/h (2 Bft) W 262 0 min 0,000 mm 0,0 UV-I 58 W/m 8,2 C 11,2 C 11,3 km/h (2 Bft) 100,00 %
24.10.2017 14:38 11,2 C 10,6 C 82 % 1025,8 hPa 0,0 l/m 6,4 km/h (2 Bft) W-SW 254 0 min 0,000 mm 0,0 UV-I 59 W/m 8,2 C 11,2 C 11,3 km/h (2 Bft) 98,11 %
24.10.2017 14:40 11,2 C 10,6 C 82 % 1025,7 hPa 0,0 l/m 6,1 km/h (2 Bft) W 277 0 min 0,000 mm 0,0 UV-I 66 W/m 8,2 C 11,2 C 11,3 km/h (2 Bft) 100,00 %
24.10.2017 14:42 11,2 C 10,6 C 82 % 1025,6 hPa 0,0 l/m 4,7 km/h (1 Bft) W-SW 254 0 min 0,000 mm 0,0 UV-I 73 W/m 8,2 C 11,2 C 9,7 km/h (2 Bft) 100,00 %
24.10.2017 14:44 11,2 C 10,6 C 82 % 1025,7 hPa 0,0 l/m 6,2 km/h (2 Bft) W-NW 284 0 min 0,000 mm 0,0 UV-I 78 W/m 8,2 C 11,2 C 11,3 km/h (2 Bft) 100,00 %
24.10.2017 14:46 11,2 C 10,6 C 82 % 1025,6 hPa 0,0 l/m 7,6 km/h (2 Bft) W-SW 242 0 min 0,000 mm 0,0 UV-I 84 W/m 8,2 C 10,4 C 12,9 km/h (3 Bft) 96,00 %
24.10.2017 14:48 11,1 C 10,6 C 82 % 1025,6 hPa 0,0 l/m 5,3 km/h (1 Bft) W 262 0 min 0,000 mm 0,0 UV-I 88 W/m 8,1 C 11,1 C 9,7 km/h (2 Bft) 97,37 %
24.10.2017 14:50 11,1 C 10,6 C 82 % 1025,6 hPa 0,0 l/m 7,1 km/h (2 Bft) W 260 0 min 0,000 mm 0,0 UV-I 90 W/m 8,1 C 10,6 C 11,3 km/h (2 Bft) 98,21 %
24.10.2017 14:52 11,2 C 10,6 C 82 % 1025,6 hPa 0,0 l/m 5,6 km/h (1 Bft) W 277 0 min 0,000 mm 0,0 UV-I 86 W/m 8,2 C 11,2 C 9,7 km/h (2 Bft) 97,73 %
24.10.2017 14:54 11,1 C 10,6 C 82 % 1025,6 hPa 0,0 l/m 3,7 km/h (1 Bft) W 277 0 min 0,000 mm 0,0 UV-I 79 W/m 8,1 C 11,1 C 6,4 km/h (2 Bft) 98,00 %
24.10.2017 14:56 11,2 C 10,6 C 83 % 1025,5 hPa 0,0 l/m 4,1 km/h (1 Bft) W 259 0 min 0,000 mm 0,0 UV-I 77 W/m 8,4 C 11,2 C 4,8 km/h (1 Bft) 97,87 %
24.10.2017 14:58 11,2 C 10,6 C 83 % 1025,5 hPa 0,0 l/m 4,4 km/h (1 Bft) W 261 0 min 0,000 mm 0,0 UV-I 81 W/m 8,4 C 11,2 C 6,4 km/h (2 Bft) 96,97 %
24.10.2017 15:00 11,2 C 10,6 C 82 % 1025,5 hPa 0,0 l/m 6,0 km/h (2 Bft) W 263 0 min 0,000 mm 0,0 UV-I 91 W/m 8,2 C 11,2 C 9,7 km/h (2 Bft) 98,39 %
24.10.2017 15:02 11,2 C 10,6 C 82 % 1025,5 hPa 0,0 l/m 4,6 km/h (1 Bft) W 261 0 min 0,051 mm 0,0 UV-I 104 W/m 8,2 C 11,2 C 6,4 km/h (2 Bft) 97,62 %
24.10.2017 15:04 11,2 C 10,6 C 83 % 1025,4 hPa 0,0 l/m 3,9 km/h (1 Bft) W-NW 288 0 min 0,000 mm 0,0 UV-I 112 W/m 8,4 C 11,2 C 6,4 km/h (2 Bft) 95,12 %
24.10.2017 15:06 11,2 C 10,6 C 82 % 1025,4 hPa 0,0 l/m 4,0 km/h (1 Bft) W-SW 255 0 min 0,000 mm 0,0 UV-I 106 W/m 8,2 C 11,2 C 6,4 km/h (2 Bft) 94,34 %
24.10.2017 15:08 11,2 C 10,6 C 83 % 1025,4 hPa 0,0 l/m 3,8 km/h (1 Bft) NW 309 0 min 0,000 mm 0,0 UV-I 104 W/m 8,4 C 11,2 C 6,4 km/h (2 Bft) 97,56 %
24.10.2017 15:10 11,3 C 10,6 C 83 % 1025,4 hPa 0,0 l/m 2,2 km/h (1 Bft) NW 307 0 min 0,000 mm 0,0 UV-I 92 W/m 8,5 C 11,3 C 4,8 km/h (1 Bft) 98,11 %
24.10.2017 15:12 11,3 C 10,6 C 83 % 1025,4 hPa 0,0 l/m 2,8 km/h (1 Bft) W 276 0 min 0,000 mm 0,0 UV-I 83 W/m 8,5 C 11,3 C 6,4 km/h (2 Bft) 97,87 %
24.10.2017 15:14 11,3 C 10,6 C 83 % 1025,4 hPa 0,0 l/m 2,1 km/h (1 Bft) W 276 0 min 0,000 mm 0,0 UV-I 84 W/m 8,5 C 11,3 C 3,2 km/h (1 Bft) 93,62 %
24.10.2017 15:16 11,3 C 10,6 C 83 % 1025,4 hPa 0,0 l/m 4,2 km/h (1 Bft) W 271 0 min 0,000 mm 0,0 UV-I 84 W/m 8,5 C 11,3 C 6,4 km/h (2 Bft) 97,87 %
24.10.2017 15:18 11,3 C 10,6 C 83 % 1025,4 hPa 0,0 l/m 4,0 km/h (1 Bft) W 259 0 min 0,000 mm 0,0 UV-I 84 W/m 8,5 C 11,3 C 4,8 km/h (1 Bft) 94,00 %
24.10.2017 15:20 11,3 C 10,6 C 82 % 1025,3 hPa 0,0 l/m 4,2 km/h (1 Bft) W 259 0 min 0,000 mm 0,0 UV-I 86 W/m 8,3 C 11,3 C 6,4 km/h (2 Bft) 100,00 %
24.10.2017 15:22 11,3 C 10,6 C 82 % 1025,3 hPa 0,0 l/m 2,6 km/h (1 Bft) W 259 0 min 0,000 mm 0,0 UV-I 86 W/m 8,3 C 11,3 C 4,8 km/h (1 Bft) 98,00 %
24.10.2017 15:24 11,3 C 10,6 C 83 % 1025,3 hPa 0,0 l/m 0,6 km/h (0 Bft) W 259 0 min 0,000 mm 0,0 UV-I 85 W/m 8,5 C 11,3 C 3,2 km/h (1 Bft) 100,00 %
24.10.2017 15:26 11,3 C 10,6 C 83 % 1025,3 hPa 0,0 l/m 2,5 km/h (1 Bft) W 259 0 min 0,000 mm 0,0 UV-I 94 W/m 8,5 C 11,3 C 4,8 km/h (1 Bft) 97,56 %
24.10.2017 15:28 11,3 C 10,6 C 83 % 1025,3 hPa 0,0 l/m 2,6 km/h (1 Bft) W 259 0 min 0,000 mm 0,0 UV-I 113 W/m 8,5 C 11,3 C 3,2 km/h (1 Bft) 95,74 %
24.10.2017 15:30 11,4 C 10,6 C 83 % 1025,3 hPa 0,0 l/m 3,1 km/h (1 Bft) W-SW 243 0 min 0,000 mm 0,0 UV-I 125 W/m 8,6 C 11,4 C 6,4 km/h (2 Bft) 100,00 %
24.10.2017 15:32 11,4 C 10,6 C 82 % 1025,3 hPa 0,0 l/m 4,0 km/h (1 Bft) W-SW 248 0 min 0,000 mm 0,0 UV-I 110 W/m 8,4 C 11,4 C 8,0 km/h (2 Bft) 100,00 %
24.10.2017 15:34 11,4 C 10,6 C 83 % 1025,3 hPa 0,0 l/m 4,0 km/h (1 Bft) W 259 0 min 0,000 mm 0,0 UV-I 103 W/m 8,6 C 11,4 C 6,4 km/h (2 Bft) 100,00 %
24.10.2017 15:36 11,4 C 10,6 C 82 % 1025,3 hPa 0,0 l/m 3,0 km/h (1 Bft) W 259 0 min 0,000 mm 0,0 UV-I 101 W/m 8,4 C 11,4 C 4,8 km/h (1 Bft) 100,00 %
24.10.2017 15:38 11,5 C 10,6 C 83 % 1025,3 hPa 0,0 l/m 1,4 km/h (1 Bft) W 259 0 min 0,000 mm 0,0 UV-I 93 W/m 8,7 C 11,5 C 3,2 km/h (1 Bft) 100,00 %
24.10.2017 15:40 11,5 C 10,6 C 82 % 1025,3 hPa 0,0 l/m 2,7 km/h (1 Bft) W-SW 248 0 min 0,000 mm 0,0 UV-I 101 W/m 8,5 C 11,5 C 6,4 km/h (2 Bft) 100,00 %
24.10.2017 15:42 11,5 C 10,6 C 82 % 1025,3 hPa 0,0 l/m 4,3 km/h (1 Bft) W 275 0 min 0,000 mm 0,0 UV-I 101 W/m 8,5 C 11,5 C 6,4 km/h (2 Bft) 100,00 %
24.10.2017 15:44 11,5 C 10,6 C 82 % 1025,4 hPa 0,0 l/m 3,7 km/h (1 Bft) W 275 0 min 0,000 mm 0,0 UV-I 99 W/m 8,5 C 11,5 C 4,8 km/h (1 Bft) 97,37 %
24.10.2017 15:46 11,5 C 10,6 C 82 % 1025,4 hPa 0,0 l/m 3,3 km/h (1 Bft) W 272 0 min 0,000 mm 0,0 UV-I 108 W/m 8,5 C 11,5 C 4,8 km/h (1 Bft) 98,11 %
24.10.2017 15:48 11,5 C 10,6 C 81 % 1025,4 hPa 0,0 l/m 4,5 km/h (1 Bft) W-SW 250 0 min 0,000 mm 0,0 UV-I 110 W/m 8,4 C 11,5 C 6,4 km/h (2 Bft) 97,87 %
24.10.2017 15:50 11,5 C 10,6 C 81 % 1025,3 hPa 0,0 l/m 4,1 km/h (1 Bft) W-SW 250 0 min 0,000 mm 0,0 UV-I 106 W/m 8,4 C 11,5 C 6,4 km/h (2 Bft) 97,87 %
24.10.2017 15:52 11,6 C 10,6 C 81 % 1025,3 hPa 0,0 l/m 2,6 km/h (1 Bft) W-SW 250 0 min 0,000 mm 0,0 UV-I 104 W/m 8,5 C 11,6 C 4,8 km/h (1 Bft) 100,00 %
24.10.2017 15:54 11,6 C 10,6 C 81 % 1025,2 hPa 0,0 l/m 3,6 km/h (1 Bft) W 262 0 min 0,000 mm 0,0 UV-I 108 W/m 8,5 C 11,6 C 6,4 km/h (2 Bft) 97,87 %
24.10.2017 15:56 11,6 C 10,6 C 81 % 1025,2 hPa 0,0 l/m 3,0 km/h (1 Bft) W 267 0 min 0,000 mm 0,0 UV-I 115 W/m 8,5 C 11,6 C 4,8 km/h (1 Bft) 100,00 %
24.10.2017 15:58 11,6 C 10,6 C 81 % 1025,2 hPa 0,0 l/m 3,5 km/h (1 Bft) W 259 0 min 0,000 mm 0,0 UV-I 117 W/m 8,5 C 11,6 C 6,4 km/h (2 Bft) 100,00 %
24.10.2017 16:00 11,6 C 10,6 C 81 % 1025,2 hPa 0,0 l/m 4,6 km/h (1 Bft) W-NW 284 0 min 0,050 mm 0,0 UV-I 115 W/m 8,5 C 11,6 C 9,7 km/h (2 Bft) 100,00 %
24.10.2017 16:02 11,6 C 10,6 C 81 % 1025,2 hPa 0,0 l/m 4,2 km/h (1 Bft) W 266 0 min 0,000 mm 0,0 UV-I 126 W/m 8,5 C 11,6 C 6,4 km/h (2 Bft) 100,00 %
24.10.2017 16:04 11,7 C 10,6 C 81 % 1025,2 hPa 0,0 l/m 4,0 km/h (1 Bft) W-SW 245 2 min 0,000 mm 0,0 UV-I 154 W/m 8,5 C 11,7 C 6,4 km/h (2 Bft) 100,00 %
24.10.2017 16:06 11,7 C 10,6 C 81 % 1025,2 hPa 0,0 l/m 3,2 km/h (1 Bft) W 265 0 min 0,000 mm 0,0 UV-I 136 W/m 8,5 C 11,7 C 4,8 km/h (1 Bft) 100,00 %
24.10.2017 16:08 11,7 C 10,6 C 82 % 1025,2 hPa 0,0 l/m 4,5 km/h (1 Bft) SW 227 0 min 0,000 mm 0,0 UV-I 123 W/m 8,7 C 11,7 C 8,0 km/h (2 Bft) 100,00 %
24.10.2017 16:10 11,8 C 10,6 C 81 % 1025,2 hPa 0,0 l/m 4,3 km/h (1 Bft) W 264 0 min 0,000 mm 0,0 UV-I 120 W/m 8,6 C 11,8 C 6,4 km/h (2 Bft) 100,00 %
24.10.2017 16:12 11,8 C 10,6 C 82 % 1025,2 hPa 0,0 l/m 3,0 km/h (1 Bft) W 265 0 min 0,000 mm 0,0 UV-I 115 W/m 8,8 C 11,8 C 4,8 km/h (1 Bft) 100,00 %
24.10.2017 16:14 11,8 C 10,6 C 82 % 1025,3 hPa 0,0 l/m 2,7 km/h (1 Bft) W 265 0 min 0,000 mm 0,0 UV-I 109 W/m 8,8 C 11,8 C 4,8 km/h (1 Bft) 100,00 %
24.10.2017 16:16 11,8 C 10,6 C 82 % 1025,3 hPa 0,0 l/m 3,0 km/h (1 Bft) W 265 0 min 0,000 mm 0,0 UV-I 104 W/m 8,8 C 11,8 C 4,8 km/h (1 Bft) 100,00 %
24.10.2017 16:18 11,8 C 10,6 C 81 % 1025,3 hPa 0,0 l/m 5,0 km/h (1 Bft) W-SW 244 0 min 0,000 mm 0,0 UV-I 95 W/m 8,6 C 11,8 C 8,0 km/h (2 Bft) 100,00 %
24.10.2017 16:20 11,8 C 10,6 C 81 % 1025,3 hPa 0,0 l/m 8,2 km/h (2 Bft) W 262 0 min 0,000 mm 0,0 UV-I 87 W/m 8,6 C 10,6 C 12,9 km/h (3 Bft) 100,00 %
24.10.2017 16:22 11,8 C 10,6 C 81 % 1025,4 hPa 0,0 l/m 8,1 km/h (2 Bft) W 259 0 min 0,000 mm 0,0 UV-I 80 W/m 8,6 C 10,7 C 11,3 km/h (2 Bft) 100,00 %
24.10.2017 16:24 11,8 C 10,6 C 81 % 1025,4 hPa 0,0 l/m 6,8 km/h (2 Bft) W-SW 254 0 min 0,000 mm 0,0 UV-I 72 W/m 8,6 C 11,5 C 11,3 km/h (2 Bft) 100,00 %
24.10.2017 16:26 11,7 C 10,6 C 81 % 1025,4 hPa 0,0 l/m 4,8 km/h (1 Bft) W-NW 291 0 min 0,000 mm 0,0 UV-I 64 W/m 8,5 C 11,7 C 9,7 km/h (2 Bft) 97,14 %
24.10.2017 16:28 11,7 C 10,6 C 81 % 1025,4 hPa 0,0 l/m 5,3 km/h (1 Bft) W-SW 242 0 min 0,000 mm 0,0 UV-I 57 W/m 8,5 C 11,7 C 9,7 km/h (2 Bft) 100,00 %
24.10.2017 16:30 11,7 C 10,6 C 81 % 1025,4 hPa 0,0 l/m 4,1 km/h (1 Bft) W 263 0 min 0,000 mm 0,0 UV-I 55 W/m 8,5 C 11,7 C 6,4 km/h (2 Bft) 100,00 %
24.10.2017 16:32 11,7 C 10,6 C 82 % 1025,5 hPa 0,0 l/m 5,2 km/h (1 Bft) W-NW 292 0 min 0,000 mm 0,0 UV-I 54 W/m 8,7 C 11,7 C 11,3 km/h (2 Bft) 98,21 %
24.10.2017 16:34 11,7 C 10,6 C 81 % 1025,5 hPa 0,0 l/m 4,3 km/h (1 Bft) W 267 0 min 0,000 mm 0,0 UV-I 56 W/m 8,5 C 11,7 C 6,4 km/h (2 Bft) 100,00 %
24.10.2017 16:36 11,7 C 10,6 C 82 % 1025,5 hPa 0,0 l/m 6,2 km/h (2 Bft) W-SW 250 0 min 0,000 mm 0,0 UV-I 53 W/m 8,7 C 11,7 C 11,3 km/h (2 Bft) 100,00 %
24.10.2017 16:38 11,6 C 10,6 C 81 % 1025,5 hPa 0,0 l/m 5,4 km/h (1 Bft) W-SW 258 0 min 0,000 mm 0,0 UV-I 38 W/m 8,5 C 11,6 C 11,3 km/h (2 Bft) 100,00 %
24.10.2017 16:40 11,6 C 10,6 C 81 % 1025,5 hPa 0,0 l/m 5,6 km/h (1 Bft) W 267 0 min 0,000 mm 0,0 UV-I 32 W/m 8,5 C 11,6 C 9,7 km/h (2 Bft) 100,00 %
24.10.2017 16:42 11,6 C 10,6 C 82 % 1025,6 hPa 0,0 l/m 5,3 km/h (1 Bft) W 275 0 min 0,000 mm 0,0 UV-I 28 W/m 8,6 C 11,6 C 9,7 km/h (2 Bft) 100,00 %
24.10.2017 16:44 11,6 C 10,6 C 82 % 1025,6 hPa 0,0 l/m 7,1 km/h (2 Bft) W-SW 250 0 min 0,000 mm 0,0 UV-I 25 W/m 8,6 C 11,1 C 11,3 km/h (2 Bft) 100,00 %
24.10.2017 16:46 11,6 C 10,6 C 81 % 1025,6 hPa 0,0 l/m 4,9 km/h (1 Bft) W-SW 257 0 min 0,000 mm 0,0 UV-I 22 W/m 8,5 C 11,6 C 11,3 km/h (2 Bft) 100,00 %
24.10.2017 16:48 11,5 C 10,6 C 82 % 1025,7 hPa 0,0 l/m 2,5 km/h (1 Bft) W 261 0 min 0,000 mm 0,0 UV-I 20 W/m 8,5 C 11,5 C 4,8 km/h (1 Bft) 98,11 %
24.10.2017 16:50 11,5 C 10,6 C 82 % 1025,6 hPa 0,0 l/m 3,0 km/h (1 Bft) W-SW 248 0 min 0,000 mm 0,0 UV-I 20 W/m 8,5 C 11,5 C 4,8 km/h (1 Bft) 100,00 %
24.10.2017 16:52 11,4 C 10,6 C 82 % 1025,7 hPa 0,0 l/m 4,0 km/h (1 Bft) W 263 0 min 0,000 mm 0,0 UV-I 21 W/m 8,4 C 11,4 C 6,4 km/h (2 Bft) 96,88 %
24.10.2017 16:54 11,4 C 10,6 C 83 % 1025,6 hPa 0,0 l/m 3,8 km/h (1 Bft) W 263 0 min 0,000 mm 0,0 UV-I 19 W/m 8,6 C 11,4 C 4,8 km/h (1 Bft) 97,44 %
24.10.2017 16:56 11,4 C 10,6 C 83 % 1025,6 hPa 0,0 l/m 3,6 km/h (1 Bft) W 263 0 min 0,000 mm 0,0 UV-I 14 W/m 8,6 C 11,4 C 4,8 km/h (1 Bft) 97,37 %
24.10.2017 16:58 11,4 C 10,6 C 82 % 1025,7 hPa 0,0 l/m 4,7 km/h (1 Bft) W 260 0 min 0,000 mm 0,0 UV-I 12 W/m 8,4 C 11,4 C 6,4 km/h (2 Bft) 96,43 %
24.10.2017 17:00 11,3 C 10,6 C 83 % 1025,7 hPa 0,0 l/m 2,4 km/h (1 Bft) W 260 0 min 0,051 mm 0,0 UV-I 9 W/m 8,5 C 11,3 C 3,2 km/h (1 Bft) 98,11 %
24.10.2017 17:02 11,3 C 10,6 C 83 % 1025,7 hPa 0,0 l/m 1,7 km/h (1 Bft) W 261 0 min 0,000 mm 0,0 UV-I 10 W/m 8,5 C 11,3 C 3,2 km/h (1 Bft) 97,87 %
24.10.2017 17:04 11,3 C 10,6 C 84 % 1025,7 hPa 0,0 l/m 0,6 km/h (0 Bft) W 261 0 min 0,000 mm 0,0 UV-I 12 W/m 8,7 C 11,3 C 3,2 km/h (1 Bft) 96,00 %
24.10.2017 17:06 11,2 C 10,6 C 84 % 1025,6 hPa 0,0 l/m 2,8 km/h (1 Bft) W 261 0 min 0,000 mm 0,0 UV-I 15 W/m 8,6 C 11,2 C 4,8 km/h (1 Bft) 97,37 %
24.10.2017 17:08 11,2 C 10,6 C 84 % 1025,7 hPa 0,0 l/m 3,7 km/h (1 Bft) W 261 0 min 0,000 mm 0,0 UV-I 17 W/m 8,6 C 11,2 C 4,8 km/h (1 Bft) 94,00 %
24.10.2017 17:10 11,2 C 10,6 C 84 % 1025,7 hPa 0,0 l/m 3,7 km/h (1 Bft) W 267 0 min 0,000 mm 0,0 UV-I 18 W/m 8,6 C 11,2 C 6,4 km/h (2 Bft) 96,23 %
24.10.2017 17:12 11,2 C 10,6 C 84 % 1025,7 hPa 0,0 l/m 4,6 km/h (1 Bft) W-SW 252 0 min 0,000 mm 0,0 UV-I 19 W/m 8,6 C 11,2 C 6,4 km/h (2 Bft) 97,87 %
24.10.2017 17:14 11,2 C 10,6 C 84 % 1025,7 hPa 0,0 l/m 3,1 km/h (1 Bft) W-SW 252 0 min 0,000 mm 0,0 UV-I 19 W/m 8,6 C 11,2 C 4,8 km/h (1 Bft) 97,14 %
24.10.2017 17:16 11,2 C 10,6 C 83 % 1025,7 hPa 0,0 l/m 4,3 km/h (1 Bft) W 267 0 min 0,000 mm 0,0 UV-I 21 W/m 8,4 C 11,2 C 6,4 km/h (2 Bft) 98,21 %
24.10.2017 17:18 11,2 C 10,6 C 83 % 1025,7 hPa 0,0 l/m 3,8 km/h (1 Bft) W 266 0 min 0,000 mm 0,0 UV-I 19 W/m 8,4 C 11,2 C 6,4 km/h (2 Bft) 97,14 %
24.10.2017 17:20 11,2 C 10,6 C 84 % 1025,7 hPa 0,0 l/m 3,6 km/h (1 Bft) W 266 0 min 0,000 mm 0,0 UV-I 18 W/m 8,6 C 11,2 C 4,8 km/h (1 Bft) 98,11 %
24.10.2017 17:22 11,1 C 10,6 C 84 % 1025,7 hPa 0,0 l/m 3,1 km/h (1 Bft) W 266 0 min 0,000 mm 0,0 UV-I 16 W/m 8,5 C 11,1 C 4,8 km/h (1 Bft) 100,00 %
24.10.2017 17:24 11,1 C 10,6 C 84 % 1025,6 hPa 0,0 l/m 3,4 km/h (1 Bft) W 265 0 min 0,000 mm 0,0 UV-I 14 W/m 8,5 C 11,1 C 4,8 km/h (1 Bft) 98,00 %
24.10.2017 17:26 11,1 C 10,6 C 84 % 1025,6 hPa 0,0 l/m 2,9 km/h (1 Bft) W 265 0 min 0,000 mm 0,0 UV-I 14 W/m 8,5 C 11,1 C 4,8 km/h (1 Bft) 100,00 %
24.10.2017 17:28 11,0 C 10,6 C 84 % 1025,6 hPa 0,0 l/m 2,9 km/h (1 Bft) W 265 0 min 0,000 mm 0,0 UV-I 14 W/m 8,4 C 11,0 C 4,8 km/h (1 Bft) 94,74 %
24.10.2017 17:30 11,0 C 10,6 C 85 % 1025,6 hPa 0,0 l/m 3,0 km/h (1 Bft) W 265 0 min 0,000 mm 0,0 UV-I 14 W/m 8,6 C 11,0 C 4,8 km/h (1 Bft) 98,44 %
24.10.2017 17:32 10,9 C 10,6 C 85 % 1025,6 hPa 0,0 l/m 2,8 km/h (1 Bft) W 265 0 min 0,000 mm 0,0 UV-I 12 W/m 8,5 C 10,9 C 4,8 km/h (1 Bft) 97,62 %
24.10.2017 17:34 10,9 C 10,6 C 85 % 1025,7 hPa 0,0 l/m 3,5 km/h (1 Bft) W 265 0 min 0,000 mm 0,0 UV-I 12 W/m 8,5 C 10,9 C 4,8 km/h (1 Bft) 97,56 %
24.10.2017 17:36 10,9 C 10,6 C 85 % 1025,7 hPa 0,0 l/m 3,1 km/h (1 Bft) W 265 0 min 0,000 mm 0,0 UV-I 12 W/m 8,5 C 10,9 C 4,8 km/h (1 Bft) 96,23 %
24.10.2017 17:38 10,9 C 10,6 C 85 % 1025,7 hPa 0,0 l/m 2,1 km/h (1 Bft) W 265 0 min 0,000 mm 0,0 UV-I 11 W/m 8,5 C 10,9 C 3,2 km/h (1 Bft) 97,87 %
24.10.2017 17:40 10,8 C 10,6 C 85 % 1025,6 hPa 0,0 l/m 2,1 km/h (1 Bft) W 265 0 min 0,000 mm 0,0 UV-I 11 W/m 8,4 C 10,8 C 3,2 km/h (1 Bft) 95,74 %
24.10.2017 17:42 10,8 C 10,6 C 85 % 1025,6 hPa 0,0 l/m 0,1 km/h (0 Bft) W 265 0 min 0,000 mm 0,0 UV-I 11 W/m 8,4 C 10,8 C 1,6 km/h (1 Bft) 97,73 %
24.10.2017 17:44 10,8 C 10,6 C 86 % 1025,6 hPa 0,0 l/m 0,7 km/h (0 Bft) W 265 0 min 0,000 mm 0,0 UV-I 10 W/m 8,6 C 10,8 C 3,2 km/h (1 Bft) 97,87 %
24.10.2017 17:46 10,8 C 10,6 C 86 % 1025,7 hPa 0,0 l/m 1,2 km/h (1 Bft) W 265 0 min 0,000 mm 0,0 UV-I 9 W/m 8,6 C 10,8 C 3,2 km/h (1 Bft) 98,21 %
24.10.2017 17:48 10,7 C 10,6 C 87 % 1025,6 hPa 0,0 l/m 0,1 km/h (0 Bft) W 265 0 min 0,000 mm 0,0 UV-I 9 W/m 8,6 C 10,7 C 1,6 km/h (1 Bft) 97,87 %
24.10.2017 17:50 10,7 C 10,6 C 87 % 1025,7 hPa 0,0 l/m 0,3 km/h (0 Bft) W 265 0 min 0,000 mm 0,0 UV-I 7 W/m 8,6 C 10,7 C 1,6 km/h (1 Bft) 95,74 %
24.10.2017 17:52 10,7 C 10,6 C 87 % 1025,7 hPa 0,0 l/m 0,0 km/h (0 Bft) W 265 0 min 0,000 mm 0,0 UV-I 7 W/m 8,6 C 10,7 C 0,0 km/h (0 Bft) 97,37 %
24.10.2017 17:54 10,6 C 10,6 C 88 % 1025,6 hPa 0,0 l/m 0,1 km/h (0 Bft) W 265 0 min 0,000 mm 0,0 UV-I 7 W/m 8,7 C 10,6 C 1,6 km/h (1 Bft) 97,87 %
24.10.2017 17:56 10,6 C 10,6 C 88 % 1025,6 hPa 0,0 l/m 0,4 km/h (0 Bft) W 265 0 min 0,000 mm 0,0 UV-I 7 W/m 8,7 C 10,6 C 3,2 km/h (1 Bft) 96,00 %
24.10.2017 17:58 10,6 C 10,6 C 89 % 1025,6 hPa 0,0 l/m 2,5 km/h (1 Bft) S-SO 153 0 min 0,000 mm 0,0 UV-I 7 W/m 8,9 C 10,6 C 4,8 km/h (1 Bft) 96,00 %
24.10.2017 18:00 10,5 C 10,6 C 89 % 1025,6 hPa 0,0 l/m 2,6 km/h (1 Bft) S-SO 153 0 min 0,000 mm 0,0 UV-I 5 W/m 8,8 C 10,5 C 4,8 km/h (1 Bft) 97,87 %
24.10.2017 18:02 10,4 C 10,6 C 89 % 1025,7 hPa 0,0 l/m 0,0 km/h (0 Bft) S-SO 153 0 min 0,000 mm 0,0 UV-I 5 W/m 8,7 C 10,4 C 0,0 km/h (0 Bft) 97,87 %
24.10.2017 18:04 10,3 C 10,6 C 89 % 1025,7 hPa 0,0 l/m 0,0 km/h (0 Bft) S-SO 153 0 min 0,000 mm 0,0 UV-I 5 W/m 8,6 C 10,3 C 0,0 km/h (0 Bft) 97,87 %
24.10.2017 18:06 10,3 C 10,6 C 89 % 1025,7 hPa 0,0 l/m 0,0 km/h (0 Bft) S-SO 153 0 min 0,000 mm 0,0 UV-I 5 W/m 8,6 C 10,3 C 0,0 km/h (0 Bft) 97,87 %
24.10.2017 18:08 10,3 C 10,6 C 89 % 1025,8 hPa 0,0 l/m 0,0 km/h (0 Bft) S-SO 153 0 min 0,000 mm 0,0 UV-I 5 W/m 8,6 C 10,3 C 0,0 km/h (0 Bft) 97,22 %
24.10.2017 18:10 10,3 C 10,6 C 89 % 1025,8 hPa 0,0 l/m 0,0 km/h (0 Bft) S-SO 153 0 min 0,000 mm 0,0 UV-I 0 W/m 8,6 C 10,3 C 1,6 km/h (1 Bft) 98,08 %
24.10.2017 18:12 10,3 C 10,6 C 89 % 1025,8 hPa 0,0 l/m 0,1 km/h (0 Bft) S-SO 153 0 min 0,000 mm 0,0 UV-I 0 W/m 8,6 C 10,3 C 1,6 km/h (1 Bft) 97,87 %
24.10.2017 18:14 10,3 C 10,6 C 89 % 1025,8 hPa 0,0 l/m 2,0 km/h (1 Bft) S-SO 153 0 min 0,000 mm 0,0 UV-I 0 W/m 8,6 C 10,3 C 3,2 km/h (1 Bft) 98,00 %
24.10.2017 18:16 10,3 C 10,6 C 88 % 1025,8 hPa 0,0 l/m 1,8 km/h (1 Bft) S-SO 153 0 min 0,000 mm 0,0 UV-I 0 W/m 8,4 C 10,3 C 3,2 km/h (1 Bft) 94,34 %
24.10.2017 18:18 10,3 C 10,6 C 89 % 1025,9 hPa 0,0 l/m 1,0 km/h (0 Bft) S-SO 153 0 min 0,000 mm 0,0 UV-I 0 W/m 8,6 C 10,3 C 3,2 km/h (1 Bft) 97,37 %
24.10.2017 18:20 10,4 C 10,6 C 89 % 1025,9 hPa 0,0 l/m 1,4 km/h (1 Bft) S-SO 153 0 min 0,000 mm 0,0 UV-I 0 W/m 8,7 C 10,4 C 3,2 km/h (1 Bft) 92,45 %
24.10.2017 18:22 10,3 C 10,6 C 89 % 1026,0 hPa 0,0 l/m 0,1 km/h (0 Bft) S-SO 153 0 min 0,000 mm 0,0 UV-I 0 W/m 8,6 C 10,3 C 1,6 km/h (1 Bft) 97,37 %
24.10.2017 18:24 10,3 C 10,6 C 89 % 1026,0 hPa 0,0 l/m 0,1 km/h (0 Bft) S-SO 153 0 min 0,000 mm 0,0 UV-I 0 W/m 8,6 C 10,3 C 1,6 km/h (1 Bft) 98,00 %
24.10.2017 18:26 10,3 C 10,6 C 89 % 1026,0 hPa 0,0 l/m 0,5 km/h (0 Bft) S-SO 153 0 min 0,000 mm 0,0 UV-I 0 W/m 8,6 C 10,3 C 1,6 km/h (1 Bft) 98,00 %
24.10.2017 18:28 10,2 C 10,6 C 90 % 1026,0 hPa 0,0 l/m 0,4 km/h (0 Bft) S-SO 153 0 min 0,000 mm 0,0 UV-I 0 W/m 8,6 C 10,2 C 1,6 km/h (1 Bft) 100,00 %
24.10.2017 18:30 10,2 C 10,6 C 90 % 1026,0 hPa 0,2 l/m 0,4 km/h (0 Bft) S-SO 153 0 min 0,000 mm 0,0 UV-I 0 W/m 8,6 C 10,2 C 1,6 km/h (1 Bft) 100,00 %
24.10.2017 18:32 10,2 C 10,6 C 90 % 1026,0 hPa 0,0 l/m 0,8 km/h (0 Bft) S-SO 153 0 min 0,000 mm 0,0 UV-I 0 W/m 8,6 C 10,2 C 1,6 km/h (1 Bft) 96,00 %
24.10.2017 18:34 10,1 C 10,6 C 90 % 1026,0 hPa 0,0 l/m 1,6 km/h (1 Bft) S-SO 153 0 min 0,000 mm 0,0 UV-I 0 W/m 8,5 C 10,1 C 3,2 km/h (1 Bft) 100,00 %
24.10.2017 18:36 10,1 C 10,6 C 90 % 1026,0 hPa 0,0 l/m 1,8 km/h (1 Bft) S-SO 153 0 min 0,000 mm 0,0 UV-I 0 W/m 8,5 C 10,1 C 3,2 km/h (1 Bft) 100,00 %
24.10.2017 18:38 10,1 C 10,6 C 90 % 1026,1 hPa 0,0 l/m 2,1 km/h (1 Bft) S-SO 153 0 min 0,000 mm 0,0 UV-I 0 W/m 8,5 C 10,1 C 3,2 km/h (1 Bft) 100,00 %
24.10.2017 18:40 10,1 C 10,6 C 90 % 1026,1 hPa 0,0 l/m 1,6 km/h (1 Bft) S-SO 153 0 min 0,000 mm 0,0 UV-I 0 W/m 8,5 C 10,1 C 3,2 km/h (1 Bft) 100,00 %
24.10.2017 18:42 10,1 C 10,6 C 90 % 1026,2 hPa 0,0 l/m 1,1 km/h (1 Bft) S-SO 153 0 min 0,000 mm 0,0 UV-I 0 W/m 8,5 C 10,1 C 3,2 km/h (1 Bft) 97,87 %
24.10.2017 18:44 10,1 C 10,6 C 90 % 1026,2 hPa 0,0 l/m 1,7 km/h (1 Bft) S-SO 153 0 min 0,000 mm 0,0 UV-I 0 W/m 8,5 C 10,1 C 3,2 km/h (1 Bft) 100,00 %
24.10.2017 18:46 10,1 C 10,6 C 90 % 1026,2 hPa 0,0 l/m 0,0 km/h (0 Bft) S-SO 153 0 min 0,000 mm 0,0 UV-I 0 W/m 8,5 C 10,1 C 0,0 km/h (0 Bft) 100,00 %
24.10.2017 18:48 10,1 C 10,6 C 90 % 1026,1 hPa 0,0 l/m 0,0 km/h (0 Bft) S-SO 153 0 min 0,000 mm 0,0 UV-I 0 W/m 8,5 C 10,1 C 1,6 km/h (1 Bft) 100,00 %
24.10.2017 18:50 10,1 C 10,6 C 90 % 1026,2 hPa 0,0 l/m 0,2 km/h (0 Bft) S-SO 153 0 min 0,000 mm 0,0 UV-I 0 W/m 8,5 C 10,1 C 1,6 km/h (1 Bft) 94,87 %
24.10.2017 18:52 10,1 C 10,6 C 90 % 1026,1 hPa 0,0 l/m 0,6 km/h (0 Bft) S-SO 153 0 min 0,000 mm 0,0 UV-I 0 W/m 8,5 C 10,1 C 3,2 km/h (1 Bft) 98,00 %
24.10.2017 18:54 10,1 C 10,6 C 91 % 1026,2 hPa 0,0 l/m 1,0 km/h (0 Bft) S-SO 153 0 min 0,000 mm 0,0 UV-I 0 W/m 8,7 C 10,1 C 1,6 km/h (1 Bft) 97,87 %
24.10.2017 18:56 10,0 C 10,6 C 91 % 1026,2 hPa 0,0 l/m 1,6 km/h (1 Bft) S-SO 153 0 min 0,000 mm 0,0 UV-I 0 W/m 8,6 C 10,0 C 3,2 km/h (1 Bft) 96,00 %
24.10.2017 18:58 10,0 C 10,6 C 90 % 1026,2 hPa 0,0 l/m 2,3 km/h (1 Bft) S-SO 159 0 min 0,000 mm 0,0 UV-I 0 W/m 8,4 C 10,0 C 6,4 km/h (2 Bft) 97,87 %
24.10.2017 19:00 10,0 C 10,6 C 90 % 1026,2 hPa 0,0 l/m 2,6 km/h (1 Bft) S-SO 159 0 min 0,000 mm 0,0 UV-I 0 W/m 8,4 C 10,0 C 6,4 km/h (2 Bft) 98,00 %
24.10.2017 19:02 10,0 C 10,6 C 90 % 1026,3 hPa 0,0 l/m 3,1 km/h (1 Bft) S-SO 159 0 min 0,000 mm 0,0 UV-I 0 W/m 8,4 C 10,0 C 6,4 km/h (2 Bft) 97,37 %
24.10.2017 19:04 10,1 C 10,6 C 90 % 1026,2 hPa 0,0 l/m 2,5 km/h (1 Bft) S-SO 163 0 min 0,000 mm 0,0 UV-I 0 W/m 8,5 C 10,1 C 3,2 km/h (1 Bft) 98,11 %
24.10.2017 19:06 10,1 C 10,6 C 90 % 1026,2 hPa 0,0 l/m 2,1 km/h (1 Bft) S-SO 165 0 min 0,000 mm 0,0 UV-I 0 W/m 8,5 C 10,1 C 6,4 km/h (2 Bft) 97,37 %
24.10.2017 19:08 10,1 C 10,6 C 90 % 1026,2 hPa 0,0 l/m 1,6 km/h (1 Bft) S-SO 165 0 min 0,000 mm 0,0 UV-I 0 W/m 8,5 C 10,1 C 3,2 km/h (1 Bft) 96,00 %
24.10.2017 19:10 10,1 C 10,6 C 90 % 1026,3 hPa 0,0 l/m 0,8 km/h (0 Bft) S-SO 165 0 min 0,000 mm 0,0 UV-I 0 W/m 8,5 C 10,1 C 3,2 km/h (1 Bft) 95,74 %
24.10.2017 19:12 10,1 C 10,6 C 89 % 1026,3 hPa 0,0 l/m 2,1 km/h (1 Bft) S-SO 165 0 min 0,000 mm 0,0 UV-I 0 W/m 8,4 C 10,1 C 3,2 km/h (1 Bft) 98,00 %
24.10.2017 19:14 10,2 C 10,6 C 89 % 1026,3 hPa 0,0 l/m 1,3 km/h (1 Bft) S-SO 165 0 min 0,000 mm 0,0 UV-I 0 W/m 8,5 C 10,2 C 3,2 km/h (1 Bft) 97,56 %
24.10.2017 19:16 10,2 C 10,6 C 89 % 1026,3 hPa 0,0 l/m 1,9 km/h (1 Bft) S-SO 165 0 min 0,000 mm 0,0 UV-I 0 W/m 8,5 C 10,2 C 3,2 km/h (1 Bft) 96,00 %
24.10.2017 19:18 10,2 C 10,6 C 89 % 1026,3 hPa 0,0 l/m 2,4 km/h (1 Bft) S-SO 165 0 min 0,000 mm 0,0 UV-I 0 W/m 8,5 C 10,2 C 3,2 km/h (1 Bft) 96,00 %
24.10.2017 19:20 10,2 C 10,6 C 89 % 1026,3 hPa 0,0 l/m 1,8 km/h (1 Bft) S-SO 165 0 min 0,000 mm 0,0 UV-I 0 W/m 8,5 C 10,2 C 3,2 km/h (1 Bft) 97,56 %
24.10.2017 19:22 10,2 C 10,6 C 89 % 1026,3 hPa 0,0 l/m 0,6 km/h (0 Bft) S-SO 165 0 min 0,000 mm 0,0 UV-I 0 W/m 8,5 C 10,2 C 1,6 km/h (1 Bft) 98,00 %
24.10.2017 19:24 10,2 C 10,6 C 89 % 1026,3 hPa 0,0 l/m 0,9 km/h (0 Bft) S-SO 165 0 min 0,000 mm 0,0 UV-I 0 W/m 8,5 C 10,2 C 1,6 km/h (1 Bft) 95,74 %
24.10.2017 19:26 10,1 C 10,6 C 90 % 1026,3 hPa 0,0 l/m 1,5 km/h (1 Bft) S-SO 165 0 min 0,000 mm 0,0 UV-I 0 W/m 8,5 C 10,1 C 3,2 km/h (1 Bft) 98,00 %
24.10.2017 19:28 10,1 C 10,6 C 90 % 1026,3 hPa 0,0 l/m 1,9 km/h (1 Bft) S-SO 165 0 min 0,000 mm 0,0 UV-I 0 W/m 8,5 C 10,1 C 3,2 km/h (1 Bft) 100,00 %
24.10.2017 19:30 10,1 C 10,6 C 89 % 1026,3 hPa 0,0 l/m 3,4 km/h (1 Bft) S-SO 165 0 min 0,000 mm 0,0 UV-I 0 W/m 8,4 C 10,1 C 6,4 km/h (2 Bft) 97,62 %
24.10.2017 19:32 10,1 C 10,6 C 89 % 1026,3 hPa 0,0 l/m 3,7 km/h (1 Bft) S 172 0 min 0,000 mm 0,0 UV-I 0 W/m 8,4 C 10,1 C 6,4 km/h (2 Bft) 100,00 %
24.10.2017 19:34 10,1 C 10,6 C 89 % 1026,3 hPa 0,0 l/m 2,5 km/h (1 Bft) S 172 0 min 0,000 mm 0,0 UV-I 0 W/m 8,4 C 10,1 C 4,8 km/h (1 Bft) 100,00 %
24.10.2017 19:36 10,1 C 10,6 C 89 % 1026,3 hPa 0,0 l/m 1,8 km/h (1 Bft) S 172 0 min 0,000 mm 0,0 UV-I 0 W/m 8,4 C 10,1 C 3,2 km/h (1 Bft) 100,00 %
24.10.2017 19:38 10,1 C 10,6 C 89 % 1026,3 hPa 0,0 l/m 0,7 km/h (0 Bft) S 172 0 min 0,000 mm 0,0 UV-I 0 W/m 8,4 C 10,1 C 3,2 km/h (1 Bft) 97,14 %
24.10.2017 19:40 10,1 C 10,6 C 90 % 1026,3 hPa 0,0 l/m 0,6 km/h (0 Bft) S 172 0 min 0,000 mm 0,0 UV-I 0 W/m 8,5 C 10,1 C 1,6 km/h (1 Bft) 98,00 %
24.10.2017 19:42 10,1 C 10,6 C 90 % 1026,3 hPa 0,0 l/m 0,6 km/h (0 Bft) S 172 0 min 0,000 mm 0,0 UV-I 0 W/m 8,5 C 10,1 C 3,2 km/h (1 Bft) 98,00 %
24.10.2017 19:44 10,1 C 10,6 C 90 % 1026,3 hPa 0,0 l/m 0,3 km/h (0 Bft) S 172 0 min 0,000 mm 0,0 UV-I 0 W/m 8,5 C 10,1 C 1,6 km/h (1 Bft) 100,00 %
24.10.2017 19:46 10,1 C 10,6 C 90 % 1026,3 hPa 0,0 l/m 0,0 km/h (0 Bft) S 172 0 min 0,000 mm 0,0 UV-I 0 W/m 8,5 C 10,1 C 0,0 km/h (0 Bft) 100,00 %
24.10.2017 19:48 10,1 C 10,6 C 90 % 1026,4 hPa 0,0 l/m 0,0 km/h (0 Bft) S 172 0 min 0,000 mm 0,0 UV-I 0 W/m 8,5 C 10,1 C 0,0 km/h (0 Bft) 100,00 %
24.10.2017 19:50 10,1 C 10,6 C 90 % 1026,4 hPa 0,0 l/m 0,0 km/h (0 Bft) S 172 0 min 0,000 mm 0,0 UV-I 0 W/m 8,5 C 10,1 C 0,0 km/h (0 Bft) 100,00 %
24.10.2017 19:52 10,1 C 10,6 C 90 % 1026,3 hPa 0,0 l/m 0,1 km/h (0 Bft) S 172 0 min 0,000 mm 0,0 UV-I 0 W/m 8,5 C 10,1 C 1,6 km/h (1 Bft) 98,00 %
24.10.2017 19:54 10,1 C 10,6 C 90 % 1026,3 hPa 0,0 l/m 1,0 km/h (0 Bft) S 172 0 min 0,000 mm 0,0 UV-I 0 W/m 8,5 C 10,1 C 3,2 km/h (1 Bft) 100,00 %
24.10.2017 19:56 10,0 C 10,6 C 90 % 1026,4 hPa 0,0 l/m 0,1 km/h (0 Bft) S 172 0 min 0,000 mm 0,0 UV-I 0 W/m 8,4 C 10,0 C 1,6 km/h (1 Bft) 100,00 %
24.10.2017 19:58 10,0 C 10,6 C 90 % 1026,3 hPa 0,0 l/m 1,9 km/h (1 Bft) S 172 0 min 0,000 mm 0,0 UV-I 0 W/m 8,4 C 10,0 C 3,2 km/h (1 Bft) 100,00 %
24.10.2017 20:00 10,0 C 10,6 C 90 % 1026,4 hPa 0,0 l/m 1,4 km/h (1 Bft) S 172 0 min 0,000 mm 0,0 UV-I 0 W/m 8,4 C 10,0 C 3,2 km/h (1 Bft) 100,00 %
24.10.2017 20:02 10,0 C 10,6 C 90 % 1026,3 hPa 0,0 l/m 0,1 km/h (0 Bft) S 172 0 min 0,000 mm 0,0 UV-I 0 W/m 8,4 C 10,0 C 1,6 km/h (1 Bft) 100,00 %
24.10.2017 20:04 9,9 C 10,6 C 91 % 1026,3 hPa 0,0 l/m 0,0 km/h (0 Bft) S 172 0 min 0,000 mm 0,0 UV-I 0 W/m 8,5 C 9,9 C 1,6 km/h (1 Bft) 100,00 %
24.10.2017 20:06 9,9 C 10,6 C 91 % 1026,3 hPa 0,0 l/m 1,7 km/h (1 Bft) S 172 0 min 0,000 mm 0,0 UV-I 0 W/m 8,5 C 9,9 C 3,2 km/h (1 Bft) 100,00 %
24.10.2017 20:08 9,9 C 10,6 C 91 % 1026,3 hPa 0,0 l/m 1,6 km/h (1 Bft) S 172 0 min 0,000 mm 0,0 UV-I 0 W/m 8,5 C 9,9 C 3,2 km/h (1 Bft) 100,00 %
24.10.2017 20:10 9,8 C 10,6 C 91 % 1026,3 hPa 0,0 l/m 1,1 km/h (1 Bft) S 172 0 min 0,000 mm 0,0 UV-I 0 W/m 8,4 C 9,8 C 3,2 km/h (1 Bft) 97,22 %
24.10.2017 20:12 9,8 C 10,6 C 91 % 1026,3 hPa 0,0 l/m 0,2 km/h (0 Bft) S 172 0 min 0,000 mm 0,0 UV-I 0 W/m 8,4 C 9,8 C 1,6 km/h (1 Bft) 100,00 %
24.10.2017 20:14 9,8 C 10,6 C 91 % 1026,4 hPa 0,0 l/m 0,0 km/h (0 Bft) S 172 0 min 0,000 mm 0,0 UV-I 0 W/m 8,4 C 9,8 C 1,6 km/h (1 Bft) 100,00 %
24.10.2017 20:16 9,9 C 10,6 C 91 % 1026,4 hPa 0,0 l/m 1,5 km/h (1 Bft) S 172 0 min 0,000 mm 0,0 UV-I 0 W/m 8,5 C 9,9 C 3,2 km/h (1 Bft) 95,74 %
24.10.2017 20:18 9,9 C 10,6 C 91 % 1026,4 hPa 0,0 l/m 1,0 km/h (0 Bft) S 172 0 min 0,000 mm 0,0 UV-I 0 W/m 8,5 C 9,9 C 3,2 km/h (1 Bft) 100,00 %
24.10.2017 20:20 9,9 C 10,6 C 91 % 1026,4 hPa 0,0 l/m 0,0 km/h (0 Bft) S 172 0 min 0,000 mm 0,0 UV-I 0 W/m 8,5 C 9,9 C 0,0 km/h (0 Bft) 100,00 %
24.10.2017 20:22 9,9 C 10,6 C 91 % 1026,4 hPa 0,0 l/m 0,0 km/h (0 Bft) S 172 0 min 0,000 mm 0,0 UV-I 0 W/m 8,5 C 9,9 C 0,0 km/h (0 Bft) 100,00 %
24.10.2017 20:24 9,9 C 10,6 C 91 % 1026,4 hPa 0,0 l/m 0,0 km/h (0 Bft) S 172 0 min 0,000 mm 0,0 UV-I 0 W/m 8,5 C 9,9 C 0,0 km/h (0 Bft) 100,00 %
24.10.2017 20:26 9,8 C 10,6 C 91 % 1026,5 hPa 0,0 l/m 0,0 km/h (0 Bft) S 172 0 min 0,000 mm 0,0 UV-I 0 W/m 8,4 C 9,8 C 0,0 km/h (0 Bft) 100,00 %
24.10.2017 20:28 9,8 C 10,6 C 91 % 1026,5 hPa 0,0 l/m 0,0 km/h (0 Bft) S 172 0 min 0,000 mm 0,0 UV-I 0 W/m 8,4 C 9,8 C 0,0 km/h (0 Bft) 100,00 %
24.10.2017 20:30 9,8 C 10,6 C 91 % 1026,5 hPa 0,0 l/m 0,0 km/h (0 Bft) S 172 0 min 0,000 mm 0,0 UV-I 0 W/m 8,4 C 9,8 C 0,0 km/h (0 Bft) 100,00 %
24.10.2017 20:32 9,8 C 10,6 C 91 % 1026,4 hPa 0,0 l/m 0,0 km/h (0 Bft) S 172 0 min 0,000 mm 0,0 UV-I 0 W/m 8,4 C 9,8 C 0,0 km/h (0 Bft) 100,00 %
24.10.2017 20:34 9,8 C 10,6 C 91 % 1026,4 hPa 0,0 l/m 0,0 km/h (0 Bft) S 172 0 min 0,000 mm 0,0 UV-I 0 W/m 8,4 C 9,8 C 0,0 km/h (0 Bft) 97,87 %
24.10.2017 20:36 9,8 C 10,6 C 91 % 1026,4 hPa 0,0 l/m 0,0 km/h (0 Bft) S 172 0 min 0,000 mm 0,0 UV-I 0 W/m 8,4 C 9,8 C 0,0 km/h (0 Bft) 100,00 %
24.10.2017 20:38 9,8 C 10,6 C 92 % 1026,4 hPa 0,0 l/m 0,0 km/h (0 Bft) S 172 0 min 0,000 mm 0,0 UV-I 0 W/m 8,6 C 9,8 C 0,0 km/h (0 Bft) 100,00 %
24.10.2017 20:40 9,8 C 10,6 C 91 % 1026,4 hPa 0,0 l/m 0,0 km/h (0 Bft) S 172 0 min 0,000 mm 0,0 UV-I 0 W/m 8,4 C 9,8 C 1,6 km/h (1 Bft) 100,00 %
24.10.2017 20:42 9,8 C 10,6 C 92 % 1026,4 hPa 0,0 l/m 0,0 km/h (0 Bft) S 172 0 min 0,000 mm 0,0 UV-I 0 W/m 8,6 C 9,8 C 0,0 km/h (0 Bft) 95,74 %
24.10.2017 20:44 9,8 C 10,6 C 92 % 1026,4 hPa 0,0 l/m 0,0 km/h (0 Bft) S 172 0 min 0,000 mm 0,0 UV-I 0 W/m 8,6 C 9,8 C 1,6 km/h (1 Bft) 98,00 %
24.10.2017 20:46 9,8 C 10,6 C 92 % 1026,4 hPa 0,0 l/m 1,4 km/h (1 Bft) S 172 0 min 0,000 mm 0,0 UV-I 0 W/m 8,6 C 9,8 C 3,2 km/h (1 Bft) 100,00 %
24.10.2017 20:48 9,8 C 10,6 C 92 % 1026,4 hPa 0,0 l/m 0,2 km/h (0 Bft) S 172 0 min 0,000 mm 0,0 UV-I 0 W/m 8,6 C 9,8 C 1,6 km/h (1 Bft) 100,00 %
24.10.2017 20:50 9,7 C 10,6 C 92 % 1026,4 hPa 0,0 l/m 1,8 km/h (1 Bft) S 172 0 min 0,000 mm 0,0 UV-I 0 W/m 8,5 C 9,7 C 3,2 km/h (1 Bft) 100,00 %
24.10.2017 20:52 9,7 C 10,6 C 92 % 1026,3 hPa 0,0 l/m 0,6 km/h (0 Bft) S 172 0 min 0,000 mm 0,0 UV-I 0 W/m 8,5 C 9,7 C 1,6 km/h (1 Bft) 100,00 %
24.10.2017 20:54 9,7 C 10,6 C 92 % 1026,3 hPa 0,0 l/m 0,9 km/h (0 Bft) S 172 0 min 0,000 mm 0,0 UV-I 0 W/m 8,5 C 9,7 C 3,2 km/h (1 Bft) 100,00 %
24.10.2017 20:56 9,6 C 10,6 C 92 % 1026,3 hPa 0,0 l/m 1,5 km/h (1 Bft) S 172 0 min 0,000 mm 0,0 UV-I 0 W/m 8,4 C 9,6 C 3,2 km/h (1 Bft) 97,14 %
24.10.2017 20:58 9,6 C 10,6 C 92 % 1026,3 hPa 0,0 l/m 2,8 km/h (1 Bft) S 172 0 min 0,000 mm 0,0 UV-I 0 W/m 8,4 C 9,6 C 4,8 km/h (1 Bft) 96,00 %
24.10.2017 21:00 9,6 C 10,6 C 92 % 1026,3 hPa 0,0 l/m 2,9 km/h (1 Bft) S 172 0 min 0,000 mm 0,0 UV-I 0 W/m 8,4 C 9,6 C 8,0 km/h (2 Bft) 96,00 %
24.10.2017 21:02 9,6 C 10,6 C 92 % 1026,3 hPa 0,0 l/m 3,4 km/h (1 Bft) S 173 0 min 0,000 mm 0,0 UV-I 0 W/m 8,4 C 9,6 C 4,8 km/h (1 Bft) 97,56 %
24.10.2017 21:04 9,6 C 10,6 C 92 % 1026,3 hPa 0,0 l/m 3,8 km/h (1 Bft) S 173 0 min 0,000 mm 0,0 UV-I 0 W/m 8,4 C 9,6 C 4,8 km/h (1 Bft) 96,00 %
24.10.2017 21:06 9,6 C 10,6 C 92 % 1026,3 hPa 0,0 l/m 2,8 km/h (1 Bft) S 173 0 min 0,000 mm 0,0 UV-I 0 W/m 8,4 C 9,6 C 4,8 km/h (1 Bft) 97,87 %
24.10.2017 21:08 9,6 C 10,6 C 91 % 1026,3 hPa 0,0 l/m 2,0 km/h (1 Bft) S 173 0 min 0,000 mm 0,0 UV-I 0 W/m 8,2 C 9,6 C 3,2 km/h (1 Bft) 97,73 %
24.10.2017 21:10 9,6 C 10,6 C 91 % 1026,3 hPa 0,0 l/m 0,9 km/h (0 Bft) S 173 0 min 0,000 mm 0,0 UV-I 0 W/m 8,2 C 9,6 C 3,2 km/h (1 Bft) 94,00 %
24.10.2017 21:12 9,6 C 10,6 C 91 % 1026,3 hPa 0,0 l/m 1,7 km/h (1 Bft) S 173 0 min 0,000 mm 0,0 UV-I 0 W/m 8,2 C 9,6 C 3,2 km/h (1 Bft) 96,00 %
24.10.2017 21:14 9,6 C 10,6 C 91 % 1026,2 hPa 0,0 l/m 1,9 km/h (1 Bft) S 173 0 min 0,000 mm 0,0 UV-I 0 W/m 8,2 C 9,6 C 3,2 km/h (1 Bft) 95,12 %
24.10.2017 21:16 9,6 C 10,6 C 91 % 1026,2 hPa 0,0 l/m 2,6 km/h (1 Bft) S 173 0 min 0,000 mm 0,0 UV-I 0 W/m 8,2 C 9,6 C 4,8 km/h (1 Bft) 93,62 %
24.10.2017 21:18 9,6 C 10,6 C 91 % 1026,2 hPa 0,0 l/m 2,5 km/h (1 Bft) S 173 0 min 0,000 mm 0,0 UV-I 0 W/m 8,2 C 9,6 C 4,8 km/h (1 Bft) 96,00 %
24.10.2017 21:20 9,7 C 10,6 C 91 % 1026,2 hPa 0,0 l/m 2,1 km/h (1 Bft) S 173 0 min 0,000 mm 0,0 UV-I 0 W/m 8,3 C 9,7 C 3,2 km/h (1 Bft) 96,00 %
24.10.2017 21:22 9,7 C 10,6 C 91 % 1026,3 hPa 0,0 l/m 1,5 km/h (1 Bft) S 173 0 min 0,000 mm 0,0 UV-I 0 W/m 8,3 C 9,7 C 3,2 km/h (1 Bft) 94,00 %
24.10.2017 21:24 9,7 C 10,6 C 91 % 1026,2 hPa 0,0 l/m 0,5 km/h (0 Bft) S 173 0 min 0,000 mm 0,0 UV-I 0 W/m 8,3 C 9,7 C 1,6 km/h (1 Bft) 96,30 %
24.10.2017 21:26 9,7 C 10,6 C 91 % 1026,2 hPa 0,0 l/m 1,0 km/h (0 Bft) S 173 0 min 0,000 mm 0,0 UV-I 0 W/m 8,3 C 9,7 C 3,2 km/h (1 Bft) 93,75 %
24.10.2017 21:28 9,7 C 10,6 C 91 % 1026,2 hPa 0,0 l/m 2,7 km/h (1 Bft) S 173 0 min 0,000 mm 0,0 UV-I 0 W/m 8,3 C 9,7 C 4,8 km/h (1 Bft) 97,44 %
24.10.2017 21:30 9,7 C 10,6 C 91 % 1026,3 hPa 0,0 l/m 2,4 km/h (1 Bft) S 173 0 min 0,000 mm 0,0 UV-I 0 W/m 8,3 C 9,7 C 4,8 km/h (1 Bft) 96,23 %
24.10.2017 21:32 9,7 C 10,6 C 90 % 1026,2 hPa 0,0 l/m 2,7 km/h (1 Bft) S 173 0 min 0,000 mm 0,0 UV-I 0 W/m 8,1 C 9,7 C 4,8 km/h (1 Bft) 96,00 %
24.10.2017 21:34 9,7 C 10,6 C 90 % 1026,2 hPa 0,0 l/m 2,3 km/h (1 Bft) S 173 0 min 0,000 mm 0,0 UV-I 0 W/m 8,1 C 9,7 C 3,2 km/h (1 Bft) 97,37 %
24.10.2017 21:36 9,7 C 10,6 C 90 % 1026,1 hPa 0,0 l/m 1,3 km/h (1 Bft) S 173 0 min 0,000 mm 0,0 UV-I 0 W/m 8,1 C 9,7 C 3,2 km/h (1 Bft) 98,08 %
24.10.2017 21:38 9,7 C 10,6 C 90 % 1026,2 hPa 0,0 l/m 1,1 km/h (1 Bft) S 173 0 min 0,000 mm 0,0 UV-I 0 W/m 8,1 C 9,7 C 3,2 km/h (1 Bft) 97,73 %
24.10.2017 21:40 9,7 C 10,6 C 90 % 1026,2 hPa 0,0 l/m 0,8 km/h (0 Bft) S 173 0 min 0,000 mm 0,0 UV-I 0 W/m 8,1 C 9,7 C 3,2 km/h (1 Bft) 96,00 %
24.10.2017 21:42 9,7 C 10,6 C 90 % 1026,2 hPa 0,0 l/m 1,2 km/h (1 Bft) S 173 0 min 0,000 mm 0,0 UV-I 0 W/m 8,1 C 9,7 C 3,2 km/h (1 Bft) 98,00 %
24.10.2017 21:44 9,7 C 10,6 C 89 % 1026,3 hPa 0,0 l/m 0,8 km/h (0 Bft) S 173 0 min 0,000 mm 0,0 UV-I 0 W/m 8,0 C 9,7 C 3,2 km/h (1 Bft) 97,37 %
24.10.2017 21:46 9,7 C 10,6 C 89 % 1026,3 hPa 0,0 l/m 0,1 km/h (0 Bft) S 173 0 min 0,000 mm 0,0 UV-I 0 W/m 8,0 C 9,7 C 1,6 km/h (1 Bft) 98,00 %
24.10.2017 21:48 9,6 C 10,6 C 89 % 1026,3 hPa 0,0 l/m 0,7 km/h (0 Bft) S 173 0 min 0,000 mm 0,0 UV-I 0 W/m 7,9 C 9,6 C 1,6 km/h (1 Bft) 96,00 %
24.10.2017 21:50 9,6 C 10,6 C 89 % 1026,3 hPa 0,0 l/m 0,3 km/h (0 Bft) S 173 0 min 0,000 mm 0,0 UV-I 0 W/m 7,9 C 9,6 C 1,6 km/h (1 Bft) 96,00 %
24.10.2017 21:52 9,6 C 10,6 C 89 % 1026,2 hPa 0,0 l/m 1,6 km/h (1 Bft) S 173 0 min 0,000 mm 0,0 UV-I 0 W/m 7,9 C 9,6 C 3,2 km/h (1 Bft) 97,37 %
24.10.2017 21:54 9,5 C 10,6 C 89 % 1026,2 hPa 0,0 l/m 2,1 km/h (1 Bft) S 173 0 min 0,000 mm 0,0 UV-I 0 W/m 7,8 C 9,5 C 4,8 km/h (1 Bft) 100,00 %
24.10.2017 21:56 9,5 C 10,6 C 89 % 1026,2 hPa 0,0 l/m 0,9 km/h (0 Bft) S 173 0 min 0,000 mm 0,0 UV-I 0 W/m 7,8 C 9,5 C 3,2 km/h (1 Bft) 96,92 %
24.10.2017 21:58 9,5 C 10,6 C 89 % 1026,2 hPa 0,0 l/m 0,8 km/h (0 Bft) S 173 0 min 0,000 mm 0,0 UV-I 0 W/m 7,8 C 9,5 C 1,6 km/h (1 Bft) 97,56 %
24.10.2017 22:00 9,5 C 10,6 C 89 % 1026,2 hPa 0,0 l/m 1,7 km/h (1 Bft) S 173 0 min 0,000 mm 0,0 UV-I 0 W/m 7,8 C 9,5 C 4,8 km/h (1 Bft) 98,00 %
24.10.2017 22:02 9,5 C 10,6 C 89 % 1026,2 hPa 0,0 l/m 1,9 km/h (1 Bft) S 173 0 min 0,000 mm 0,0 UV-I 0 W/m 7,8 C 9,5 C 4,8 km/h (1 Bft) 97,37 %
24.10.2017 22:04 9,4 C 10,6 C 89 % 1026,2 hPa 0,0 l/m 1,8 km/h (1 Bft) S 173 0 min 0,000 mm 0,0 UV-I 0 W/m 7,7 C 9,4 C 3,2 km/h (1 Bft) 97,37 %
24.10.2017 22:06 9,4 C 10,6 C 89 % 1026,2 hPa 0,0 l/m 2,1 km/h (1 Bft) S 173 0 min 0,000 mm 0,0 UV-I 0 W/m 7,7 C 9,4 C 3,2 km/h (1 Bft) 98,51 %
24.10.2017 22:08 9,4 C 10,6 C 89 % 1026,1 hPa 0,0 l/m 1,4 km/h (1 Bft) S 173 0 min 0,000 mm 0,0 UV-I 0 W/m 7,7 C 9,4 C 3,2 km/h (1 Bft) 97,62 %
24.10.2017 22:10 9,5 C 10,6 C 89 % 1026,1 hPa 0,0 l/m 2,3 km/h (1 Bft) S 171 0 min 0,000 mm 0,0 UV-I 0 W/m 7,8 C 9,5 C 6,4 km/h (2 Bft) 97,56 %
24.10.2017 22:12 9,5 C 10,6 C 89 % 1026,1 hPa 0,0 l/m 1,1 km/h (1 Bft) S 171 0 min 0,000 mm 0,0 UV-I 0 W/m 7,8 C 9,5 C 3,2 km/h (1 Bft) 98,00 %
24.10.2017 22:14 9,6 C 10,6 C 89 % 1026,1 hPa 0,0 l/m 0,7 km/h (0 Bft) S 171 0 min 0,000 mm 0,0 UV-I 0 W/m 7,9 C 9,6 C 3,2 km/h (1 Bft) 94,34 %
24.10.2017 22:16 9,6 C 10,6 C 89 % 1026,1 hPa 0,0 l/m 1,8 km/h (1 Bft) S 171 0 min 0,000 mm 0,0 UV-I 0 W/m 7,9 C 9,6 C 3,2 km/h (1 Bft) 94,29 %
24.10.2017 22:18 9,6 C 10,6 C 89 % 1026,2 hPa 0,0 l/m 0,9 km/h (0 Bft) S 171 0 min 0,000 mm 0,0 UV-I 0 W/m 7,9 C 9,6 C 1,6 km/h (1 Bft) 100,00 %
24.10.2017 22:20 9,6 C 10,6 C 89 % 1026,1 hPa 0,0 l/m 1,2 km/h (1 Bft) S 171 0 min 0,000 mm 0,0 UV-I 0 W/m 7,9 C 9,6 C 3,2 km/h (1 Bft) 97,87 %
24.10.2017 22:22 9,6 C 10,6 C 89 % 1026,1 hPa 0,0 l/m 0,3 km/h (0 Bft) S 171 0 min 0,000 mm 0,0 UV-I 0 W/m 7,9 C 9,6 C 1,6 km/h (1 Bft) 100,00 %
24.10.2017 22:24 9,6 C 10,6 C 89 % 1026,2 hPa 0,0 l/m 0,8 km/h (0 Bft) S 171 0 min 0,000 mm 0,0 UV-I 0 W/m 7,9 C 9,6 C 1,6 km/h (1 Bft) 100,00 %
24.10.2017 22:26 9,6 C 10,6 C 89 % 1026,2 hPa 0,0 l/m 1,0 km/h (0 Bft) S 171 0 min 0,000 mm 0,0 UV-I 0 W/m 7,9 C 9,6 C 3,2 km/h (1 Bft) 98,00 %
24.10.2017 22:28 9,6 C 10,6 C 89 % 1026,2 hPa 0,0 l/m 1,6 km/h (1 Bft) S 171 0 min 0,000 mm 0,0 UV-I 0 W/m 7,9 C 9,6 C 6,4 km/h (2 Bft) 100,00 %
24.10.2017 22:30 9,6 C 10,6 C 89 % 1026,2 hPa 0,0 l/m 2,5 km/h (1 Bft) S 171 0 min 0,000 mm 0,0 UV-I 0 W/m 7,9 C 9,6 C 6,4 km/h (2 Bft) 100,00 %
24.10.2017 22:32 9,6 C 10,6 C 89 % 1026,1 hPa 0,0 l/m 2,4 km/h (1 Bft) S 174 0 min 0,000 mm 0,0 UV-I 0 W/m 7,9 C 9,6 C 4,8 km/h (1 Bft) 97,87 %
24.10.2017 22:34 9,5 C 10,6 C 89 % 1026,2 hPa 0,0 l/m 2,7 km/h (1 Bft) S 174 0 min 0,000 mm 0,0 UV-I 0 W/m 7,8 C 9,5 C 4,8 km/h (1 Bft) 100,00 %
24.10.2017 22:36 9,5 C 10,6 C 89 % 1026,2 hPa 0,0 l/m 1,8 km/h (1 Bft) S 174 0 min 0,000 mm 0,0 UV-I 0 W/m 7,8 C 9,5 C 3,2 km/h (1 Bft) 100,00 %
24.10.2017 22:38 9,5 C 10,6 C 89 % 1026,1 hPa 0,0 l/m 2,2 km/h (1 Bft) S-SO 165 0 min 0,000 mm 0,0 UV-I 0 W/m 7,8 C 9,5 C 4,8 km/h (1 Bft) 100,00 %
24.10.2017 22:40 9,6 C 10,6 C 89 % 1026,1 hPa 0,0 l/m 1,8 km/h (1 Bft) S-SO 165 0 min 0,000 mm 0,0 UV-I 0 W/m 7,9 C 9,6 C 3,2 km/h (1 Bft) 100,00 %
24.10.2017 22:42 9,6 C 10,6 C 89 % 1026,1 hPa 0,0 l/m 2,1 km/h (1 Bft) S-SO 165 0 min 0,000 mm 0,0 UV-I 0 W/m 7,9 C 9,6 C 3,2 km/h (1 Bft) 97,73 %
24.10.2017 22:44 9,6 C 10,6 C 89 % 1026,2 hPa 0,0 l/m 0,8 km/h (0 Bft) S-SO 165 0 min 0,000 mm 0,0 UV-I 0 W/m 7,9 C 9,6 C 3,2 km/h (1 Bft) 100,00 %
24.10.2017 22:46 9,6 C 10,6 C 89 % 1026,2 hPa 0,0 l/m 1,6 km/h (1 Bft) S-SO 165 0 min 0,000 mm 0,0 UV-I 0 W/m 7,9 C 9,6 C 6,4 km/h (2 Bft) 100,00 %
24.10.2017 22:48 9,6 C 10,6 C 89 % 1026,2 hPa 0,0 l/m 0,0 km/h (0 Bft) S-SO 165 0 min 0,000 mm 0,0 UV-I 0 W/m 7,9 C 9,6 C 1,6 km/h (1 Bft) 100,00 %
24.10.2017 22:50 9,6 C 10,6 C 89 % 1026,2 hPa 0,0 l/m 0,0 km/h (0 Bft) S-SO 165 0 min 0,000 mm 0,0 UV-I 0 W/m 7,9 C 9,6 C 0,0 km/h (0 Bft) 100,00 %
24.10.2017 22:52 9,6 C 10,6 C 89 % 1026,1 hPa 0,0 l/m 0,2 km/h (0 Bft) S-SO 165 0 min 0,000 mm 0,0 UV-I 0 W/m 7,9 C 9,6 C 1,6 km/h (1 Bft) 100,00 %
24.10.2017 22:54 9,6 C 10,6 C 89 % 1026,0 hPa 0,0 l/m 0,6 km/h (0 Bft) S-SO 165 0 min 0,000 mm 0,0 UV-I 0 W/m 7,9 C 9,6 C 1,6 km/h (1 Bft) 100,00 %
24.10.2017 22:56 9,6 C 10,6 C 89 % 1026,0 hPa 0,0 l/m 0,5 km/h (0 Bft) S-SO 165 0 min 0,000 mm 0,0 UV-I 0 W/m 7,9 C 9,6 C 3,2 km/h (1 Bft) 100,00 %
24.10.2017 22:58 9,5 C 10,6 C 89 % 1026,0 hPa 0,0 l/m 0,1 km/h (0 Bft) S-SO 165 0 min 0,000 mm 0,0 UV-I 0 W/m 7,8 C 9,5 C 1,6 km/h (1 Bft) 96,23 %
24.10.2017 23:00 9,5 C 10,6 C 89 % 1026,0 hPa 0,0 l/m 0,2 km/h (0 Bft) S-SO 165 0 min 0,000 mm 0,0 UV-I 0 W/m 7,8 C 9,5 C 1,6 km/h (1 Bft) 98,11 %
24.10.2017 23:02 9,4 C 10,6 C 89 % 1026,1 hPa 0,0 l/m 0,0 km/h (0 Bft) S-SO 165 0 min 0,000 mm 0,0 UV-I 0 W/m 7,7 C 9,4 C 0,0 km/h (0 Bft) 97,87 %
24.10.2017 23:04 9,4 C 10,6 C 90 % 1026,1 hPa 0,0 l/m 0,0 km/h (0 Bft) S-SO 165 0 min 0,000 mm 0,0 UV-I 0 W/m 7,8 C 9,4 C 0,0 km/h (0 Bft) 93,62 %
24.10.2017 23:06 9,3 C 10,6 C 90 % 1026,2 hPa 0,0 l/m 0,0 km/h (0 Bft) S-SO 165 0 min 0,000 mm 0,0 UV-I 0 W/m 7,7 C 9,3 C 0,0 km/h (0 Bft) 97,56 %
24.10.2017 23:08 9,3 C 10,6 C 90 % 1026,2 hPa 0,0 l/m 0,0 km/h (0 Bft) S-SO 165 0 min 0,000 mm 0,0 UV-I 0 W/m 7,7 C 9,3 C 0,0 km/h (0 Bft) 92,00 %
24.10.2017 23:10 9,3 C 10,6 C 90 % 1026,2 hPa 0,0 l/m 0,0 km/h (0 Bft) S-SO 165 0 min 0,000 mm 0,0 UV-I 0 W/m 7,7 C 9,3 C 0,0 km/h (0 Bft) 97,67 %
24.10.2017 23:12 9,3 C 10,6 C 90 % 1026,1 hPa 0,0 l/m 0,0 km/h (0 Bft) S-SO 165 0 min 0,000 mm 0,0 UV-I 0 W/m 7,7 C 9,3 C 0,0 km/h (0 Bft) 98,00 %
24.10.2017 23:14 9,3 C 10,6 C 90 % 1026,1 hPa 0,0 l/m 0,7 km/h (0 Bft) S-SO 165 0 min 0,000 mm 0,0 UV-I 0 W/m 7,7 C 9,3 C 1,6 km/h (1 Bft) 93,62 %
24.10.2017 23:16 9,3 C 10,6 C 90 % 1026,1 hPa 0,0 l/m 0,0 km/h (0 Bft) S-SO 165 0 min 0,000 mm 0,0 UV-I 0 W/m 7,7 C 9,3 C 0,0 km/h (0 Bft) 97,87 %
24.10.2017 23:18 9,3 C 10,6 C 90 % 1026,1 hPa 0,0 l/m 0,0 km/h (0 Bft) S-SO 165 0 min 0,000 mm 0,0 UV-I 0 W/m 7,7 C 9,3 C 0,0 km/h (0 Bft) 97,37 %
24.10.2017 23:20 9,2 C 10,6 C 90 % 1026,1 hPa 0,0 l/m 0,0 km/h (0 Bft) S-SO 165 0 min 0,000 mm 0,0 UV-I 0 W/m 7,6 C 9,2 C 0,0 km/h (0 Bft) 97,96 %
24.10.2017 23:22 9,3 C 10,6 C 91 % 1026,1 hPa 0,0 l/m 0,2 km/h (0 Bft) S-SO 165 0 min 0,000 mm 0,0 UV-I 0 W/m 7,9 C 9,3 C 1,6 km/h (1 Bft) 97,44 %
24.10.2017 23:24 9,3 C 10,6 C 91 % 1026,0 hPa 0,0 l/m 2,4 km/h (1 Bft) S-SO 165 0 min 0,000 mm 0,0 UV-I 0 W/m 7,9 C 9,3 C 3,2 km/h (1 Bft) 95,65 %
24.10.2017 23:26 9,3 C 10,6 C 91 % 1026,0 hPa 0,0 l/m 2,6 km/h (1 Bft) S-SO 165 0 min 0,000 mm 0,0 UV-I 0 W/m 7,9 C 9,3 C 6,4 km/h (2 Bft) 96,88 %
24.10.2017 23:28 9,2 C 10,6 C 91 % 1025,9 hPa 0,0 l/m 3,1 km/h (1 Bft) S-SO 165 0 min 0,000 mm 0,0 UV-I 0 W/m 7,8 C 9,2 C 6,4 km/h (2 Bft) 97,44 %
24.10.2017 23:30 9,2 C 10,6 C 91 % 1025,9 hPa 0,0 l/m 1,8 km/h (1 Bft) S-SO 165 0 min 0,000 mm 0,0 UV-I 0 W/m 7,8 C 9,2 C 3,2 km/h (1 Bft) 98,21 %
24.10.2017 23:32 9,2 C 10,6 C 91 % 1025,8 hPa 0,0 l/m 0,6 km/h (0 Bft) S-SO 165 0 min 0,000 mm 0,0 UV-I 0 W/m 7,8 C 9,2 C 3,2 km/h (1 Bft) 97,56 %
24.10.2017 23:34 9,2 C 10,6 C 91 % 1025,8 hPa 0,0 l/m 1,6 km/h (1 Bft) S-SO 165 0 min 0,000 mm 0,0 UV-I 0 W/m 7,8 C 9,2 C 3,2 km/h (1 Bft) 100,00 %
24.10.2017 23:36 9,2 C 10,6 C 91 % 1025,8 hPa 0,0 l/m 1,3 km/h (1 Bft) S-SO 165 0 min 0,000 mm 0,0 UV-I 0 W/m 7,8 C 9,2 C 3,2 km/h (1 Bft) 96,15 %
24.10.2017 23:38 9,1 C 10,6 C 91 % 1025,7 hPa 0,0 l/m 1,0 km/h (0 Bft) S-SO 165 0 min 0,000 mm 0,0 UV-I 0 W/m 7,7 C 9,1 C 1,6 km/h (1 Bft) 100,00 %
24.10.2017 23:40 9,1 C 10,6 C 91 % 1025,7 hPa 0,0 l/m 0,3 km/h (0 Bft) S-SO 165 0 min 0,000 mm 0,0 UV-I 0 W/m 7,7 C 9,1 C 1,6 km/h (1 Bft) 98,11 %
24.10.2017 23:42 9,2 C 10,6 C 91 % 1025,7 hPa 0,0 l/m 0,1 km/h (0 Bft) S-SO 165 0 min 0,000 mm 0,0 UV-I 0 W/m 7,8 C 9,2 C 1,6 km/h (1 Bft) 100,00 %
24.10.2017 23:44 9,1 C 10,6 C 91 % 1025,8 hPa 0,0 l/m 0,1 km/h (0 Bft) S-SO 165 0 min 0,000 mm 0,0 UV-I 0 W/m 7,7 C 9,1 C 1,6 km/h (1 Bft) 97,87 %
24.10.2017 23:46 9,1 C 10,6 C 91 % 1025,7 hPa 0,0 l/m 0,1 km/h (0 Bft) S-SO 165 0 min 0,000 mm 0,0 UV-I 0 W/m 7,7 C 9,1 C 1,6 km/h (1 Bft) 100,00 %
24.10.2017 23:48 9,1 C 10,6 C 91 % 1025,7 hPa 0,0 l/m 1,2 km/h (1 Bft) S-SO 165 0 min 0,000 mm 0,0 UV-I 0 W/m 7,7 C 9,1 C 3,2 km/h (1 Bft) 100,00 %
24.10.2017 23:50 9,2 C 10,6 C 91 % 1025,7 hPa 0,0 l/m 0,6 km/h (0 Bft) S-SO 165 0 min 0,000 mm 0,0 UV-I 0 W/m 7,8 C 9,2 C 3,2 km/h (1 Bft) 100,00 %
24.10.2017 23:52 9,2 C 10,6 C 91 % 1025,7 hPa 0,0 l/m 1,6 km/h (1 Bft) S-SO 165 0 min 0,000 mm 0,0 UV-I 0 W/m 7,8 C 9,2 C 3,2 km/h (1 Bft) 100,00 %
24.10.2017 23:54 9,2 C 10,6 C 91 % 1025,7 hPa 0,0 l/m 1,2 km/h (1 Bft) S-SO 165 0 min 0,000 mm 0,0 UV-I 0 W/m 7,8 C 9,2 C 3,2 km/h (1 Bft) 100,00 %
24.10.2017 23:56 9,2 C 10,6 C 91 % 1025,6 hPa 0,0 l/m 2,7 km/h (1 Bft) S-SO 165 0 min 0,000 mm 0,0 UV-I 0 W/m 7,8 C 9,2 C 6,4 km/h (2 Bft) 98,21 %
24.10.2017 23:58 9,2 C 10,6 C 91 % 1025,6 hPa 0,0 l/m 2,9 km/h (1 Bft) S-SO 165 0 min 0,000 mm 0,0 UV-I 0 W/m 7,8 C 9,2 C 6,4 km/h (2 Bft) 97,87 %
_ Min-Zeit 01:42 00:00 13:46 00:10 - 17:52 - - - - - - 00:00 04:54 17:52 02:40
Minimum _ 8,1 C 10,6 C 81 % 1022,2 hPa - 0,0 km/h (0 Bft) - - - - - - 6,6 C 1,9 C 0,0 km/h (0 Bft) 92,00 %
_ Max-Zeit 16:10 00:00 09:26 11:50 03:36 04:54 - - 13:20 14:00 13:16 13:20 11:20 16:10 03:34 00:02
Maximum _ 11,8 C 10,6 C 96 % 1026,8 hPa 0,2 l/m 18,6 km/h
W (3 Bft)
- - 2 min 0,102 mm 1,3 UV-I 278 W/m 8,9 C 11,8 C 29,0 km/h
W (5 Bft)
100,00 %
Durchschnitt _ 9,4 C 10,6 C 89 % 1025,1 hPa #1,6 l/m 7,6 km/h (2 Bft) W-SW - #6 min. #0,584 mm 0,7 UV-I 85 W/m 7,8 C 7,5 C 12,1 km/h (2 Bft) 98,11 %